[[{"header":{"parameterUnit":"m.s-1","parameterCategory":1,"la1":30.6,"la2":29.2853,"lo1":-89.7004,"lo2":-87.6739,"dy":0.0162,"dx":0.0183,"nx":112,"ny":82,"refTime":"2023-08-15T18:00:00:Z","depth":0,"parameterNumber":2,"parameterNumberName":"U-component_of_WINDS"},"data":[0.0,0.0,0.0,0.0,0.0,0.0,0.0,0.0,0.0,0.0,0.0,0.0,0.0,0.0,0.0,0.0,0.0,0.0,0.0,0.0,0.0,0.0,0.0,0.0,0.0,0.0,0.0,0.0,0.0,0.0,0.0,0.0,0.0,0.0,0.0,0.0,0.0,0.0,0.0,0.0,0.0,0.0,0.0,0.0,0.0,0.0,0.0,0.0,0.0,0.0,0.0,0.0,0.0,0.0,0.0,0.0,0.0,0.0,0.0,0.0,0.0,0.0,0.0,0.0,0.0,0.0,0.0,0.0,0.0,0.0,0.0,0.0,0.0,0.0,0.0,0.0,0.0,0.0,0.0,0.0,0.0,0.0,0.0,0.0,0.0,0.0,0.0,0.0,0.0,0.0,-1.1135,-1.1512,-1.1563,-1.1632,-1.1764,-1.1585,-1.1061,-1.0172,0.0,0.0,0.0,0.0,0.0,0.0,0.0,0.0,0.0,0.0,0.0,0.0,0.0,0.0,0.0,0.0,0.0,0.0,0.0,0.0,0.0,0.0,0.0,0.0,0.0,0.0,0.0,0.0,0.0,0.0,0.0,0.0,0.0,0.0,0.0,0.0,0.0,0.0,0.0,0.0,0.0,0.0,0.0,0.0,0.0,0.0,0.0,0.0,0.0,0.0,0.0,0.0,0.0,0.0,0.0,0.0,0.0,0.0,0.0,0.0,0.0,0.0,0.0,0.0,0.0,0.0,0.0,0.0,0.0,0.0,0.0,0.0,0.0,0.0,0.0,0.0,0.0,0.0,0.0,0.0,0.0,0.0,0.0,0.0,0.0,0.0,0.0,0.0,0.0,0.0,0.0,0.0,0.0,0.0,0.0,0.0,0.0,0.0,0.0,0.0,0.0,0.0,0.0,0.0,-1.1546,-1.2098,-1.2171,-1.2456,-1.3309,-1.243,-1.1896,-1.196,0.0,0.0,0.0,0.0,0.0,0.0,0.0,0.0,0.0,0.0,0.0,0.0,0.0,0.0,0.0,0.0,0.0,0.0,0.0,0.0,0.0,0.0,0.0,0.0,0.0,0.0,0.0,0.0,0.0,0.0,0.0,0.0,0.0,0.0,0.0,0.0,0.0,0.0,0.0,0.0,0.0,0.0,0.0,0.0,0.0,0.0,0.0,0.0,0.0,0.0,0.0,0.0,0.0,0.0,0.0,0.0,0.0,0.0,0.0,0.0,0.0,0.0,0.0,0.0,0.0,0.0,0.0,0.0,0.0,0.0,0.0,0.0,0.0,0.0,0.0,0.0,0.0,0.0,0.0,0.0,0.0,0.0,0.0,0.0,0.0,0.0,0.0,0.0,0.0,0.0,0.0,0.0,0.0,0.0,0.0,0.0,0.0,0.0,0.0,0.0,0.0,0.0,0.0,-1.1519,-1.2004,-1.2271,-1.2305,-1.2445,-1.2879,-1.2396,-1.1943,-1.1468,-1.1241,0.0,0.0,0.0,0.0,0.0,0.0,0.0,0.0,0.0,0.0,0.0,0.0,0.0,0.0,0.0,0.0,0.0,0.0,0.0,0.0,0.0,0.0,0.0,0.0,0.0,0.0,0.0,0.0,0.0,0.0,0.0,0.0,0.0,0.0,0.0,0.0,0.0,0.0,0.0,0.0,0.0,0.0,0.0,0.0,0.0,0.0,0.0,0.0,0.0,0.0,0.0,0.0,0.0,0.0,0.0,0.0,0.0,0.0,0.0,0.0,0.0,0.0,0.0,0.0,0.0,0.0,0.0,0.0,0.0,0.0,0.0,0.0,0.0,0.0,0.0,0.0,0.0,0.0,0.0,0.0,0.0,0.0,0.0,0.0,0.0,0.0,0.0,0.0,0.0,0.0,0.0,0.0,0.0,0.0,0.0,0.0,0.0,0.0,0.0,0.0,0.0,0.0,-1.1503,-1.2151,-1.2285,-1.2305,-1.2305,-1.2305,-1.2305,-1.1804,-1.0698,-1.0759,0.0,0.0,0.0,0.0,0.0,0.0,0.0,0.0,0.0,0.0,0.0,0.0,0.0,0.0,0.0,0.0,0.0,0.0,0.0,0.0,0.0,0.0,0.0,0.0,0.0,0.0,0.0,0.0,0.0,0.0,0.0,0.0,0.0,0.0,0.0,0.0,0.0,0.0,0.0,0.0,0.0,0.0,0.0,0.0,0.0,0.0,0.0,0.0,0.0,0.0,0.0,0.0,0.0,0.0,0.0,0.0,0.0,0.0,0.0,0.0,0.0,0.0,0.0,0.0,0.0,0.0,0.0,0.0,0.0,0.0,0.0,0.0,0.0,0.0,0.0,0.0,0.0,0.0,0.0,0.0,0.0,0.0,0.0,0.0,0.0,0.0,0.0,0.0,0.0,0.0,0.0,0.0,0.0,0.0,0.0,0.0,0.0,0.0,0.0,0.0,0.0,0.0,-1.1269,-1.1697,-1.2245,-1.2305,-1.2305,-1.2305,-1.2305,-1.1804,-1.0698,-1.0604,0.0,0.0,0.0,0.0,0.0,0.0,0.0,0.0,0.0,0.0,0.0,0.0,0.0,0.0,0.0,0.0,0.0,0.0,0.0,0.0,0.0,0.0,0.0,0.0,0.0,0.0,0.0,0.0,0.0,0.0,0.0,0.0,0.0,0.0,0.0,0.0,0.0,0.0,0.0,0.0,0.0,0.0,0.0,0.0,0.0,0.0,0.0,0.0,0.0,0.0,0.0,0.0,0.0,0.0,0.0,0.0,0.0,0.0,0.0,0.0,0.0,0.0,0.0,0.0,0.0,0.0,0.0,0.0,0.0,0.0,0.0,0.0,0.0,0.0,0.0,0.0,0.0,0.0,0.0,0.0,0.0,0.0,0.0,0.0,0.0,0.0,0.0,0.0,0.0,0.0,0.0,0.0,0.0,0.0,0.0,0.0,0.0,0.0,0.0,0.0,0.0,0.0,-1.1456,-1.2058,0.0,-1.2305,-1.2305,-1.2305,-1.2305,-1.1804,-1.0698,0.0,0.0,0.0,0.0,0.0,0.0,0.0,0.0,0.0,0.0,0.0,0.0,0.0,0.0,0.0,0.0,0.0,0.0,0.0,0.0,0.0,0.0,0.0,0.0,0.0,0.0,0.0,0.0,0.0,0.0,0.0,0.0,0.0,0.0,0.0,0.0,0.0,0.0,0.0,0.0,0.0,0.0,0.0,0.0,0.0,0.0,0.0,0.0,0.0,0.0,0.0,0.0,0.0,0.0,0.0,0.0,0.0,0.0,0.0,0.0,0.0,0.0,0.0,0.0,0.0,0.0,0.0,0.0,0.0,0.0,0.0,0.0,0.0,0.0,0.0,0.0,0.0,0.0,0.0,0.0,0.0,0.0,0.0,0.0,0.0,0.0,0.0,0.0,0.0,0.0,0.0,0.0,0.0,0.0,0.0,0.0,0.0,0.0,0.0,0.0,0.0,0.0,-1.0624,-1.1583,-1.2305,0.0,-1.2305,-1.2305,-1.2305,-1.2305,-1.1764,-1.0501,0.0,0.0,0.0,0.0,0.0,0.0,0.0,0.0,0.0,0.0,0.0,0.0,0.0,0.0,0.0,0.0,0.0,0.0,0.0,0.0,0.0,0.0,0.0,0.0,0.0,0.0,0.0,0.0,0.0,0.0,0.0,0.0,0.0,0.0,0.0,0.0,0.0,0.0,0.0,0.0,0.0,0.0,0.0,0.0,0.0,0.0,0.0,0.0,0.0,0.0,0.0,0.0,0.0,0.0,0.0,0.0,0.0,0.0,0.0,0.0,0.0,0.0,0.0,0.0,0.0,0.0,0.0,0.0,0.0,0.0,0.0,0.0,0.0,0.0,0.0,0.0,0.0,0.0,0.0,0.0,0.0,0.0,0.0,0.0,0.0,0.0,0.0,0.0,0.0,0.0,0.0,0.0,0.0,0.0,0.0,0.0,0.0,0.0,0.0,0.0,0.0,0.0,-1.0624,-1.1583,-1.2305,-1.2305,-1.2305,-1.2305,-1.2305,-1.2305,-1.1677,0.0,0.0,0.0,0.0,0.0,0.0,0.0,0.0,0.0,0.0,0.0,0.0,0.0,0.0,0.0,0.0,0.0,0.0,0.0,0.0,0.0,0.0,0.0,0.0,0.0,0.0,0.0,0.0,0.0,0.0,0.0,0.0,0.0,0.0,0.0,0.0,0.0,0.0,0.0,0.0,0.0,0.0,0.0,0.0,0.0,0.0,0.0,0.0,0.0,0.0,0.0,0.0,0.0,0.0,0.0,0.0,0.0,0.0,0.0,0.0,0.0,0.0,0.0,0.0,0.0,0.0,0.0,0.0,0.0,0.0,0.0,0.0,0.0,0.0,0.0,0.0,0.0,0.0,0.0,0.0,0.0,0.0,0.0,0.0,0.0,0.0,0.0,0.0,0.0,0.0,0.0,0.0,0.0,0.0,0.0,0.0,0.0,0.0,0.0,0.0,0.0,0.0,0.0,-1.0624,-1.1583,-1.2305,-1.2305,-1.2305,-1.2305,-1.2305,-1.2305,-1.1677,-1.0207,0.0,0.0,0.0,0.0,0.0,0.0,0.0,0.0,0.0,0.0,0.0,0.0,0.0,0.0,0.0,0.0,0.0,0.0,0.0,0.0,0.0,0.0,0.0,0.0,0.0,0.0,0.0,0.0,0.0,0.0,0.0,0.0,0.0,0.0,0.0,0.0,0.0,0.0,0.0,0.0,0.0,0.0,0.0,0.0,0.0,0.0,0.0,0.0,0.0,0.0,0.0,0.0,0.0,0.0,0.0,0.0,0.0,0.0,0.0,0.0,0.0,0.0,0.0,0.0,0.0,0.0,0.0,0.0,0.0,0.0,0.0,0.0,0.0,0.0,0.0,0.0,0.0,0.0,0.0,0.0,0.0,0.0,0.0,0.0,0.0,0.0,0.0,0.0,0.0,0.0,0.0,0.0,0.0,0.0,0.0,0.0,0.0,0.0,0.0,0.0,0.0,0.0,-1.0624,-1.1583,-1.2305,-1.2305,-1.2305,-1.2305,-1.2305,-1.2305,-1.1777,-1.0541,0.0,0.0,0.0,0.0,0.0,0.0,0.0,0.0,0.0,0.0,0.0,0.0,0.0,0.0,0.0,0.0,0.0,0.0,0.0,0.0,0.0,0.0,0.0,0.0,0.0,0.0,0.0,0.0,0.0,0.0,0.0,0.0,0.0,0.0,0.0,0.0,0.0,0.0,0.0,0.0,0.0,0.0,0.0,0.0,0.0,0.0,0.0,0.0,0.0,0.0,0.0,0.0,0.0,0.0,0.0,0.0,0.0,0.0,0.0,0.0,0.0,0.0,0.0,0.0,0.0,0.0,0.0,0.0,0.0,0.0,0.0,0.0,0.0,0.0,0.0,0.0,0.0,0.0,0.0,0.0,0.0,0.0,0.0,0.0,0.0,0.0,0.0,0.0,0.0,0.0,0.0,0.0,0.0,0.0,0.0,0.0,0.0,0.0,0.0,0.0,0.0,0.0,-1.0521,-1.1563,-1.2305,-1.2305,-1.2305,-1.2305,-1.2305,-1.2305,-1.1931,-1.1049,0.0,0.0,0.0,0.0,0.0,0.0,0.0,0.0,0.0,0.0,0.0,0.0,0.0,0.0,0.0,0.0,0.0,0.0,0.0,0.0,0.0,0.0,0.0,0.0,0.0,0.0,0.0,0.0,0.0,0.0,0.0,0.0,0.0,0.0,0.0,0.0,0.0,0.0,0.0,0.0,0.0,0.0,0.0,0.0,0.0,0.0,0.0,0.0,0.0,0.0,0.0,0.0,0.0,0.0,0.0,0.0,0.0,0.0,0.0,0.0,-0.5698,0.0,0.0,0.0,0.0,0.0,0.0,0.0,0.0,0.0,0.0,0.0,0.0,0.0,0.0,0.0,0.0,0.0,0.0,0.0,0.0,0.0,0.0,0.0,0.0,0.0,0.0,0.0,0.0,0.0,0.0,0.0,0.0,0.0,0.0,0.0,0.0,0.0,0.0,0.0,0.0,0.0,-1.0214,-1.1436,-1.2305,-1.2305,-1.2305,-1.2305,-1.2305,-1.2305,-1.1931,-1.1049,-1.0822,0.0,0.0,0.0,0.0,0.0,0.0,0.0,0.0,0.0,0.0,0.0,0.0,0.0,0.0,0.0,0.0,0.0,0.0,0.0,0.0,0.0,0.0,0.0,0.0,0.0,0.0,0.0,0.0,0.0,0.0,0.0,0.0,0.0,0.0,0.0,0.0,0.0,0.0,0.0,0.0,0.0,0.0,0.0,0.0,0.0,0.0,0.0,0.0,0.0,0.0,0.0,0.0,0.0,0.0,0.0,0.0,0.0,0.0,0.0,0.0,-0.6744,0.0,0.0,0.0,0.0,0.0,0.0,0.0,0.0,0.0,0.0,0.0,0.0,0.0,0.0,0.0,0.0,0.0,0.0,0.0,0.0,0.0,0.0,0.0,0.0,0.0,0.0,0.0,0.0,0.0,0.0,0.0,0.0,0.0,0.0,0.0,0.0,0.0,0.0,0.0,0.0,-1.0114,-1.1396,-1.2305,-1.2305,-1.2305,-1.2305,-1.2305,-1.2305,-1.2322,-1.2331,-1.1491,0.0,0.0,0.0,0.0,0.0,0.0,0.0,0.0,0.0,0.0,0.0,0.0,0.0,0.0,0.0,0.0,0.0,0.0,0.0,0.0,0.0,0.0,0.0,0.0,0.0,0.0,0.0,0.0,0.0,0.0,0.0,0.0,0.0,0.0,0.0,0.0,0.0,0.0,0.0,0.0,0.0,0.0,0.0,0.0,0.0,0.0,0.0,0.0,0.0,0.0,0.0,0.0,0.0,-0.6452,-0.6486,-0.6602,-0.7503,-0.7995,-0.8098,-0.8755,-0.9346,-0.9701,-0.8415,0.0,0.0,0.0,0.0,0.0,0.0,0.0,0.0,0.0,0.0,0.0,0.0,0.0,0.0,0.0,0.0,0.0,0.0,0.0,0.0,0.0,0.0,0.0,0.0,-1.0561,-1.0394,0.0,0.0,0.0,0.0,0.0,0.0,0.0,0.0,0.0,0.0,0.0,0.0,-1.0127,-1.149,-1.2438,-1.2385,-1.2378,-1.2358,-1.2305,-1.2305,-1.2666,-1.3382,-1.2033,-1.1542,0.0,0.0,0.0,0.0,0.0,0.0,0.0,0.0,0.0,0.0,0.0,0.0,0.0,0.0,0.0,0.0,0.0,0.0,0.0,0.0,0.0,0.0,0.0,0.0,0.0,0.0,0.0,0.0,0.0,0.0,0.0,0.0,-0.9682,-1.0137,0.0,0.0,0.0,0.0,0.0,0.0,0.0,0.0,0.0,0.0,0.0,0.0,0.0,-0.7364,-0.7316,-0.8739,-0.934,-0.9195,-0.9486,-0.9592,-0.9622,-1.0667,-1.1132,-1.1143,-1.1559,0.0,-0.9563,-0.9355,0.0,0.0,0.0,0.0,0.0,0.0,0.0,0.0,0.0,0.0,0.0,0.0,0.0,0.0,0.0,0.0,0.0,0.0,0.0,0.0,0.0,0.0,-1.1924,-1.2044,-1.1463,-1.1169,0.0,-1.0762,-0.9479,-1.0287,-0.9793,0.0,0.0,0.0,0.0,0.0,0.0,0.0,-1.0147,-1.1857,-1.2986,-1.2795,-1.2761,-1.2585,-1.2325,-1.2305,-1.2378,-1.2445,-1.2264,-1.1854,-1.1213,-1.1794,0.0,0.0,0.0,0.0,0.0,0.0,0.0,0.0,0.0,0.0,0.0,0.0,0.0,0.0,0.0,0.0,0.0,0.0,0.0,0.0,0.0,0.0,0.0,0.0,0.0,0.0,0.0,0.0,0.0,-0.964,-0.9773,-1.0077,-0.8675,-0.7753,0.0,0.0,0.0,0.0,0.0,0.0,0.0,0.0,0.0,-0.8328,-0.869,-0.8788,-0.8602,-0.9847,-1.0188,-0.963,-1.0514,-1.0958,-1.0958,-1.2008,-1.2531,-1.2611,-1.3484,-1.3385,-1.2449,-1.0913,-1.025,-1.0283,0.0,0.0,0.0,0.0,-0.9959,-1.0648,-1.0942,-1.143,0.0,-1.1917,0.0,0.0,0.0,0.0,0.0,0.0,0.0,0.0,0.0,0.0,-1.2392,-1.2732,-1.2518,-1.2378,-1.2899,-1.1804,-1.0882,0.0,-1.0828,-1.0067,-0.9573,0.0,0.0,0.0,0.0,-1.1249,-1.1116,-1.2331,-1.316,-1.3019,-1.3006,-1.2953,-1.2819,-1.3174,-1.3577,-1.4154,-1.3477,-1.3193,-1.3317,-1.2662,-1.171,0.0,0.0,0.0,0.0,0.0,0.0,0.0,0.0,0.0,0.0,0.0,0.0,0.0,0.0,0.0,0.0,0.0,0.0,0.0,0.0,0.0,0.0,0.0,0.0,0.0,0.0,0.0,0.0,-0.9723,-0.9902,-1.0172,-0.914,-0.8477,0.0,0.0,0.0,0.0,0.0,0.0,-0.7638,-0.7772,-0.8527,-1.0038,-1.0548,-1.0614,-1.0449,-1.157,-1.1743,-1.09,-1.1914,-1.2376,-1.2467,-1.3302,-1.367,-1.3676,-1.4597,-1.4963,-1.4856,-1.2776,-1.1868,-1.1765,-1.0795,-1.0504,-1.0602,-1.059,-1.1002,-1.159,-1.181,-1.2271,-1.2759,-1.2759,0.0,-1.2331,-1.1891,0.0,0.0,0.0,0.0,-1.1557,-1.2058,-1.2358,-1.2645,-1.31,-1.3213,-1.3233,-1.3307,-1.2672,-1.2184,0.0,-1.1824,-1.1035,-1.0454,0.0,0.0,0.0,0.0,-1.2064,-1.1991,-1.2832,-1.3407,-1.3327,-1.332,-1.3287,-1.322,-1.3684,-1.4177,-1.4821,-1.3999,-1.3755,-1.4458,-1.3091,-1.1997,-1.1343,0.0,0.0,0.0,0.0,0.0,0.0,0.0,0.0,0.0,0.0,0.0,0.0,0.0,0.0,0.0,0.0,0.0,0.0,0.0,0.0,0.0,0.0,0.0,0.0,0.0,0.0,0.0,0.0,0.0,-1.0301,-0.9814,0.0,0.0,0.0,0.0,-0.7345,-0.6418,-0.6493,-0.8064,-0.8417,-0.8765,-0.9313,-1.1795,-1.3033,-1.3044,-1.418,-1.4764,-1.4687,-1.4777,-1.4777,-1.4867,-1.4867,-1.4874,-1.4867,-1.4963,-1.4963,-1.4957,-1.4863,-1.4568,-1.4216,-1.3386,-1.3034,-1.2895,-1.2131,-1.2365,-1.31,-1.3113,-1.3507,-1.3995,-1.3995,-1.342,-1.264,-1.171,-1.1617,0.0,0.0,-1.1797,-1.2614,-1.2024,-1.2525,-1.3173,-1.32,-1.3213,-1.3287,-1.3561,-1.314,-1.2792,0.0,-1.2438,-1.1897,-1.2131,0.0,-1.1917,-1.1035,-1.1931,-1.2674,-1.2318,-1.3313,-1.3935,-1.3654,-1.3539,-1.3507,-1.3233,-1.3193,-1.3138,-1.2912,-1.2885,-1.275,-1.2459,-1.2378,-1.2278,-1.2238,-1.1416,0.0,0.0,0.0,0.0,0.0,0.0,0.0,0.0,0.0,0.0,0.0,0.0,0.0,0.0,0.0,0.0,0.0,0.0,0.0,0.0,0.0,0.0,0.0,0.0,0.0,0.0,0.0,0.0,-0.9701,-0.9685,0.0,-0.8811,-0.7964,-0.759,-0.8074,-0.799,-0.8563,-1.0139,-1.103,-1.1987,-1.2974,-1.3164,-1.3371,-1.3602,-1.4184,-1.4551,-1.4892,-1.5686,-1.6086,-1.6086,-1.6086,-1.6086,-1.6086,-1.6086,-1.5979,-1.5805,-1.5805,-1.5411,-1.4776,-1.4462,-1.4342,-1.4302,-1.3981,-1.4062,-1.4342,-1.4342,-1.4476,-1.4623,-1.4429,-1.4021,-1.3547,-1.3233,-1.3213,-1.3253,-1.3046,-1.3287,-1.3561,-1.3347,-1.3534,-1.3774,-1.3774,-1.3774,-1.3801,-1.3908,-1.3761,-1.3641,-1.3754,-1.3206,-1.2699,-1.2605,-1.3066,-1.3146,-1.2258,-1.2966,-1.3574,-1.3467,-1.3821,-1.4048,-1.3941,-1.3928,-1.3888,-1.3781,-1.4149,-1.4374,-1.4259,-1.3949,-1.3669,-1.3554,-1.2769,-1.2305,-1.2305,-1.1997,-1.1283,0.0,0.0,0.0,0.0,0.0,0.0,0.0,0.0,0.0,0.0,0.0,0.0,0.0,0.0,0.0,0.0,0.0,0.0,0.0,0.0,0.0,0.0,0.0,0.0,0.0,0.0,-1.022,-0.997,-1.0225,-1.0272,-0.9958,-0.9402,-0.9346,-0.9945,-0.997,-1.0517,-1.1909,-1.2917,-1.3853,-1.4694,-1.4496,-1.457,-1.4826,-1.4936,-1.5115,-1.5469,-1.6293,-1.6707,-1.6707,-1.6707,-1.6593,-1.642,-1.662,-1.6486,-1.6139,-1.6339,-1.6072,-1.5524,-1.5224,-1.505,-1.4963,-1.4963,-1.4963,-1.4963,-1.4963,-1.4963,-1.493,-1.4736,-1.4536,-1.4382,-1.4382,-1.4382,-1.4362,-1.4262,-1.4229,-1.4208,-1.4115,-1.4088,-1.4088,-1.4088,-1.4088,-1.4088,-1.4088,-1.3848,-1.3728,-1.4028,-1.3774,-1.3347,-1.2909,-1.3319,-1.3333,-1.2438,-1.2806,-1.3193,-1.3193,-1.3454,-1.3634,-1.3634,-1.3908,-1.4088,-1.4088,-1.4265,-1.4439,-1.4574,-1.3971,-1.3604,-1.3712,-1.2728,-1.2111,-1.2011,-1.1717,-1.1089,-1.0127,0.0,0.0,0.0,0.0,0.0,0.0,0.0,0.0,0.0,0.0,0.0,0.0,0.0,0.0,0.0,0.0,0.0,0.0,0.0,0.0,0.0,0.0,0.0,-1.0732,-1.1039,-1.1226,-1.1278,-1.1676,-1.1741,-1.0945,-1.1087,-1.1768,-1.3115,-1.221,-1.2032,-1.3156,-1.3814,-1.4178,-1.4178,-1.5776,-1.6687,-1.6693,-1.6707,-1.6727,-1.6734,-1.6734,-1.6734,-1.6734,-1.6734,-1.642,-1.5919,-1.6486,-1.6406,-1.5912,-1.648,-1.6714,-1.662,-1.5772,-1.5257,-1.5003,-1.5003,-1.4997,-1.499,-1.497,-1.497,-1.4977,-1.4977,-1.497,-1.4963,-1.4963,-1.4963,-1.4903,-1.4616,-1.4536,-1.4469,-1.4188,-1.4115,-1.4115,-1.4115,-1.4115,-1.4115,-1.4102,-1.3414,-1.3138,-1.3921,-1.4088,-1.3814,-1.3017,-1.2869,-1.2498,-1.1637,-1.151,0.0,-1.151,-1.2258,-1.2869,-1.2869,-1.354,-1.4055,-1.4082,-1.3267,-1.3006,-1.3621,-1.2832,-1.2478,-1.2842,-1.2284,-1.1757,-1.1456,-1.0588,-1.0421,-1.0989,0.0,0.0,0.0,0.0,0.0,0.0,0.0,0.0,0.0,0.0,0.0,0.0,0.0,0.0,0.0,0.0,0.0,0.0,0.0,0.0,0.0,0.0,-1.2492,-1.2257,-1.2461,-1.2501,-1.2046,-1.3268,-1.3724,-1.2624,-1.2608,-1.2842,-1.3275,-1.3373,-1.3559,-1.3937,-1.4879,-1.5343,-1.5343,-1.5794,-1.6172,-1.6386,-1.6814,-1.7134,-1.7341,-1.7341,-1.7341,-1.7341,-1.7341,-1.7255,-1.7108,-1.7275,-1.7128,-1.68,-1.6961,-1.6901,-1.668,-1.644,-1.6166,-1.5912,-1.5912,-1.5778,-1.5531,-1.511,-1.5104,-1.5277,-1.5277,-1.5137,-1.4963,-1.4963,-1.4963,-1.4943,-1.4863,-1.4843,-1.4823,-1.4743,-1.4723,-1.4723,-1.4723,-1.4723,-1.4663,-1.4449,-1.4202,-1.4041,-1.4082,-1.4088,-1.4008,-1.3761,-1.3714,-1.3634,-1.3394,-1.3353,0.0,-1.3353,-1.3567,-1.3714,-1.3714,-1.3353,-1.338,-1.4035,-1.3267,-1.3093,-1.3915,-1.3527,-1.3307,-1.3394,-1.2826,-1.2365,-1.2071,-1.1202,-1.0828,0.0,0.0,0.0,0.0,0.0,0.0,0.0,0.0,0.0,0.0,0.0,0.0,0.0,0.0,0.0,0.0,0.0,0.0,0.0,0.0,0.0,0.0,-1.2639,-1.346,-1.3729,-1.3721,-1.3671,-1.3498,-1.4382,-1.4779,-1.4358,-1.4291,-1.4447,-1.4731,-1.5008,-1.517,-1.532,-1.5999,-1.6273,-1.6019,-1.6373,-1.6526,-1.6453,-1.7041,-1.7415,-1.7582,-1.7582,-1.7582,-1.7582,-1.7582,-1.7448,0.0,-1.7475,-1.7348,-1.6981,-1.7228,-1.7228,0.0,0.0,0.0,0.0,0.0,-1.6166,-1.5945,-1.5484,-1.5438,-1.5578,-1.5578,-1.5464,-1.5331,-1.5331,-1.5157,-1.4937,-1.481,-1.4603,-1.4442,-1.4563,-1.4596,-1.4656,-1.4903,-1.4963,-1.4917,-1.4743,-1.4315,-1.4028,-1.4229,-1.3868,0.0,-1.4021,-1.3774,-1.34,-1.3026,-1.2973,-1.2973,-1.2973,-1.3293,-1.3527,-1.3527,-1.3394,-1.352,-1.4041,-1.3267,0.0,0.0,0.0,-1.3267,-1.3267,-1.2692,0.0,0.0,0.0,-1.0748,-1.0995,0.0,0.0,0.0,-1.0388,-1.0087,0.0,0.0,0.0,0.0,0.0,0.0,0.0,0.0,0.0,0.0,0.0,0.0,0.0,0.0,0.0,0.0,-1.3561,-1.4082,-1.4897,-1.4816,-1.4763,-1.503,-1.509,-1.5324,-1.5872,-1.5925,-1.6146,-1.6667,-1.6734,-1.676,-1.676,0.0,0.0,0.0,0.0,-1.7235,-1.6707,-1.7288,-1.7582,-1.7582,-1.7582,-1.7582,-1.7582,-1.7582,-1.7295,-1.6834,-1.7355,-1.7288,-1.6847,-1.7368,-1.7582,-1.7528,-1.6974,-1.676,-1.6714,-1.6353,-1.6266,-1.6266,-1.5905,0.0,0.0,-1.5838,-1.5832,-1.5832,-1.5832,-1.5471,-1.5003,-1.4743,-1.4295,-1.3948,-1.4215,-1.4282,-1.4416,-1.4937,-1.5064,-1.5057,-1.5017,-1.4195,-1.3674,-1.4429,-1.3694,-1.3279,-1.4001,-1.3447,-1.2632,-1.1844,-1.1724,-1.1724,-1.1724,-1.2412,-1.2976,-1.2976,0.0,0.0,-1.4082,-1.3267,-1.3212,-1.4028,-1.3333,-1.2963,-1.2929,-1.2345,-1.167,-1.0887,-1.0548,-1.0655,-1.1142,-1.1142,-1.1543,-1.2271,-1.0969,-1.0641,0.0,0.0,0.0,0.0,0.0,0.0,0.0,0.0,0.0,0.0,0.0,0.0,0.0,0.0,0.0,-1.3514,-1.4202,-1.485,-1.5257,-1.5464,-1.5598,-1.5658,-1.5872,-1.6152,-1.65,-1.654,-1.658,-1.67,-1.6927,-1.7061,-1.7061,-1.6894,-1.674,-1.6627,-1.6787,-1.682,-1.6707,-1.7288,-1.7582,-1.7582,0.0,0.0,-1.7582,-1.7582,-1.7522,-1.7415,-1.7528,-1.7515,-1.7422,-1.7535,-1.7582,-1.7549,-1.7201,-1.7061,-1.6967,-1.6199,-1.6213,-1.6513,-1.5745,-1.5792,-1.6146,-1.5905,-1.5832,-1.5832,-1.5832,-1.5752,0.0,-1.5591,-1.5491,-1.5418,-1.5478,-1.5491,-1.5518,-1.5631,-1.5665,-1.5598,-1.5364,-1.5137,-1.4957,-1.489,-1.4496,-1.4229,-1.4409,-1.4095,-1.3774,-1.3601,-1.3574,-1.3574,-1.3574,-1.3721,-1.3828,-1.3828,-1.3333,-1.33,-1.4028,-1.3267,-1.3212,-1.4028,-1.3921,-1.3721,-1.348,-1.336,-1.2993,-1.2412,-1.2338,-1.2178,-1.2051,-1.2051,-1.2138,-1.2291,-1.2011,-1.1944,0.0,0.0,0.0,0.0,0.0,0.0,0.0,0.0,0.0,0.0,0.0,-1.2572,0.0,0.0,-1.3788,-1.4235,-1.4676,-1.517,-1.5752,-1.5959,-1.6052,-1.6052,-1.6313,-1.6607,-1.6901,-1.6927,-1.6987,-1.7134,-1.7281,-1.7368,-1.7368,-1.7228,-1.7007,-1.6714,-1.6987,-1.7001,-1.6707,-1.7288,-1.7582,-1.7582,-1.7582,-1.7582,-1.7582,-1.7582,-1.7582,-1.7582,-1.7582,-1.7582,-1.7582,-1.7582,-1.7582,-1.7569,-1.7422,-1.7368,-1.7295,-1.6707,-1.6673,-1.684,-1.6253,-1.6146,-1.6246,-1.6099,-1.5952,-1.5832,-1.5832,-1.5625,-1.5398,-1.5398,-1.5184,-1.5023,-1.5317,-1.5398,-1.5471,-1.5758,-1.5832,-1.5792,-1.5645,-1.5498,-1.5351,-1.5211,-1.4943,-1.4696,-1.4543,-1.4402,-1.4255,-1.4108,-1.4088,-1.4088,-1.4088,-1.4088,-1.4088,-1.4088,-1.3687,-1.3601,-1.4048,-1.3674,-1.3607,-1.4055,-1.4088,-1.4021,-1.3874,-1.3721,-1.35,-1.32,-1.2976,-1.2748,-1.2525,-1.2378,-1.2305,-1.2305,-1.2305,-1.2305,0.0,0.0,0.0,0.0,0.0,0.0,0.0,0.0,-1.2732,-1.2732,-1.2973,-1.3253,-1.3507,-1.3788,-1.4215,-1.493,-1.5144,-1.5464,-1.6172,-1.6373,-1.6446,-1.6446,-1.6653,-1.6907,-1.7208,-1.7235,-1.7328,-1.7562,-1.7582,-1.7582,-1.7582,-1.7582,-1.7368,-1.6894,-1.7335,-1.7355,-1.6881,-1.7348,-1.7582,-1.7582,-1.7582,-1.7582,-1.7582,-1.7582,-1.7582,-1.7582,-1.7582,-1.7582,-1.7582,-1.7582,-1.7582,-1.7582,-1.7582,-1.7582,-1.7555,-1.7321,-1.7235,-1.7194,-1.6894,-1.664,-1.6433,-1.6373,-1.6159,-1.5912,-1.5912,-1.5551,-1.5137,-1.5137,-1.479,-1.4536,-1.501,-1.5137,-1.5251,-1.5718,-1.5832,-1.5832,-1.5832,-1.5645,-1.5478,-1.5478,-1.5244,-1.497,-1.473,-1.4596,-1.4422,-1.4128,-1.4088,-1.4088,-1.4088,-1.4088,-1.4088,-1.4088,-1.4088,-1.4088,-1.4088,-1.4088,-1.4088,-1.4088,-1.4088,-1.4088,-1.4088,-1.3854,-1.3701,-1.3559,-1.3113,-1.2882,-1.2822,-1.2445,-1.2305,-1.2305,-1.2305,-1.2305,-1.161,-1.1236,-1.1162,-1.145,-1.2118,-1.2849,0.0,0.0,-1.4275,-1.4275,-1.4509,-1.473,-1.4763,-1.5003,-1.5231,-1.5331,-1.5785,-1.6159,-1.6259,-1.672,-1.7054,-1.7054,-1.7081,-1.7215,-1.7508,-1.7535,-1.7549,-1.7582,-1.7582,-1.7582,-1.7582,-1.7582,-1.7555,-1.7488,-1.7549,-1.7549,-1.7482,-1.7549,-1.7582,-1.7582,-1.7582,-1.7582,-1.7582,-1.7582,-1.7582,-1.7582,-1.7582,-1.7582,-1.7582,-1.7582,-1.7582,-1.7582,-1.7582,-1.7582,-1.7582,-1.7549,-1.7535,-1.7495,-1.7201,-1.7081,-1.7007,-1.674,-1.646,-1.6226,-1.6226,-1.5992,-1.5732,-1.5732,-1.5685,-1.5651,-1.5712,-1.5732,-1.5752,-1.5812,-1.5832,-1.5832,-1.5832,-1.5805,-1.5785,-1.5785,-1.5545,-1.5337,-1.5304,-1.4863,-1.4422,-1.4128,-1.4088,-1.4088,-1.4088,-1.4088,-1.4088,-1.4088,-1.4088,-1.4088,-1.4088,-1.4088,-1.4088,-1.4088,-1.4088,-1.4088,-1.4088,-1.4055,-1.3915,-1.3647,-1.332,-1.3019,-1.2822,-1.2445,-1.2305,-1.2305,-1.2305,-1.2305,-1.2198,-1.2238,0.0,0.0,-1.338,-1.3861,-1.4162,-1.4516,-1.4776,-1.4776,-1.501,-1.5217,-1.5217,-1.5311,-1.5451,0.0,-1.5852,-1.6132,-1.648,-1.6887,-1.7215,-1.7382,-1.7101,-1.6934,-1.7061,-1.7382,-1.7442,-1.7094,-1.7388,-1.7582,-1.7582,-1.7582,-1.7582,-1.7582,-1.7582,-1.7582,-1.7582,-1.7582,-1.7582,-1.7582,-1.7582,-1.7582,-1.7582,-1.7582,-1.7582,-1.7582,-1.7582,-1.7582,-1.7582,-1.7582,-1.7582,-1.7582,-1.7582,-1.7582,-1.7582,-1.7582,-1.7582,-1.7562,-1.7442,-1.7288,-1.723,-1.7007,-1.676,-1.6493,-1.6326,-1.6186,-1.6052,-1.5879,-1.5832,-1.5832,-1.5832,-1.5832,-1.5832,-1.5832,-1.5832,-1.5832,-1.5832,-1.5832,-1.5832,-1.5832,-1.5732,-1.5591,-1.5424,-1.505,-1.4683,-1.4382,-1.4195,-1.4088,-1.4088,-1.4088,-1.4088,-1.4088,-1.4088,-1.4088,-1.4088,-1.4088,-1.4088,-1.4088,-1.4088,-1.4088,-1.4088,-1.4088,-1.4028,-1.3901,-1.3614,-1.3313,-1.3013,-1.2712,-1.2472,-1.2305,-1.2305,-1.2305,-1.252,0.0,0.0,-1.3774,-1.4242,-1.4623,-1.4997,-1.5084,-1.5104,-1.519,-1.5371,-1.5518,-1.5518,-1.5518,-1.5585,-1.5798,-1.5899,-1.6132,-1.6633,-1.6961,-1.7194,-1.7328,-1.6967,-1.658,-1.6253,-1.6901,-1.7235,-1.6967,-1.7341,-1.7582,-1.7582,-1.7582,-1.7582,-1.7582,-1.7582,-1.7582,-1.7582,-1.7582,-1.7582,-1.7582,-1.7582,-1.7582,-1.7582,-1.7582,-1.7582,-1.7582,-1.7582,-1.7582,-1.7582,-1.7582,-1.7582,-1.7582,-1.7582,-1.7582,-1.7582,-1.7582,-1.7582,-1.7582,-1.7582,-1.7442,-1.7268,-1.7268,-1.7068,-1.6774,-1.648,-1.6339,-1.6213,-1.5912,-1.5832,-1.5832,-1.5832,-1.5832,-1.5832,-1.5832,-1.5832,-1.5832,-1.5832,-1.5832,-1.5832,-1.5832,-1.5832,-1.5758,-1.5551,-1.5277,-1.4983,-1.4689,-1.4396,-1.4175,-1.4095,-1.4088,-1.4088,-1.4088,-1.4088,-1.4088,-1.4088,-1.4088,-1.4088,-1.4088,-1.4088,-1.4088,-1.4088,-1.4088,-1.4088,-1.4088,-1.3794,-1.35,-1.3213,-1.2899,-1.2592,-1.2305,-1.2305,-1.2305,0.0,0.0,-1.2191,-1.3367,-1.4095,-1.4676,-1.5251,-1.5384,-1.5464,-1.5745,-1.5812,-1.5812,-1.5812,-1.5812,-1.5818,-1.5832,-1.6072,-1.6359,-1.666,-1.6961,-1.7048,-1.6767,-1.6714,-1.6259,0.0,-1.6059,-1.6961,-1.7515,-1.7569,-1.7582,-1.7582,-1.7582,-1.7582,-1.7582,-1.7582,-1.7582,-1.7582,-1.7582,-1.7582,-1.7582,-1.7582,-1.7582,-1.7582,-1.7582,-1.7582,-1.7582,-1.7582,-1.7582,-1.7582,-1.7582,-1.7582,-1.7582,-1.7582,-1.7582,-1.7582,-1.7582,-1.7582,-1.7582,-1.7582,-1.7575,-1.7569,-1.7569,-1.7375,-1.7081,-1.678,-1.65,-1.6213,-1.5912,-1.5832,-1.5832,-1.5832,-1.5832,-1.5832,-1.5832,-1.5832,-1.5832,-1.5832,-1.5832,-1.5832,-1.5832,-1.5832,-1.5825,-1.5818,-1.5578,-1.5284,-1.499,-1.4696,-1.4402,-1.4122,-1.4088,-1.4088,-1.4088,-1.4088,-1.4088,-1.4088,-1.4088,-1.4088,-1.4088,-1.4088,-1.4088,-1.4088,-1.4088,-1.4088,-1.4088,-1.3794,-1.35,-1.3213,-1.2899,-1.2592,-1.2305,-1.2305,-1.2305,0.0,0.0,-1.328,-1.4275,-1.4816,-1.5204,-1.5591,-1.5685,-1.5712,-1.5805,-1.5524,-1.5257,-1.5257,-1.509,-1.5023,-1.5224,-1.5498,-1.5932,-1.6613,-1.6627,-1.6747,-1.7228,-1.6774,0.0,0.0,0.0,0.0,-1.6433,-1.7141,-1.7582,-1.7582,-1.7582,-1.7582,-1.7582,-1.7582,-1.7582,-1.7582,-1.7582,-1.7582,-1.7582,-1.7582,-1.7582,-1.7582,-1.7582,-1.7582,-1.7582,-1.7582,-1.7582,-1.7582,-1.7582,-1.7582,-1.7582,-1.7582,-1.7582,-1.7582,-1.7582,-1.7582,-1.7582,-1.7582,-1.7582,-1.7582,-1.7582,-1.7515,-1.7382,-1.7088,-1.6794,-1.65,-1.6206,-1.5979,-1.5832,-1.5832,-1.5832,-1.5832,-1.5832,-1.5832,-1.5832,-1.5832,-1.5832,-1.5832,-1.5832,-1.5832,-1.5832,-1.5832,-1.5585,-1.5231,-1.4743,-1.4422,-1.4202,-1.4095,-1.4088,-1.4088,-1.4088,-1.4088,-1.4088,-1.4088,-1.4088,-1.4088,-1.4088,-1.4088,-1.4088,-1.4088,-1.4088,-1.4088,-1.4088,-1.3988,-1.3701,-1.3213,-1.3106,-1.2792,-1.2305,-1.2305,-1.2305,0.0,-1.328,-1.4015,-1.4897,-1.5337,-1.5598,-1.5785,-1.5832,-1.5832,-1.5832,-1.5531,-1.5211,-1.5003,-1.481,-1.4743,-1.4937,-1.5117,-1.5545,-1.6426,-1.648,-1.66,-1.7061,-1.6707,-1.6567,0.0,0.0,0.0,-1.6172,-1.684,-1.7268,-1.7268,-1.7268,-1.7368,-1.7575,-1.7582,-1.7582,-1.7582,-1.7582,-1.7582,-1.7582,-1.7582,-1.7582,-1.7582,-1.7582,-1.7468,-1.7281,-1.7488,-1.7462,-1.7288,-1.7495,-1.7582,-1.7582,-1.7582,-1.7582,-1.7582,-1.7582,-1.7582,-1.7582,-1.7582,-1.7582,-1.7582,-1.7582,-1.7582,-1.7528,-1.7235,-1.7014,-1.678,-1.6386,-1.6132,-1.5965,-1.5852,-1.5832,-1.5832,-1.5832,-1.5832,-1.5832,-1.5832,-1.5832,-1.5832,-1.5832,-1.5832,-1.5832,-1.5832,-1.5504,-1.5117,-1.4736,-1.4342,-1.4088,-1.4088,-1.4088,-1.4088,-1.4088,-1.4088,-1.4088,-1.4088,-1.4088,-1.4088,-1.4088,-1.4088,-1.4088,-1.4088,-1.4088,-1.4088,-1.4088,-1.4088,-1.3801,-1.3213,-1.3213,-1.2899,-1.2305,-1.2305,-1.2305,-1.3273,-1.3908,-1.4355,-1.5204,-1.5625,-1.5832,-1.5832,-1.5818,-1.5798,-1.5765,-1.5725,-1.5524,0.0,0.0,-1.485,-1.491,-1.4917,-1.5231,-1.6126,-1.6486,-1.6567,0.0,0.0,0.0,0.0,0.0,0.0,-1.6707,0.0,-1.6747,-1.6747,-1.6747,-1.7007,-1.7562,-1.7582,-1.7582,-1.7582,-1.7582,-1.7582,-1.7582,-1.7582,-1.7582,-1.7582,-1.7582,-1.7281,-1.678,-1.7341,-1.7268,-1.6794,-1.7355,-1.7582,-1.7582,-1.7582,-1.7582,-1.7582,-1.7582,-1.7582,-1.7582,-1.7582,-1.7582,-1.7582,-1.7582,-1.7582,-1.7528,-1.7255,-1.7161,-1.7027,-1.6453,-1.6286,-1.6206,-1.5905,-1.5832,-1.5832,-1.5832,-1.5832,-1.5832,-1.5832,-1.5832,-1.5832,-1.5832,-1.5832,-1.5832,-1.5832,-1.5351,-1.4963,-1.4963,-1.4462,-1.4088,-1.4088,-1.4088,-1.4088,-1.4088,-1.4088,-1.4088,-1.4088,-1.4088,-1.4088,-1.4088,-1.4088,-1.4088,-1.4088,-1.4088,-1.4088,-1.4088,-1.4088,-1.3801,-1.3213,-1.3213,-1.2899,-1.2305,-1.2305,-1.2305,-1.3754,-1.4509,-1.5164,-1.5611,-1.5772,-1.5832,-1.5832,-1.5665,-1.5384,-1.4943,-1.4335,-1.3761,0.0,0.0,0.0,-1.4162,-1.4309,0.0,-1.5785,-1.6005,0.0,0.0,0.0,-1.7061,-1.7128,-1.7275,0.0,0.0,-1.7114,-1.7361,-1.7361,-1.7361,-1.7428,-1.7582,-1.7582,-1.7582,-1.7582,-1.7582,-1.7582,-1.7582,-1.7582,-1.7582,-1.7582,-1.7582,-1.7502,-1.7368,-1.7515,-1.7495,-1.7368,-1.7522,-1.7582,-1.7582,-1.7582,-1.7582,-1.7582,-1.7582,-1.7582,-1.7582,-1.7582,-1.7582,-1.7582,-1.7582,-1.7582,-1.7569,-1.7495,-1.7321,-1.7074,-1.67,-1.644,-1.6206,-1.5905,-1.5832,-1.5832,-1.5832,-1.5832,-1.5832,-1.5832,-1.5832,-1.5832,-1.5832,-1.5832,-1.5832,-1.5832,-1.5351,-1.4963,-1.4963,-1.4462,-1.4088,-1.4088,-1.4088,-1.4088,-1.4088,-1.4088,-1.4088,-1.4088,-1.4088,-1.4088,-1.4088,-1.4088,-1.4088,-1.4088,-1.4088,-1.4088,-1.4088,-1.4088,-1.3801,-1.3213,-1.3213,-1.2899,-1.2305,-1.2305,-1.2305,-1.4469,-1.5117,-1.5625,-1.5792,-1.5832,-1.5725,-1.5344,-1.513,-1.481,-1.4088,-1.3654,0.0,0.0,0.0,0.0,0.0,0.0,0.0,-1.5491,-1.5858,-1.6146,0.0,-1.6894,0.0,-1.7555,-1.7582,-1.7448,0.0,-1.7161,-1.7201,-1.7201,-1.7201,-1.7315,-1.7575,-1.7582,-1.7582,-1.7582,-1.7582,-1.7582,-1.7582,-1.7582,-1.7582,-1.7582,-1.7582,-1.7442,-1.7215,0.0,-1.7435,-1.7215,-1.7475,-1.7582,-1.7582,-1.7582,-1.7582,-1.7582,-1.7582,-1.7582,-1.7582,-1.7582,-1.7582,-1.7582,-1.7582,-1.7582,-1.7582,-1.7582,-1.7468,-1.7255,-1.6827,-1.6587,-1.6366,-1.5939,-1.5832,-1.5832,-1.5832,-1.5832,-1.5832,-1.5832,-1.5832,-1.5832,-1.5832,-1.5832,-1.5832,-1.5832,-1.5451,-1.511,-1.4983,-1.4569,-1.4229,-1.4108,-1.4088,-1.4088,-1.4088,-1.4088,-1.4088,-1.4088,-1.4088,-1.4088,-1.4088,-1.4088,-1.4088,-1.4088,-1.4088,-1.4088,-1.4088,-1.4088,-1.3801,-1.3213,-1.3213,-1.2899,-1.2305,-1.2305,-1.2305,-1.5177,-1.5611,-1.5832,-1.5832,-1.5798,-1.5571,-1.481,-1.4516,-1.4162,-1.332,0.0,-1.326,-1.2779,0.0,-1.3353,-1.3988,0.0,-1.4355,-1.5117,-1.5765,-1.6172,-1.6213,-1.6734,-1.7221,-1.7549,-1.7549,-1.7542,-1.7582,-1.7114,-1.682,-1.682,-1.682,-1.7054,-1.7569,-1.7582,-1.7582,-1.7582,-1.7582,-1.7582,-1.7582,-1.7582,-1.7582,-1.7582,-1.7582,-1.7301,-1.6854,-1.7361,0.0,-1.686,-1.7368,-1.7582,-1.7582,-1.7582,-1.7582,-1.7582,-1.7582,-1.7582,-1.7582,-1.7582,-1.7582,-1.7582,-1.7582,-1.7582,-1.7582,-1.7582,-1.7555,-1.7408,-1.686,-1.6673,-1.652,-1.5972,-1.5832,-1.5832,-1.5832,-1.5832,-1.5832,-1.5832,-1.5832,-1.5832,-1.5832,-1.5832,-1.5832,-1.5832,-1.5585,-1.5297,-1.501,-1.471,-1.4416,-1.4122,-1.4088,-1.4088,-1.4088,-1.4088,-1.4088,-1.4088,-1.4088,-1.4088,-1.4088,-1.4088,-1.4088,-1.4088,-1.4088,-1.4088,-1.4088,-1.4088,-1.3801,-1.3213,-1.3213,-1.2899,-1.2305,-1.2305,-1.2305,-1.5291,-1.5611,-1.5832,-1.5832,-1.5651,-1.5431,-1.5277,-1.4496,0.0,0.0,0.0,-1.2218,-1.2351,-1.2625,0.0,-1.3948,0.0,0.0,0.0,0.0,-1.5638,0.0,0.0,0.0,0.0,0.0,0.0,0.0,0.0,-1.7428,-1.7428,-1.7428,-1.7475,-1.7582,-1.7582,-1.7582,-1.7582,-1.7582,-1.7582,-1.7582,-1.7582,-1.7582,-1.7582,-1.7582,-1.7528,-1.7435,-1.7535,0.0,-1.7442,-1.7542,-1.7582,-1.7582,-1.7582,-1.7582,-1.7582,-1.7582,-1.7582,-1.7582,-1.7582,-1.7582,-1.7582,-1.7582,-1.7582,-1.7582,-1.7582,-1.7415,-1.7154,-1.6807,-1.6533,-1.6266,-1.5919,-1.5832,-1.5832,-1.5832,-1.5832,-1.5832,-1.5832,-1.5832,-1.5832,-1.5832,-1.5832,-1.5832,-1.5832,-1.5585,-1.5297,-1.501,-1.471,-1.4416,-1.4122,-1.4088,-1.4088,-1.4088,-1.4088,-1.4088,-1.4088,-1.4088,-1.4088,-1.4088,-1.4088,-1.4088,-1.4088,-1.4088,-1.4088,-1.4088,-1.4088,-1.3801,-1.3213,-1.3213,-1.2899,-1.2305,-1.2305,-1.2305,-1.5137,-1.5491,-1.5792,-1.5645,-1.5504,-1.515,-1.4229,0.0,0.0,0.0,0.0,-1.1677,-1.1817,0.0,0.0,0.0,0.0,0.0,0.0,0.0,0.0,0.0,0.0,0.0,0.0,0.0,0.0,0.0,0.0,-1.7422,-1.7575,-1.7582,-1.7582,-1.7582,-1.7582,-1.7582,-1.7582,-1.7582,-1.7582,-1.7582,-1.7582,-1.7582,-1.7582,-1.7582,-1.7582,-1.7582,-1.7582,0.0,-1.7154,-1.7455,-1.7402,-1.7154,-1.7462,-1.7582,-1.7582,-1.7582,-1.7582,-1.7582,-1.7582,-1.7582,-1.7582,-1.7582,-1.7582,-1.7582,-1.7582,-1.7382,-1.7088,-1.6787,-1.65,-1.6206,-1.5905,-1.5832,-1.5832,-1.5832,-1.5832,-1.5832,-1.5832,-1.5832,-1.5832,-1.5832,-1.5832,-1.5832,-1.5832,-1.5712,-1.5471,-1.503,-1.4843,-1.4589,-1.4148,-1.4088,-1.4088,-1.4088,-1.4088,-1.4088,-1.4088,-1.4088,-1.4088,-1.4088,-1.4088,-1.4088,-1.4088,-1.4088,-1.4088,-1.4088,-1.3935,-1.3641,-1.3213,-1.3046,-1.2739,-1.2305,-1.2305,-1.2305,-1.493,-1.5297,-1.5585,-1.5357,-1.5257,-1.481,-1.3287,-1.2862,0.0,0.0,-1.1109,-1.1463,-1.159,0.0,0.0,0.0,0.0,0.0,0.0,0.0,0.0,0.0,0.0,0.0,0.0,0.0,0.0,0.0,0.0,0.0,-1.7569,-1.7582,-1.7582,-1.7582,-1.7582,-1.7582,-1.7582,-1.7582,-1.7582,-1.7582,-1.7582,-1.7582,-1.7582,-1.7582,-1.7582,-1.7582,-1.7582,0.0,0.0,-1.7341,-1.7235,-1.6767,-1.7355,-1.7582,-1.7582,-1.7582,-1.7582,-1.7582,-1.7582,-1.7582,-1.7582,-1.7582,-1.7582,-1.7569,-1.7508,-1.7288,-1.6994,-1.6693,-1.64,-1.6126,-1.5885,-1.5832,-1.5832,-1.5832,-1.5832,-1.5832,-1.5832,-1.5832,-1.5832,-1.5832,-1.5832,-1.5832,-1.5832,-1.5832,-1.5631,-1.505,-1.4963,-1.475,-1.4162,-1.4088,-1.4088,-1.4088,-1.4088,-1.4088,-1.4088,-1.4088,-1.4088,-1.4088,-1.4088,-1.4088,-1.4088,-1.4088,-1.4088,-1.4088,-1.3794,-1.35,-1.3213,-1.2899,-1.2592,-1.2305,-1.2305,-1.2305,-1.4816,-1.5003,-1.5037,-1.501,-1.4803,-1.4416,-1.3721,0.0,0.0,0.0,-1.139,-1.159,-1.2124,-1.2719,0.0,0.0,0.0,0.0,0.0,0.0,0.0,0.0,0.0,0.0,0.0,0.0,0.0,0.0,0.0,0.0,-1.7582,-1.7582,-1.7582,-1.7582,-1.7582,-1.7582,-1.7582,-1.7582,-1.7582,-1.7582,-1.7582,-1.7582,-1.7582,-1.7582,-1.7582,-1.7582,-1.7582,0.0,0.0,-1.7341,-1.7235,-1.6767,-1.7355,-1.7582,-1.7582,-1.7582,-1.7582,-1.7582,-1.7582,-1.7582,-1.7582,-1.7582,-1.7582,-1.7528,-1.7268,-1.6981,-1.6687,-1.6393,-1.6099,-1.5865,-1.5838,-1.5832,-1.5832,-1.5832,-1.5832,-1.5832,-1.5832,-1.5832,-1.5832,-1.5832,-1.5832,-1.5832,-1.5832,-1.5832,-1.5631,-1.505,-1.4963,-1.475,-1.4162,-1.4088,-1.4088,-1.4088,-1.4088,-1.4088,-1.4088,-1.4088,-1.4088,-1.4088,-1.4088,-1.4088,-1.4088,-1.4088,-1.4088,-1.4088,-1.3794,-1.35,-1.3213,-1.2899,-1.2592,-1.2305,-1.2305,-1.2305,-1.4108,-1.4556,-1.4917,-1.4743,-1.4609,-1.4222,-1.3093,0.0,0.0,-1.1096,-1.1182,-1.1496,-1.173,-1.2258,-1.2859,0.0,0.0,0.0,0.0,0.0,0.0,0.0,0.0,0.0,0.0,0.0,0.0,0.0,0.0,0.0,-1.7562,-1.7582,-1.7582,-1.7582,-1.7582,-1.7582,-1.7582,-1.7582,-1.7582,-1.7582,-1.7582,-1.7582,-1.7582,-1.7582,-1.7582,-1.7582,-1.7582,0.0,0.0,-1.7194,-1.7027,-1.6273,-1.7215,-1.7582,-1.7582,-1.7582,-1.7582,-1.7582,-1.7582,-1.7468,-1.7321,-1.7321,-1.7201,-1.7068,-1.7128,-1.682,-1.642,-1.6306,-1.6059,-1.5832,-1.5832,-1.5832,-1.5832,-1.5832,-1.5832,-1.5832,-1.5832,-1.5832,-1.5832,-1.5832,-1.5832,-1.5832,-1.5832,-1.5832,-1.5631,-1.505,-1.4963,-1.475,-1.4162,-1.4088,-1.4088,-1.4088,-1.4088,-1.4088,-1.4088,-1.4088,-1.4088,-1.4088,-1.4088,-1.4088,-1.4088,-1.4088,-1.4001,-1.3821,-1.3534,-1.3233,-1.2933,-1.2625,-1.2418,-1.2305,-1.2305,-1.2305,-1.3492,-1.4162,-1.4656,-1.4442,-1.4329,-1.3915,0.0,0.0,0.0,-1.0846,-1.0955,-1.1323,-1.141,-1.1837,-1.2405,0.0,0.0,0.0,0.0,0.0,0.0,0.0,0.0,0.0,0.0,0.0,0.0,0.0,0.0,0.0,0.0,-1.7582,-1.7582,-1.7582,-1.7582,-1.7582,-1.7582,-1.7582,-1.7582,-1.7582,-1.7582,-1.7488,-1.7328,-1.7502,-1.7488,-1.7335,-1.7508,0.0,0.0,-1.7168,-1.6987,-1.6186,-1.7194,-1.7582,-1.7582,-1.7582,-1.7528,-1.7455,-1.7455,-1.7261,-1.7116,-1.7516,-1.741,-1.7196,-1.7803,-1.7471,-1.6822,-1.6739,-1.6273,-1.5832,-1.5832,-1.5832,-1.5832,-1.5832,-1.5832,-1.592,-1.6292,-1.6386,-1.6386,-1.6386,-1.6386,-1.6197,-1.5825,-1.5758,-1.5531,-1.5037,-1.489,-1.4649,-1.4155,-1.4088,-1.4088,-1.4088,-1.4088,-1.4088,-1.4088,-1.4088,-1.4088,-1.4088,-1.4088,-1.4088,-1.4088,-1.4088,-1.3948,-1.3654,-1.336,-1.306,-1.2822,-1.2445,-1.2305,-1.2305,-1.2305,-1.2305,-1.34,-1.3868,-1.4095,-1.4095,-1.3868,-1.3414,0.0,0.0,0.0,-1.0806,-1.0795,-1.1089,-1.1369,-1.167,-1.2164,-1.3066,-1.3206,0.0,0.0,0.0,0.0,0.0,0.0,0.0,0.0,0.0,0.0,0.0,0.0,0.0,0.0,-1.7582,-1.7582,-1.7582,-1.7582,-1.7582,-1.7582,-1.7582,-1.7582,-1.7582,-1.7582,-1.7281,-1.6734,-1.7315,-1.7261,0.0,0.0,0.0,0.0,-1.7335,-1.7235,-1.6754,-1.7355,-1.7582,-1.7582,-1.7582,-1.7402,-1.7154,-1.7154,-1.6961,-1.69,-1.8072,-1.8342,-1.8266,-1.9477,-1.9012,-1.8007,-1.7781,-1.6763,-1.5832,-1.5832,-1.5832,-1.5832,-1.5832,-1.5832,-1.6109,-1.7412,-1.7692,-1.7692,-1.7692,-1.7692,-1.7318,-1.6015,-1.5591,-1.5304,-1.501,-1.471,-1.4422,-1.4122,-1.4088,-1.4088,-1.4088,-1.4088,-1.4088,-1.4088,-1.4088,-1.4088,-1.4088,-1.4088,-1.4088,-1.4088,-1.4088,-1.3948,-1.3654,-1.336,-1.306,-1.2822,-1.2445,-1.2305,-1.2305,-1.2305,-1.2305,-1.2245,-1.2645,-1.2866,-1.2866,-1.2799,-1.2545,-1.1857,0.0,0.0,-1.0759,-1.0788,-1.1022,-1.1109,-1.1536,-1.2098,-1.2786,-1.2893,0.0,0.0,0.0,0.0,0.0,0.0,0.0,0.0,0.0,0.0,0.0,0.0,0.0,0.0,-1.7582,-1.7582,-1.7582,-1.7582,-1.7582,-1.7582,-1.7582,-1.7582,-1.7582,-1.7582,-1.7275,-1.6727,-1.7315,-1.7261,0.0,0.0,0.0,0.0,-1.7341,-1.7235,-1.6767,-1.7355,-1.7582,-1.7555,-1.7361,-1.7228,-1.7121,-1.6914,-1.6653,-1.6505,-1.689,-1.6773,-1.6714,-1.8014,-1.8115,-1.7631,-1.6697,-1.6109,-1.5832,-1.5832,-1.5832,-1.5832,-1.5832,-1.648,-1.7225,-1.7598,-1.8326,-1.8688,-1.787,-1.7692,-1.7318,-1.6015,-1.5585,-1.5297,-1.501,-1.471,-1.4416,-1.4122,-1.4088,-1.4088,-1.4088,-1.4088,-1.4088,-1.4088,-1.4088,-1.4088,-1.4088,-1.4088,-1.4088,-1.4088,-1.4088,-1.3854,-1.336,-1.326,-1.2959,-1.2445,-1.2345,-1.2305,-1.2305,-1.2305,-1.2305,0.0,-1.2084,-1.2305,-1.2305,-1.2218,0.0,0.0,0.0,0.0,0.0,-1.0875,-1.1122,-1.1015,-1.1476,-1.1991,-1.2432,-1.2792,0.0,0.0,0.0,0.0,0.0,0.0,0.0,0.0,0.0,0.0,0.0,0.0,0.0,0.0,-1.7582,-1.7582,-1.7582,-1.7582,-1.7582,-1.7582,-1.7582,-1.7582,-1.7582,-1.7582,-1.7275,-1.6727,-1.7315,-1.7261,0.0,0.0,0.0,0.0,-1.7435,-1.7368,-1.7061,-1.7315,-1.7422,-1.7382,-1.7088,-1.6914,-1.6794,-1.6607,-1.6353,-1.6202,-1.6677,-1.7006,-1.7304,-1.7591,-1.7692,-1.7591,-1.7304,-1.6567,-1.5832,-1.5832,-1.5832,-1.592,-1.6386,-1.7131,-1.7963,-1.8864,-1.9314,-1.9314,-1.8503,-1.8048,-1.7318,-1.6015,-1.5498,-1.517,-1.499,-1.4616,-1.4295,-1.4108,-1.4088,-1.4088,-1.4088,-1.4088,-1.4088,-1.4088,-1.4088,-1.4088,-1.4088,-1.4088,-1.4088,-1.4088,-1.3981,-1.3694,-1.322,-1.3093,-1.2792,-1.2305,-1.2305,-1.2305,-1.2305,-1.2305,-1.2305,0.0,0.0,0.0,0.0,0.0,0.0,0.0,0.0,0.0,0.0,0.0,0.0,0.0,-1.1523,-1.1917,-1.1877,-1.2866,0.0,0.0,0.0,0.0,0.0,0.0,0.0,0.0,0.0,0.0,0.0,0.0,0.0,-1.7582,-1.7582,-1.7582,-1.7582,-1.7582,-1.7582,-1.7582,-1.7582,-1.7562,-1.7522,-1.7562,-1.7255,-1.6667,-1.7295,-1.7261,0.0,0.0,0.0,0.0,-1.7562,-1.7549,-1.7522,-1.7235,-1.7114,-1.7081,-1.678,-1.6506,-1.6273,-1.6246,-1.6059,-1.6015,-1.7225,-1.8319,-1.9039,-1.8141,-1.7785,-1.7956,-1.9039,-1.7669,-1.592,-1.6015,-1.6103,-1.6386,-1.7591,-1.787,-1.8588,-2.0845,-2.0395,-1.9579,-1.9497,-1.8503,-1.7311,-1.5988,-1.5423,-1.5046,-1.4937,-1.4536,-1.4173,-1.4088,-1.4088,-1.4088,-1.4088,-1.4088,-1.4088,-1.4088,-1.4088,-1.4088,-1.4088,-1.4088,-1.4088,-1.4088,-1.3801,-1.3507,-1.322,-1.2886,-1.2579,-1.2305,-1.2305,-1.2305,-1.2305,-1.2305,-1.2305,-1.0712,0.0,-1.0969,-1.0969,0.0,0.0,0.0,0.0,0.0,0.0,0.0,0.0,0.0,0.0,0.0,0.0,0.0,0.0,0.0,0.0,0.0,0.0,0.0,0.0,0.0,0.0,0.0,0.0,0.0,-1.7582,-1.7582,-1.7582,-1.7582,-1.7582,-1.7582,-1.7582,-1.7582,-1.7582,-1.7355,-1.6921,-1.7368,-1.7041,-1.6072,-1.7108,-1.7261,0.0,0.0,0.0,-1.7562,-1.7341,-1.7248,-1.7221,-1.6927,-1.6807,-1.6774,-1.648,-1.6333,-1.6239,-1.6012,-1.5885,-1.5825,-1.6109,-1.648,-1.6929,-1.858,-1.8411,-1.7777,-1.8048,-1.7684,-1.7498,-1.8403,-1.8672,-1.8672,-1.9039,-1.9761,-2.0576,-2.1203,-2.1114,-2.0576,-1.967,-1.8503,-1.7238,-1.5717,-1.5903,-1.5825,-1.4737,-1.5057,-1.5061,-1.4166,-1.4088,-1.4088,-1.4088,-1.4088,-1.4088,-1.4088,-1.4088,-1.4088,-1.4088,-1.4088,-1.4088,-1.4088,-1.3801,-1.3507,-1.322,-1.2679,-1.2371,-1.2305,-1.2305,-1.2305,-1.2305,-1.2305,-1.2305,-1.0463,-1.0624,-1.0692,-1.0895,-1.0755,-1.0628,0.0,0.0,0.0,0.0,0.0,0.0,0.0,0.0,0.0,0.0,0.0,0.0,0.0,0.0,0.0,0.0,0.0,0.0,0.0,0.0,0.0,0.0,0.0,-1.7582,-1.7582,-1.7582,-1.7582,-1.7582,-1.7582,-1.7582,-1.7582,-1.7582,-1.7288,-1.6714,-1.7301,-1.7108,-1.6266,-1.7168,-1.7335,0.0,0.0,0.0,-1.7148,-1.672,-1.67,-1.6914,-1.662,-1.6506,-1.6473,-1.6179,-1.6072,-1.6046,-1.5885,-1.5832,-1.592,-1.648,-1.6662,-1.7037,-1.8948,-1.9039,-1.868,-1.9222,-1.8948,-1.8596,-1.8688,-1.868,-1.868,-1.868,-1.9131,-1.9761,-2.0395,-2.0034,-1.9497,-1.8772,-1.8003,-1.7117,-1.631,-1.6248,-1.6139,-1.5375,-1.5092,-1.4734,-1.4166,-1.4088,-1.4088,-1.4088,-1.4088,-1.4088,-1.4088,-1.4088,-1.4088,-1.4088,-1.4088,-1.4021,-1.3888,-1.3601,-1.324,-1.2806,-1.2472,-1.2305,-1.2305,-1.2305,-1.2305,-1.2305,-1.2305,-1.2305,-1.0341,-1.0561,-1.0755,-1.1289,-1.0989,-1.0715,0.0,0.0,0.0,0.0,0.0,0.0,0.0,0.0,0.0,0.0,0.0,0.0,0.0,0.0,0.0,0.0,0.0,0.0,0.0,0.0,0.0,0.0,0.0,-1.7448,-1.7448,-1.7448,-1.7448,-1.7448,-1.7448,-1.7448,-1.7448,-1.7535,-1.7268,-1.6647,-1.7235,-1.7188,-1.6593,-1.7181,-1.7315,-1.7054,0.0,0.0,-1.666,-1.6119,-1.6192,-1.6613,-1.6319,-1.6303,-1.6463,-1.6014,-1.592,-1.6109,-1.6109,-1.6109,-1.6292,-1.7591,-1.7956,-1.8234,-1.9405,-1.9761,-2.0034,-2.1203,-2.0666,-1.9579,-1.878,-1.8411,-1.8234,-1.8234,-1.8141,-1.8226,-1.9314,-1.864,-1.788,-1.788,-1.7325,-1.6981,-1.7109,-1.6548,-1.6082,-1.603,-1.5057,-1.425,-1.4088,-1.4088,-1.4166,-1.4334,-1.4166,-1.4173,-1.4328,-1.4166,-1.4088,-1.4088,-1.4041,-1.3868,-1.352,-1.3267,-1.2879,-1.2311,-1.2305,-1.2305,-1.2305,-1.2305,-1.2305,-1.2305,-1.2305,-1.2305,-1.0094,-1.0548,-1.1009,-1.1343,-1.0989,-1.0715,0.0,0.0,0.0,0.0,0.0,0.0,0.0,0.0,0.0,0.0,0.0,0.0,0.0,0.0,0.0,0.0,0.0,0.0,0.0,0.0,0.0,0.0,0.0,0.0,-1.684,-1.684,-1.684,-1.684,-1.684,-1.684,-1.684,-1.7335,-1.7161,-1.6346,-1.6934,-1.6774,-1.5985,-1.6573,-1.6814,-1.6767,0.0,-1.6667,-1.668,-1.6346,-1.6259,-1.6306,-1.6012,-1.655,-1.7384,-1.6218,-1.648,-1.7412,-1.7412,-1.7412,-1.7591,-1.8864,-1.9222,-1.9405,-2.0666,-2.1025,-2.1293,-2.2492,-2.1943,-2.1203,-2.2041,-2.1489,-2.0755,-2.0755,-1.9943,-1.9314,-1.9497,-1.9069,-1.8588,-1.8588,-1.759,-1.6835,-1.7592,-1.6761,-1.6007,-1.5816,-1.5567,-1.5137,-1.425,-1.4088,-1.4412,-1.5379,-1.4657,-1.4496,-1.5379,-1.4657,-1.4088,-1.4088,-1.3848,-1.346,-1.2906,-1.2839,-1.2652,-1.2311,-1.2305,-1.2305,-1.2305,-1.2305,-1.2305,-1.2305,-1.2305,-1.2305,-1.004,-1.0434,-1.0942,-1.171,-1.1463,-1.1269,0.0,0.0,0.0,0.0,0.0,0.0,0.0,0.0,0.0,0.0,0.0,0.0,0.0,0.0,0.0,0.0,0.0,0.0,0.0,0.0,0.0,0.0,0.0,0.0,-1.6707,-1.6707,-1.6707,-1.6707,-1.6707,-1.6707,-1.6707,-1.6974,-1.6747,-1.6039,-1.6627,-1.6533,-1.5845,-1.644,-1.662,-1.6453,0.0,-1.6086,-1.6199,-1.5752,-1.5752,-1.6019,-1.5879,-1.6204,-1.6669,-1.6756,-1.7225,-1.7777,-1.8411,-1.868,-1.8864,-2.0124,-2.0486,-2.0666,-2.1943,-2.2306,-2.2403,-2.295,-2.2677,-2.212,-2.1311,-2.0764,-1.9974,-1.8427,-1.8115,-1.8151,-1.7971,-1.825,-1.8488,-1.8488,-1.777,-1.7397,-1.7744,-1.6713,-1.5868,-1.5726,-1.522,-1.4901,-1.4977,-1.4977,-1.5137,-1.5621,-1.5296,-1.4894,-1.481,-1.4412,-1.4015,-1.3854,-1.3574,-1.3206,-1.2842,-1.2667,-1.2445,-1.2305,-1.2305,-1.2305,-1.2305,-1.2305,-1.2305,-1.2305,-1.2305,-1.2305,-0.9953,-1.0327,-1.0895,-1.1857,0.0,0.0,0.0,0.0,0.0,0.0,0.0,0.0,0.0,0.0,0.0,0.0,0.0,0.0,0.0,0.0,0.0,0.0,0.0,0.0,0.0,0.0,0.0,0.0,0.0,0.0,-1.65,-1.65,-1.65,-1.65,-1.65,-1.65,-1.65,-1.65,-1.6306,-1.5939,-1.6393,-1.6333,-1.5845,-1.6299,-1.638,-1.6146,-1.5691,-1.5625,-1.5792,-1.5351,-1.5431,-1.5832,-1.5832,-1.6015,-1.6386,-1.7948,-1.8319,-1.8319,-1.9497,-1.9943,-2.0124,-2.1302,-2.1747,-2.1845,-2.2862,-2.3066,-2.2988,-2.2988,-2.292,-2.2418,-2.0704,-1.9937,-1.9077,-1.6943,-1.6876,-1.7249,-1.6991,-1.7746,-1.8462,-1.8462,-1.8087,-1.7763,-1.8004,-1.6534,-1.5372,-1.5703,-1.4977,-1.4734,-1.5621,-1.5696,-1.5779,-1.6026,-1.5621,-1.4949,-1.4072,-1.3981,-1.3904,-1.3769,-1.3378,-1.2966,-1.2652,-1.2425,-1.2305,-1.2305,-1.2305,-1.2305,-1.2305,-1.2305,-1.2305,-1.2305,-1.2305,-1.2305,-0.9706,-1.0327,-1.1049,-1.1403,0.0,0.0,0.0,0.0,0.0,0.0,0.0,0.0,0.0,0.0,0.0,0.0,0.0,0.0,0.0,0.0,0.0,0.0,0.0,0.0,0.0,0.0,0.0,0.0,0.0,0.0,-1.5892,-1.5892,-1.5892,-1.5892,-1.5892,-1.5892,-1.5892,-1.5892,-1.6012,-1.6246,-1.6286,-1.6132,-1.5832,-1.5872,-1.5879,-1.5858,-1.5812,-1.5812,-1.5825,-1.5785,-1.5792,-1.5832,-1.5832,-1.648,-1.787,-2.0215,-2.0305,-1.9588,-2.0747,-2.1203,-2.1391,-2.2589,-2.296,-2.296,-2.3047,-2.2861,-2.2559,-2.2559,-2.2275,-2.206,-2.2186,-2.1107,-1.9938,-1.9733,-1.8879,-1.8102,-1.8078,-1.8743,-1.9333,-1.9333,-1.828,-1.77,-1.8754,-1.6296,-1.4573,-1.5538,-1.5613,-1.5621,-1.5696,-1.5696,-1.6108,-1.709,-1.5394,-1.4058,-1.3701,-1.3674,-1.3742,-1.4131,-1.3321,-1.2645,-1.2345,-1.2311,-1.2305,-1.2305,-1.2305,-1.2305,-1.2305,-1.2305,-1.2305,-1.2305,-1.2305,-1.2305,-0.9686,-1.0194,-1.0929,-1.1764,0.0,0.0,0.0,0.0,0.0,0.0,0.0,0.0,0.0,0.0,0.0,0.0,0.0,0.0,0.0,0.0,0.0,0.0,0.0,0.0,0.0,0.0,0.0,0.0,0.0,0.0,-1.5832,-1.5832,-1.5832,-1.5832,-1.5832,-1.5832,-1.5832,-1.5832,-1.5885,-1.5999,-1.5999,-1.5939,-1.5832,-1.5832,-1.5832,-1.5832,-1.5832,-1.5832,-1.5825,-1.6669,-1.6943,-1.7037,-1.7855,-1.8403,-1.9039,-2.0666,-2.1025,-2.0755,-2.2031,-2.2403,-2.2444,-2.265,-2.2754,-2.2705,-2.2441,-2.2246,-2.2129,-2.2129,-2.1816,-2.1399,-2.1034,-2.0501,-1.9805,-1.8895,-1.8751,-1.8941,-1.8707,-1.8958,-1.9173,-1.9173,-1.7588,-1.6683,-1.7738,-1.6355,-1.5462,-1.6519,-1.6683,-1.6683,-1.6683,-1.6683,-1.6601,-1.6355,-1.4977,-1.4212,-1.4536,-1.433,-1.4491,-1.4993,-1.3636,-1.2907,-1.3178,-1.2592,-1.2305,-1.2305,-1.2305,-1.2305,-1.2305,-1.2305,-1.2305,-1.2305,-1.2305,-1.2305,-0.9686,-1.0114,-1.086,0.0,0.0,0.0,0.0,0.0,0.0,0.0,0.0,0.0,0.0,0.0,0.0,0.0,0.0,0.0,0.0,0.0,0.0,0.0,0.0,0.0,0.0,0.0,0.0,0.0,0.0,0.0,0.0,-1.5832,-1.5832,-1.5832,-1.5832,-1.6015,-1.6386,-1.6386,-1.6567,-1.6929,-1.6929,-1.656,-1.5832,-1.5832,-1.6015,-1.6386,-1.6386,-1.6662,-1.7023,-1.7956,-1.8234,-1.8411,-1.9579,-2.0034,-2.0215,-2.1391,-2.1845,-2.2013,-2.2708,-2.2939,-2.2871,-2.2451,-2.2314,-2.2266,-2.1973,-2.1787,-2.168,-2.168,-2.1367,-2.0915,-2.0354,-2.0172,-1.9935,-1.8927,-1.9273,-1.9694,-1.9576,-1.9283,-1.9116,-1.9441,-1.7738,-1.6519,-1.7658,-1.6927,-1.6437,-1.7172,-1.7585,-1.7747,-1.7342,-1.7342,-1.6927,-1.5779,-1.4968,-1.4707,-1.54,-1.5134,-1.5166,-1.5833,-1.4141,-1.3252,-1.368,-1.2806,-1.2305,-1.2305,-1.2305,-1.2305,-1.2305,-1.2305,-1.2305,-1.2305,-1.2305,-1.2445,-0.9693,-1.012,0.0,0.0,0.0,0.0,0.0,0.0,0.0,0.0,0.0,0.0,0.0,0.0,0.0,0.0,0.0,0.0,0.0,0.0,0.0,0.0,0.0,0.0,0.0,0.0,0.0,0.0,0.0,0.0,0.0,-1.5832,-1.5832,-1.5832,-1.5832,-1.6386,-1.7692,-1.7684,-1.8319,-1.9497,-1.9497,-1.8211,-1.5825,-1.5825,-1.648,-1.7692,-1.7692,-1.8411,-1.9497,-1.9488,-1.9497,-1.967,-2.0845,-2.1293,-2.148,-2.2668,-2.3135,-2.3076,-2.2656,-2.251,-2.2441,-2.2012,-2.1875,-2.1875,-2.1875,-2.1572,-2.123,-2.123,-2.0908,-2.0566,-2.0566,-2.0566,-2.0566,-2.0566,-2.0566,-2.0566,-2.0566,-1.9766,-1.9274,-2.0401,-1.8789,-1.7666,-1.8798,-1.8069,-1.7334,-1.7342,-1.831,-1.8638,-1.7496,-1.7342,-1.6846,-1.5861,-1.5331,-1.5393,-1.6177,-1.5823,-1.5897,-1.6585,-1.4799,-1.3745,-1.3745,-1.2806,-1.2305,-1.2305,-1.2305,-1.2305,-1.2305,-1.2305,-1.2305,-1.2305,-1.2305,-1.2806,-1.0248,0.0,0.0,0.0,0.0,0.0,0.0,0.0,0.0,0.0,0.0,0.0,0.0,0.0,0.0,0.0,0.0,0.0,0.0,0.0,0.0,0.0,0.0,0.0,0.0,0.0,0.0,0.0,0.0,0.0,0.0,-1.5832,-1.5832,-1.5832,-1.6662,-1.7318,-1.7692,-1.8503,-1.9131,-1.9497,-1.9497,-1.9131,-1.8395,-1.8395,-1.858,-1.8956,-1.8956,-1.9131,-1.9588,-2.0395,-2.1302,-2.205,-2.2403,-2.2589,-2.2551,-2.263,-2.2705,-2.2637,-2.2217,-2.207,-2.2002,-2.1572,-2.1426,-2.1367,-2.1055,-2.0869,-2.0762,-2.0762,-2.0664,-2.0566,-2.0566,-2.0566,-2.0566,-2.0566,-2.0566,-2.0566,-2.0566,-1.9766,-1.9116,-1.9441,-1.831,-1.7666,-1.8798,-1.8718,-1.8709,-1.9511,-1.9923,-1.9756,-1.8638,-1.7163,-1.6355,-1.6764,-1.6445,-1.6477,-1.7194,-1.6811,-1.6857,-1.7529,-1.5799,-1.4736,-1.4736,-1.3164,-1.2305,-1.2305,-1.2305,-1.2305,-1.2305,-1.2952,-1.2952,-1.2298,-1.2952,-1.3098,-1.0497,0.0,0.0,0.0,0.0,0.0,0.0,0.0,0.0,0.0,0.0,0.0,0.0,0.0,0.0,0.0,0.0,0.0,0.0,0.0,0.0,0.0,0.0,0.0,0.0,0.0,0.0,0.0,0.0,0.0,0.0,-1.5591,-1.5658,-1.5658,-1.6973,-1.7956,-1.8411,-1.9579,-2.0494,-2.0944,-2.0944,-2.0944,-2.0863,-1.9943,-1.9761,-2.0215,-2.0674,-2.0944,-2.0953,-2.1756,-2.2309,-2.2891,-2.2891,-2.2783,-2.2607,-2.2353,-2.2266,-2.2207,-2.1777,-2.1621,-2.1553,-2.1113,-2.0967,-2.0918,-2.0644,-2.0566,-2.0566,-2.0566,-2.0566,-2.0566,-2.0566,-2.0566,-2.0566,-2.0566,-2.0566,-2.0566,-2.0566,-1.9766,-1.9125,-1.952,-1.8718,-1.831,-1.9432,-1.9599,-1.9844,-2.0489,-2.0245,-1.9756,-1.9116,-1.7415,-1.6708,-1.7615,-1.7337,-1.7351,-1.8018,-1.762,-1.7567,-1.7959,-1.6228,-1.5376,-1.572,-1.3513,-1.2305,-1.2305,-1.2659,-1.2879,-1.2879,-1.381,-1.4027,-1.3448,-1.36,-1.36,0.0,0.0,0.0,0.0,0.0,0.0,0.0,0.0,0.0,0.0,0.0,0.0,0.0,0.0,0.0,0.0,0.0,0.0,0.0,0.0,0.0,0.0,0.0,0.0,0.0,0.0,0.0,0.0,0.0,0.0,0.0,-1.5211,-1.5357,-1.5357,-1.68,-1.8226,-1.9397,-2.0561,-2.1822,-2.3027,-2.3027,-2.3027,-2.294,-2.0828,-2.0378,-2.1425,-2.2494,-2.3027,-2.3027,-2.3027,-2.2803,-2.2461,-2.2461,-2.2217,-2.1875,-2.1836,-2.1826,-2.1768,-2.1328,-2.1172,-2.1103,-2.0703,-2.0566,-2.0566,-2.0566,-2.0566,-2.0566,-2.0566,-2.0566,-2.0566,-2.0566,-2.0566,-2.0566,-2.0566,-2.0566,-2.0566,-2.0566,-1.9835,-1.9441,-2.0401,-1.9835,-1.9441,-2.0401,-2.0566,-2.0566,-2.0566,-1.9687,-1.9036,-1.9116,-1.8149,-1.7683,-1.8398,-1.8094,-1.8064,-1.8531,-1.8252,-1.8008,-1.8008,-1.6298,-1.572,-1.6567,-1.3939,-1.2445,-1.2586,-1.3382,-1.3818,-1.3818,-1.4807,-1.5305,-1.5163,-1.4243,-1.4314,0.0,0.0,0.0,0.0,0.0,0.0,0.0,0.0,0.0,0.0,0.0,0.0,0.0,0.0,0.0,0.0,0.0,0.0,0.0,0.0,0.0,0.0,0.0,0.0,0.0,0.0,0.0,0.0,0.0,0.0,-1.5053,-1.5023,-1.5057,-1.5057,-1.6335,-1.7505,-1.8646,-1.985,-2.0996,0.0,-2.2158,-2.2158,-2.2178,-2.2293,-2.232,-2.2265,-2.2201,-2.2158,-2.2158,-2.2158,-2.21,-2.2021,-2.2021,-2.1963,-2.1846,-2.1504,-2.1377,-2.1309,-2.0859,-2.0713,-2.0693,-2.0596,-2.0566,-2.0566,-2.0566,-2.0566,-2.0566,-2.0566,-2.0566,-2.0566,-2.0566,-2.0566,-2.0566,-2.0566,-2.0566,-2.0566,-2.0566,-2.0401,-2.0323,-2.0566,-2.0401,-2.0323,-2.0566,-2.0566,-2.0566,-2.0566,-1.9687,-1.9283,-2.0167,-1.9274,-1.8882,-1.9497,-1.9235,-1.8885,-1.8601,-1.8252,-1.8008,-1.8008,-1.6932,-1.6358,-1.6558,-1.4514,-1.3738,-1.4593,-1.4807,-1.4879,-1.4879,-1.586,-1.593,-1.5163,-1.495,-1.4593,0.0,0.0,0.0,0.0,0.0,0.0,0.0,0.0,0.0,0.0,0.0,0.0,0.0,0.0,0.0,0.0,0.0,0.0,0.0,0.0,0.0,0.0,0.0,0.0,0.0,0.0,0.0,0.0,0.0,-1.6723,-1.6141,-1.6211,-1.6379,-1.6379,-1.7636,-1.8571,-1.9178,-2.0391,-2.1349,-2.1885,-2.1885,-2.1885,-2.1904,-2.2344,-2.2422,-2.2197,-2.1982,-2.1885,-2.1885,-2.1885,-2.1768,-2.1572,-2.1572,-2.1445,-2.123,-2.0996,-2.0918,-2.0879,-2.0644,-2.0566,-2.0566,-2.0566,-2.0566,-2.0566,-2.0566,-2.0566,-2.0566,-2.0566,-2.0566,-2.0566,-2.0566,-2.0566,-2.0566,-2.0566,-2.0566,-2.0566,-2.0566,-2.0566,-2.0566,-2.0566,-2.0566,-2.0566,-2.0566,-2.0566,-2.0566,-2.0566,-2.0079,-2.0001,-2.0566,-1.9907,-1.9459,-1.9584,-1.9228,-1.8799,-1.8379,-1.8135,-1.8008,-1.8008,-1.7139,-1.6775,-1.7285,-1.5869,-1.5084,-1.5234,-1.5658,-1.5658,-1.5234,-1.614,-1.614,-1.5163,-1.4736,-1.4171,0.0,0.0,0.0,0.0,0.0,0.0,0.0,0.0,0.0,0.0,0.0,0.0,0.0,0.0,0.0,0.0,0.0,0.0,0.0,0.0,0.0,0.0,0.0,0.0,0.0,0.0,0.0,0.0,0.0,-1.7496,-1.7342,-1.754,-1.7705,-1.7705,-1.891,-1.9662,-1.9829,-2.0872,-2.1487,-2.166,-2.166,-2.166,-2.166,-2.166,-2.1699,-2.1768,-2.1689,-2.166,-2.166,-2.166,-2.1445,-2.1123,-2.1123,-2.0889,-2.0566,-2.0566,-2.0566,-2.0566,-2.0566,-2.0566,-2.0566,-2.0566,-2.0566,-2.0566,-2.0566,-2.0566,-2.0566,-2.0566,-2.0566,-2.0566,-2.0566,-2.0566,-2.0566,-2.0566,-2.0566,-2.0566,-2.0566,-2.0566,-2.0566,-2.0566,-2.0566,-2.0566,-2.0566,-2.0566,-2.0566,-2.0566,-2.0566,-2.0566,-2.0566,-2.0185,-1.9756,-1.9336,-1.8896,-1.8467,-1.8047,-1.8008,-1.8008,-1.8008,-1.7285,-1.7217,-1.794,-1.7285,-1.6498,-1.5728,-1.6289,-1.621,-1.5446,-1.607,-1.593,-1.5163,-1.4171,-1.3673,0.0,0.0,0.0,0.0,0.0,0.0,0.0,0.0,0.0,0.0,0.0,0.0,0.0,0.0,0.0,0.0,0.0,0.0,0.0,0.0,0.0,0.0,0.0,0.0,0.0,0.0,0.0,0.0,-1.8798,-1.831,-1.7342,-1.7302,-1.7327,-1.7327,-1.7539,-1.8134,-1.911,-1.9279,-1.9846,-2.0742,-2.0742,-2.0742,-2.0742,-2.0742,-2.0957,-2.1299,-2.0908,-2.0742,-2.0742,-2.0742,-2.0713,-2.0654,-2.0654,-2.0615,-2.0566,-2.0566,-2.0566,-2.0566,-2.0566,-2.0566,-2.0566,-2.0566,-2.0566,-2.0566,-2.0566,-2.0566,-2.0566,-2.0566,-2.0566,-2.0566,-2.0566,-2.0566,-2.0566,-2.0566,-2.0566,-2.0566,-2.0566,-2.0566,-2.0566,-2.0566,-2.0566,-2.0566,-2.0566,-2.0566,-2.0566,-2.0566,-2.0566,-2.0566,-2.0566,-2.0185,-1.9756,-1.9336,-1.8896,-1.8467,-1.8047,-1.8008,-1.8008,-1.8008,-1.7862,-1.7872,-1.8008,-1.7862,-1.7725,-1.7647,-1.6922,-1.6567,-1.6419,-1.572,-1.5305,-1.5163,-1.4171,-1.3673,0.0,0.0,0.0,0.0,0.0,0.0,0.0,0.0,0.0,0.0,0.0,0.0,0.0,0.0,0.0,0.0,0.0,0.0,0.0,0.0,0.0,0.0,0.0,0.0,0.0,0.0,0.0,0.0,-1.9923,-1.9678,-1.9195,-1.9186,-1.9186,-1.9186,-1.9186,-1.9353,-1.9923,-1.9923,-2.0157,-2.0566,-2.0566,-2.0566,-2.0566,-2.0566,-2.0674,-2.085,-2.0654,-2.0566,-2.0566,-2.0566,-2.0566,-2.0566,-2.0566,-2.0566,-2.0566,-2.0566,-2.0566,-2.0566,-2.0566,-2.0566,-2.0566,-2.0566,-2.0566,-2.0566,-2.0566,-2.0566,-2.0566,-2.0566,-2.0566,-2.0566,-2.0566,-2.0566,-2.0566,-2.0566,-2.0566,-2.0566,-2.0566,-2.0566,-2.0566,-2.0566,-2.0566,-2.0566,-2.0566,-2.0566,-2.0566,-2.0566,-2.0566,-2.0478,-2.0234,-1.9824,-1.9394,-1.8965,-1.8535,-1.8213,-1.8027,-1.8008,-1.8008,-1.8008,-1.8008,-1.8008,-1.8008,-1.8008,-1.7725,-1.7217,-1.6784,-1.6349,-1.579,-1.4807,-1.4099,-1.3593,-1.3091,-1.3171,0.0,0.0,0.0,0.0,0.0,0.0,0.0,0.0,0.0,0.0,0.0,0.0,0.0,0.0,0.0,0.0,0.0,0.0,0.0,0.0,0.0,0.0,0.0,0.0,0.0,0.0,0.0,0.0,-2.0566,-2.0566,-2.0566,-2.0566,-2.0566,-2.0566,-2.0566,-2.0566,-2.0566,-2.0566,-2.0566,-2.0566,-2.0566,-2.0566,-2.0566,-2.0566,-2.0566,-2.0566,-2.0566,-2.0566,-2.0566,-2.0566,-2.0566,-2.0566,-2.0566,-2.0566,-2.0566,-2.0566,-2.0566,-2.0566,-2.0566,-2.0566,-2.0566,-2.0566,-2.0566,-2.0566,-2.0566,-2.0566,-2.0566,-2.0566,-2.0566,-2.0566,-2.0566,-2.0566,-2.0566,-2.0566,-2.0566,-2.0566,-2.0566,-2.0566,-2.0566,-2.0566,-2.0566,-2.0566,-2.0566,-2.0469,-2.04,-2.04,-2.0312,-2.0117,-1.9795,-1.9385,-1.8994,-1.8672,-1.8262,-1.8008,-1.8008,-1.8008,-1.8008,-1.8008,-1.8008,-1.8008,-1.8008,-1.8008,-1.7647,-1.6991,-1.6706,-1.6,-1.4807,-1.381,-1.3091,-1.2666,-1.2666,-1.3164,0.0,0.0,0.0,0.0,0.0,0.0,0.0,0.0,0.0,0.0,0.0,0.0,0.0,0.0,0.0,0.0,0.0,0.0,0.0,0.0,0.0,0.0,0.0,0.0,0.0,0.0,0.0,0.0,-2.0566,-2.0566,-2.0566,-2.0566,-2.0566,-2.0566,-2.0566,-2.0566,-2.0566,-2.0566,-2.0566,-2.0566,-2.0566,-2.0566,-2.0566,-2.0566,-2.0566,-2.0566,-2.0566,-2.0566,-2.0566,-2.0566,-2.0566,-2.0566,-2.0566,-2.0566,-2.0566,-2.0566,-2.0566,-2.0566,-2.0566,-2.0566,-2.0566,-2.0566,-2.0566,-2.0566,-2.0566,-2.0566,-2.0566,-2.0566,-2.0566,-2.0566,-2.0566,-2.0566,-2.0566,-2.0566,-2.0566,-2.0566,-2.0566,-2.0566,-2.0566,-2.0566,-2.0566,-2.0566,-2.0566,-2.0225,-1.9951,-1.9951,-1.9609,-1.9346,-1.9316,-1.8936,-1.8662,-1.8562,-1.8262,-1.8008,-1.8008,-1.8008,-1.8008,-1.8008,-1.8008,-1.8008,-1.8008,-1.8008,-1.8008,-1.794,-1.707,-1.5649,-1.3818,-1.2806,-1.2806,-1.36,-1.36,-1.4171,0.0,0.0,0.0,0.0,0.0,0.0,0.0,0.0,0.0,0.0,0.0,0.0,0.0,0.0,0.0,0.0,0.0,0.0,0.0,0.0,0.0,0.0,0.0,0.0,0.0,0.0,0.0,0.0,0.0,-1.9687,-2.0518,-1.9775,-1.9707,-2.0537,-2.0566,-2.0566,-2.0566,-2.0566,-2.0566,-2.0566,-2.0566,-2.0566,-2.0566,-2.0566,-2.0566,-2.0566,-2.0566,-2.0566,-2.0566,-2.0566,-2.0566,-2.0566,-2.0566,-2.0566,-2.0566,-2.0566,-2.0566,-2.0566,-2.0566,-2.0566,-2.0566,-2.0566,-2.0566,-2.0566,-2.0566,-2.0566,-2.0566,-2.0566,-2.0566,-2.0566,-2.0566,-2.0566,-2.0566,-2.0566,-2.0566,-2.0566,-2.0566,-2.0566,-2.0566,-2.0566,-2.0342,-2.0146,-2.0146,-1.9795,-1.9512,-1.9512,-1.9385,-1.9189,-1.8906,-1.873,-1.8535,-1.8262,-1.8105,-1.8008,-1.8008,-1.8008,-1.8008,-1.8008,-1.8008,-1.8008,-1.8008,-1.8008,-1.7716,-1.7139,-1.6784,-1.628,-1.5579,-1.4585,-1.4307,-1.4665,-1.4665,-1.5163,0.0,0.0,0.0,0.0,0.0,0.0,0.0,0.0,0.0,0.0,0.0,0.0,0.0,0.0,0.0,0.0,0.0,0.0,0.0,0.0,0.0,0.0,0.0,0.0,0.0,0.0,0.0,0.0,0.0,0.0,-2.0518,-1.9756,-1.9678,-2.0537,-2.0566,-2.0566,-2.0566,-2.0566,-2.0566,-2.0566,-2.042,-2.0352,-2.0342,-2.0195,-2.0137,-2.0137,-2.0137,-2.0303,-2.0566,-2.0566,-2.0566,-2.0566,-2.0566,-2.0566,-2.0566,-2.0566,-2.0566,-2.0566,-2.0566,-2.0566,-2.0566,-2.0566,-2.0566,-2.0566,-2.0566,-2.0566,-2.0566,-2.0566,-2.0566,-2.0566,-2.0566,-2.0566,-2.0566,-2.0566,-2.0449,-2.0352,-2.0352,-2.0352,-2.0352,-2.0352,-2.0,-1.9707,-1.9707,-1.9355,-1.9072,-1.9072,-1.8945,-1.875,-1.8467,-1.8428,-1.832,-1.8037,-1.8008,-1.8008,-1.8008,-1.8008,-1.8008,-1.8008,-1.8008,-1.8008,-1.8008,-1.8008,-1.7725,-1.707,-1.707,-1.707,-1.707,-1.5799,-1.5376,-1.5658,-1.5658,-1.6,0.0,0.0,0.0,0.0,0.0,0.0,0.0,0.0,0.0,0.0,0.0,0.0,0.0,0.0,0.0,0.0,0.0,0.0,0.0,0.0,0.0,0.0,0.0,0.0,0.0,0.0,0.0,0.0,-2.0527,-2.0527,-2.0566,-2.0566,-2.0566,-2.0566,-2.0557,-2.0547,-2.0547,-2.0537,-2.0527,-2.0527,-2.0098,-1.9893,-1.9883,-1.9473,-1.9287,-1.9287,-1.9287,-1.9756,-2.0527,-2.0527,-2.0527,-2.0527,-2.0527,-2.0527,-2.0527,-2.0527,-2.0527,-2.0527,-2.0527,-2.0527,-2.0527,-2.0527,-2.0537,-2.0547,-2.0547,-2.0557,-2.0566,-2.0566,-2.0566,-2.0566,-2.0566,-2.0557,-2.0547,-2.0547,-2.0215,-1.9893,-1.9893,-1.9883,-1.9883,-1.9893,-1.9561,-1.9268,-1.9268,-1.8906,-1.8553,-1.8553,-1.8271,-1.8008,-1.8008,-1.8008,-1.8008,-1.8008,-1.8008,-1.8008,-1.8008,-1.8008,-1.8008,-1.8008,-1.8008,-1.8008,-1.8008,-1.8008,-1.8008,-1.8008,-1.8008,-1.8008,-1.8008,-1.6158,-1.5728,-1.6636,-1.6627,-1.6636,-1.1912,0.0,0.0,0.0,0.0,0.0,0.0,0.0,0.0,0.0,0.0,0.0,0.0,0.0,0.0,0.0,0.0,0.0,0.0,0.0,0.0,0.0,0.0,0.0,0.0,0.0,0.0,0.0,-1.9697,-1.958,-2.0518,-2.0566,-2.0566,-2.0566,-2.0254,-2.0088,-2.0088,-1.9795,-1.9639,-1.9639,-1.9521,-1.9463,-1.9453,-1.9336,-1.9287,-1.9287,-1.9287,-1.9424,-1.9639,-1.9639,-1.9639,-1.9639,-1.9639,-1.9639,-1.9639,-1.9639,-1.9639,-1.9639,-1.9639,-1.9639,-1.9639,-1.9639,-1.9844,-2.0088,-2.0088,-2.0312,-2.0566,-2.0566,-2.0566,-2.0566,-2.0566,-2.0332,-2.0088,-2.0088,-1.9766,-1.9463,-1.9463,-1.9219,-1.9082,-1.9394,-1.9111,-1.8818,-1.8818,-1.8467,-1.8184,-1.8184,-1.8086,-1.8008,-1.8008,-1.8008,-1.8008,-1.8008,-1.8008,-1.8008,-1.8008,-1.8008,-1.8008,-1.8008,-1.8008,-1.8008,-1.8008,-1.8008,-1.8008,-1.8008,-1.8008,-1.8008,-1.8008,-1.751,-1.7364,-1.7579,-1.6922,-1.6636,0.0,0.0,0.0,0.0,0.0,0.0,-1.2679,-1.4124,0.0,0.0,0.0,0.0,0.0,0.0,0.0,0.0,0.0,0.0,0.0,0.0,0.0,0.0,0.0,0.0,0.0,-2.0566,-2.0566,-2.0566,-1.9873,-1.9697,-2.0264,-2.0127,-2.0029,-2.0029,-1.9785,-1.9648,-1.9648,-1.9404,-1.9287,-1.9287,-1.9102,-1.9014,-1.9014,-1.8828,-1.875,-1.875,-1.875,-1.875,-1.875,-1.875,-1.8965,-1.9287,-1.9287,-1.9287,-1.9287,-1.9287,-1.9287,-1.9287,-1.9287,-1.9287,-1.9287,-1.9287,-1.9453,-1.9648,-1.9648,-1.9834,-2.0029,-2.0029,-2.0029,-2.0029,-2.0029,-1.9844,-1.9648,-1.9648,-1.9326,-1.9014,-1.9014,-1.8682,-1.8506,-1.8936,-1.8672,-1.8379,-1.8379,-1.8174,-1.8008,-1.8008,-1.8008,-1.8008,-1.8008,-1.8008,-1.8008,-1.8008,-1.8008,-1.8008,-1.8008,-1.8008,-1.8008,-1.8008,-1.8008,-1.8008,-1.8008,-1.8008,-1.8008,-1.8008,-1.8008,-1.8008,-1.8008,-1.8008,-1.8008,-1.8008,-1.7432,-1.6991,0.0,0.0,0.0,0.0,0.0,0.0,-1.2881,-1.4658,-1.6348,0.0,0.0,0.0,0.0,0.0,0.0,0.0,0.0,0.0,0.0,0.0,0.0,0.0,0.0,0.0,-2.0498,-2.0449,-2.043,-2.043,-2.043,-2.0254,-1.9863,-1.9492,-1.9287,-1.9287,-1.9238,-1.9219,-1.9219,-1.917,-1.915,-1.9141,-1.875,-1.8494,-1.8484,-1.8184,-1.8008,-1.8008,-1.8008,-1.8008,-1.8008,-1.8008,-1.8457,-1.915,-1.915,-1.915,-1.915,-1.915,-1.915,-1.915,-1.915,-1.915,-1.915,-1.915,-1.918,-1.9219,-1.9219,-1.9248,-1.9287,-1.9287,-1.9287,-1.9287,-1.9287,-1.9248,-1.9219,-1.9219,-1.8877,-1.8494,-1.8494,-1.8271,-1.8115,-1.8496,-1.8262,-1.8008,-1.8008,-1.8008,-1.8008,-1.8008,-1.8008,-1.8008,-1.8008,-1.8008,-1.8008,-1.8008,-1.8008,-1.8008,-1.8008,-1.8008,-1.8008,-1.8008,-1.8008,-1.8008,-1.8008,-1.8008,-1.8008,-1.8008,-1.8008,-1.8008,-1.8008,-1.8008,-1.794,-1.7862,-1.7862,-1.7432,0.0,0.0,0.0,0.0,0.0,0.0,-1.2881,-1.3271,-1.3926,0.0,0.0,0.0,0.0,0.0,0.0,0.0,0.0,0.0,0.0,0.0,0.0,0.0,0.0,0.0,-2.0039,-1.9736,-1.9541,-1.9541,-1.9541,-1.9502,-1.9414,-1.9336,-1.9287,-1.9287,-1.8945,-1.876,-1.876,-1.8428,-1.8262,-1.8262,-1.8174,-1.8135,-1.8125,-1.8047,-1.8008,-1.8008,-1.8008,-1.8008,-1.8008,-1.8008,-1.8105,-1.8262,-1.8262,-1.8262,-1.8262,-1.8262,-1.8262,-1.8262,-1.8262,-1.8262,-1.8262,-1.8262,-1.8486,-1.876,-1.876,-1.9014,-1.9287,-1.9287,-1.9287,-1.9287,-1.9287,-1.9023,-1.876,-1.876,-1.8437,-1.8135,-1.8135,-1.8066,-1.8037,-1.8115,-1.8066,-1.8008,-1.8008,-1.8008,-1.8008,-1.8008,-1.8008,-1.8008,-1.8008,-1.8008,-1.8008,-1.8008,-1.8008,-1.8008,-1.8008,-1.8008,-1.8008,-1.8008,-1.8008,-1.8008,-1.8008,-1.8008,-1.8008,-1.8008,-1.8008,-1.8008,-1.8008,-1.8008,-1.7579,-1.6853,-1.6853,-1.6775,0.0,0.0,0.0,-1.25,0.0,0.0,0.0,-1.3203,-1.3691,0.0,0.0,0.0,0.0,0.0,0.0,0.0,0.0,0.0,0.0,0.0,0.0,0.0,0.0,0.0,-1.96,-1.9414,-1.9287,-1.9287,-1.9082,-1.8965,-1.8965,-1.876,-1.8652,-1.8652,-1.8437,-1.832,-1.832,-1.8115,-1.8008,-1.8008,-1.8008,-1.8008,-1.8008,-1.8008,-1.8008,-1.8008,-1.8008,-1.8008,-1.8008,-1.8008,-1.8008,-1.8008,-1.8008,-1.8008,-1.8008,-1.8008,-1.8008,-1.8008,-1.8008,-1.8008,-1.8008,-1.8008,-1.8154,-1.832,-1.832,-1.8477,-1.8652,-1.8652,-1.8652,-1.8652,-1.8652,-1.8486,-1.832,-1.832,-1.8164,-1.8008,-1.8008,-1.8008,-1.8008,-1.8008,-1.8008,-1.8008,-1.8008,-1.8008,-1.8008,-1.8008,-1.8008,-1.8008,-1.8008,-1.8008,-1.8008,-1.8008,-1.8008,-1.8008,-1.8008,-1.8008,-1.8008,-1.8008,-1.8008,-1.8008,-1.8008,-1.8008,-1.8008,-1.8008,-1.8008,-1.8008,-1.8008,-1.8008,-1.7794,-1.7285,-1.7285,-1.7285,0.0,0.0,0.0,0.0,0.0,-1.2187,0.0,0.0,0.0,0.0,0.0,0.0,0.0,0.0,0.0,0.0,0.0,0.0,0.0,0.0,0.0,0.0,0.0,0.0,0.0,-1.8564,-1.8769,-1.9023,-1.8711,-1.8446,-1.8446,-1.8193,-1.8008,-1.8008,-1.8008,-1.8008,-1.8008,-1.8008,-1.8008,-1.8008,-1.8008,-1.8008,-1.8008,-1.8008,-1.8008,-1.8008,-1.8008,-1.8008,-1.8008,-1.8008,-1.8008,-1.8008,-1.8008,-1.8008,-1.8008,-1.8008,-1.8008,-1.8008,-1.8008,-1.8008,-1.8008,-1.8008,-1.8008,-1.8008,-1.8008,-1.8008,-1.8008,-1.8008,-1.8008,-1.8008,-1.8008,-1.8008,-1.8008,-1.8008,-1.8008,-1.8008,-1.8008,-1.8008,-1.8008,-1.8008,-1.8008,-1.8008,-1.8008,-1.8008,-1.8008,-1.8008,-1.8008,-1.8008,-1.8008,-1.8008,-1.8008,-1.8008,-1.8008,-1.8008,-1.8008,-1.8008,-1.8008,-1.8008,-1.8008,-1.8008,-1.8008,-1.8008,-1.8008,-1.8008,-1.8008,-1.8008,-1.8008,-1.8008,-1.8008,-1.8008,-1.8008,-1.8008,0.0,0.0,0.0,0.0,-1.1685,0.0,0.0,0.0,-1.19,-1.19,0.0,0.0,0.0,0.0,0.0,0.0,0.0,0.0,0.0,0.0,0.0,0.0,0.0,0.0,0.0,-1.5986,-1.6904,-1.8066,-1.8105,-1.8076,-1.8076,-1.8037,-1.8008,-1.8008,-1.8008,-1.8008,-1.8008,-1.8008,-1.8008,-1.8008,-1.8008,-1.8008,-1.8008,-1.8008,-1.8008,-1.8008,-1.8008,-1.8008,-1.8008,-1.8008,-1.8008,-1.8008,-1.8008,-1.8008,-1.8008,-1.8008,-1.8008,-1.8008,-1.8008,-1.8008,-1.8008,-1.8008,-1.8008,-1.8008,-1.8008,-1.8008,-1.8008,-1.8008,-1.8008,-1.8008,-1.8008,-1.8008,-1.8008,-1.8008,-1.8008,-1.8008,-1.8008,-1.8008,-1.8008,-1.8008,-1.8008,-1.8008,-1.8008,-1.8008,-1.8008,-1.8008,-1.8008,-1.8008,-1.8008,-1.8008,-1.8008,-1.8008,-1.8008,-1.8008,-1.8008,-1.8008,-1.8008,-1.8008,-1.8008,-1.8008,-1.8008,-1.8008,-1.8008,-1.8008,-1.8008,-1.8008,-1.8008,-1.8008,-1.8008,-1.8008,-1.8008,-1.8008,0.0,0.0,0.0,0.0,0.0,0.0,-1.2637,0.0,-1.1182,0.0,0.0,0.0,0.0,0.0,0.0,0.0,-1.0547,0.0,0.0,0.0,0.0,0.0,0.0,0.0,0.0,0.0,0.0,0.0,-1.6885,-1.6885,-1.6885,-1.7598,-1.8008,-1.8008,-1.8008,-1.8008,-1.8008,-1.8008,-1.8008,-1.8008,-1.8008,-1.8008,-1.8008,-1.8008,-1.8008,-1.8008,-1.8008,-1.8008,-1.8008,-1.8008,-1.8008,-1.8008,-1.8008,-1.8008,-1.8008,-1.8008,-1.8008,-1.8008,-1.8008,-1.8008,-1.8008,-1.8008,-1.8008,-1.8008,-1.8008,-1.8008,-1.8008,-1.8008,-1.8008,-1.8008,-1.8008,-1.8008,-1.8008,-1.8008,-1.8008,-1.8008,-1.8008,-1.8008,-1.8008,-1.8008,-1.8008,-1.8008,-1.8008,-1.8008,-1.8008,-1.8008,-1.8008,-1.8008,-1.8008,-1.8008,-1.8008,-1.8008,-1.8008,-1.8008,-1.8008,-1.8008,-1.8008,-1.8008,-1.8008,-1.8008,-1.8008,-1.8008,-1.8008,-1.8008,-1.8008,-1.8008,-1.8008,-1.8008,-1.8008,-1.8008,-1.8008,-1.8008,-1.2531,0.0,0.0,0.0,0.0,0.0,0.0,0.0,0.0,0.0,0.0,0.0,0.0,0.0,0.0,0.0,0.0,-1.0283,0.0,0.0,0.0,0.0,0.0,0.0,0.0,0.0,0.0,-1.5459,-1.5859,-1.6125,-1.6125,-1.7305,-1.8008,-1.8008,-1.8008,-1.8008,-1.8008,-1.8008,-1.8008,-1.8008,-1.8008,-1.8008,-1.8008,-1.8008,-1.8008,-1.8008,-1.8008,-1.8008,-1.8008,-1.8008,-1.8008,-1.8008,-1.8008,-1.8008,-1.8008,-1.8008,-1.8008,-1.8008,-1.8008,-1.8008,-1.8008,-1.8008,-1.8008,-1.8008,-1.8008,-1.8008,-1.8008,-1.8008,-1.8008,-1.8008,-1.8008,-1.8008,-1.8008,-1.8008,-1.8008,-1.8008,-1.8008,-1.8008,-1.8008,-1.8008,-1.8008,-1.8008,-1.8008,-1.8008,-1.8008,-1.8008,-1.8008,-1.8008,-1.8008,-1.8008,-1.8008,-1.8008,-1.8008,-1.8008,-1.8008,-1.8008,-1.8008,-1.8008,-1.8008,-1.8008,-1.8008,-1.8008,-1.8008,-1.8008,-1.8008,-1.8008,-1.8008,-1.8008,-1.8008,-1.8008,-1.8008,-1.8008,0.0,0.0,0.0,-1.2511,0.0,0.0,0.0,0.0,-1.0303,0.0,0.0,0.0,0.0,0.0,0.0,0.0,0.0,0.0,0.0,0.0,0.0,0.0,0.0,0.0,0.0,0.0,0.0,-1.4136,-1.5352,-1.6125,-1.6125,-1.7305,-1.8008,-1.8008,-1.8008,-1.8008,-1.8008,-1.8008,-1.8008,-1.8008,-1.8008,-1.8008,-1.8008,-1.8008,-1.8008,-1.8008,-1.8008,-1.8008,-1.8008,-1.8008,-1.8008,-1.8008,-1.8008,-1.8008,-1.8008,-1.8008,-1.8008,-1.8008,-1.8008,-1.8008,-1.8008,-1.8008,-1.8008,-1.8008,-1.8008,-1.8008,-1.8008,-1.8008,-1.8008,-1.8008,-1.8008,-1.8008,-1.8008,-1.8008,-1.8008,-1.8008,-1.8008,-1.8008,-1.8008,-1.8008,-1.8008,-1.8008,-1.8008,-1.8008,-1.8008,-1.8008,-1.8008,-1.8008,-1.8008,-1.8008,-1.8008,-1.8008,-1.8008,-1.8008,-1.8008,-1.8008,-1.8008,-1.8008,-1.8008,-1.8008,-1.8008,-1.8008,-1.8008,-1.8008,-1.8008,-1.8008,-1.8008,-1.8008,-1.8008,-1.8008,-1.8008,-1.8008,0.0,0.0,-1.5303,-1.4873,0.0,0.0,0.0,0.0,0.0,0.0,0.0,0.0,0.0,0.0,0.0,0.0,0.0,0.0,0.0,0.0,0.0,0.0,0.0,0.0,0.0,0.0,0.0,-1.2764,-1.3281,-1.3525,-1.3525,-1.5557,-1.6719,-1.6719,-1.7559,-1.8008,-1.8008,-1.8008,-1.8008,-1.8008,-1.8008,-1.8008,-1.8008,-1.8008,-1.8008,-1.8008,-1.8008,-1.8008,-1.8008,-1.8008,-1.8008,-1.8008,-1.8008,-1.8008,-1.8008,-1.8008,-1.8008,-1.8008,-1.8008,-1.8008,-1.8008,-1.8008,-1.8008,-1.8008,-1.8008,-1.8008,-1.8008,-1.8008,-1.8008,-1.8008,-1.8008,-1.8008,-1.8008,-1.8008,-1.8008,-1.8008,-1.8008,-1.8008,-1.8008,-1.8008,-1.8008,-1.8008,-1.8008,-1.8008,-1.8008,-1.8008,-1.8008,-1.8008,-1.8008,-1.8008,-1.8008,-1.8008,-1.8008,-1.8008,-1.8008,-1.8008,-1.8008,-1.8008,-1.8008,-1.8008,-1.8008,-1.8008,-1.8008,-1.8008,-1.8008,-1.8008,-1.8008,-1.8008,-1.8008,-1.8008,-1.8008,-1.8008,-1.6523,-1.6758,0.0,-1.6243,-1.5439,0.0,-1.4184,0.0,0.0,0.0,0.0,0.0,0.0,0.0,0.0,0.0,0.0,0.0,0.0,-1.0283,0.0,0.0,0.0,0.0,0.0,0.0,-1.1133,-1.1514,-1.1918,-1.218,0.0,0.0,-1.6125,-1.6125,-1.7334,-1.8008,-1.8008,-1.8008,-1.8008,-1.8008,-1.8008,-1.8008,-1.8008,-1.8008,-1.8008,-1.8008,-1.8008,-1.8008,-1.8008,-1.8008,-1.8008,-1.8008,-1.8008,-1.8008,-1.8008,-1.8008,-1.8008,-1.8008,-1.8008,-1.8008,-1.8008,-1.8008,-1.8008,-1.8008,-1.8008,-1.8008,-1.8105,-1.8555,-1.8359,-1.8115,-1.8574,-1.835,-1.8008,-1.8008,-1.8008,-1.8008,-1.8008,-1.8008,-1.8008,-1.8008,-1.8008,-1.8008,-1.8008,-1.8008,-1.8008,-1.8008,-1.8008,-1.8008,-1.8008,-1.8008,-1.8008,-1.8008,-1.8008,-1.8008,-1.8008,-1.8008,-1.8008,-1.8008,-1.8008,-1.8008,-1.8008,-1.8008,-1.8008,-1.8008,-1.8008,-1.8008,-1.8008,-1.8008,-1.8008,-1.8008,-1.8008,-1.8008]},{"header":{"parameterUnit":"m.s-1","parameterCategory":1,"la1":30.6,"la2":29.2853,"lo1":-89.7004,"lo2":-87.6739,"dy":0.0162,"dx":0.0183,"nx":112,"ny":82,"refTime":"2023-08-15T18:00:00:Z","depth":0,"parameterNumber":3,"parameterNumberName":"V-component_of_WINDS"},"data":[0.0,0.0,0.0,0.0,0.0,0.0,0.0,0.0,0.0,0.0,0.0,0.0,0.0,0.0,0.0,0.0,0.0,0.0,0.0,0.0,0.0,0.0,0.0,0.0,0.0,0.0,0.0,0.0,0.0,0.0,0.0,0.0,0.0,0.0,0.0,0.0,0.0,0.0,0.0,0.0,0.0,0.0,0.0,0.0,0.0,0.0,0.0,0.0,0.0,0.0,0.0,0.0,0.0,0.0,0.0,0.0,0.0,0.0,0.0,0.0,0.0,0.0,0.0,0.0,0.0,0.0,0.0,0.0,0.0,0.0,0.0,0.0,0.0,0.0,0.0,0.0,0.0,0.0,0.0,0.0,0.0,0.0,0.0,0.0,0.0,0.0,0.0,0.0,0.0,0.0,-2.8088,-3.1414,-3.177,-3.1744,-3.1675,-3.1616,-3.0186,-2.6849,0.0,0.0,0.0,0.0,0.0,0.0,0.0,0.0,0.0,0.0,0.0,0.0,0.0,0.0,0.0,0.0,0.0,0.0,0.0,0.0,0.0,0.0,0.0,0.0,0.0,0.0,0.0,0.0,0.0,0.0,0.0,0.0,0.0,0.0,0.0,0.0,0.0,0.0,0.0,0.0,0.0,0.0,0.0,0.0,0.0,0.0,0.0,0.0,0.0,0.0,0.0,0.0,0.0,0.0,0.0,0.0,0.0,0.0,0.0,0.0,0.0,0.0,0.0,0.0,0.0,0.0,0.0,0.0,0.0,0.0,0.0,0.0,0.0,0.0,0.0,0.0,0.0,0.0,0.0,0.0,0.0,0.0,0.0,0.0,0.0,0.0,0.0,0.0,0.0,0.0,0.0,0.0,0.0,0.0,0.0,0.0,0.0,0.0,0.0,0.0,0.0,0.0,0.0,0.0,-3.1297,-3.3238,-3.344,-3.3314,-3.294,-3.2593,-3.0789,-2.7022,0.0,0.0,0.0,0.0,0.0,0.0,0.0,0.0,0.0,0.0,0.0,0.0,0.0,0.0,0.0,0.0,0.0,0.0,0.0,0.0,0.0,0.0,0.0,0.0,0.0,0.0,0.0,0.0,0.0,0.0,0.0,0.0,0.0,0.0,0.0,0.0,0.0,0.0,0.0,0.0,0.0,0.0,0.0,0.0,0.0,0.0,0.0,0.0,0.0,0.0,0.0,0.0,0.0,0.0,0.0,0.0,0.0,0.0,0.0,0.0,0.0,0.0,0.0,0.0,0.0,0.0,0.0,0.0,0.0,0.0,0.0,0.0,0.0,0.0,0.0,0.0,0.0,0.0,0.0,0.0,0.0,0.0,0.0,0.0,0.0,0.0,0.0,0.0,0.0,0.0,0.0,0.0,0.0,0.0,0.0,0.0,0.0,0.0,0.0,0.0,0.0,0.0,0.0,-3.0808,-3.2981,-3.3715,-3.3807,-3.3734,-3.355,-3.3378,-3.1733,-2.8207,-2.7139,0.0,0.0,0.0,0.0,0.0,0.0,0.0,0.0,0.0,0.0,0.0,0.0,0.0,0.0,0.0,0.0,0.0,0.0,0.0,0.0,0.0,0.0,0.0,0.0,0.0,0.0,0.0,0.0,0.0,0.0,0.0,0.0,0.0,0.0,0.0,0.0,0.0,0.0,0.0,0.0,0.0,0.0,0.0,0.0,0.0,0.0,0.0,0.0,0.0,0.0,0.0,0.0,0.0,0.0,0.0,0.0,0.0,0.0,0.0,0.0,0.0,0.0,0.0,0.0,0.0,0.0,0.0,0.0,0.0,0.0,0.0,0.0,0.0,0.0,0.0,0.0,0.0,0.0,0.0,0.0,0.0,0.0,0.0,0.0,0.0,0.0,0.0,0.0,0.0,0.0,0.0,0.0,0.0,0.0,0.0,0.0,0.0,0.0,0.0,0.0,0.0,0.0,-3.1604,-3.3385,-3.3752,-3.3807,-3.3807,-3.3807,-3.3807,-3.243,-2.9195,-2.8213,0.0,0.0,0.0,0.0,0.0,0.0,0.0,0.0,0.0,0.0,0.0,0.0,0.0,0.0,0.0,0.0,0.0,0.0,0.0,0.0,0.0,0.0,0.0,0.0,0.0,0.0,0.0,0.0,0.0,0.0,0.0,0.0,0.0,0.0,0.0,0.0,0.0,0.0,0.0,0.0,0.0,0.0,0.0,0.0,0.0,0.0,0.0,0.0,0.0,0.0,0.0,0.0,0.0,0.0,0.0,0.0,0.0,0.0,0.0,0.0,0.0,0.0,0.0,0.0,0.0,0.0,0.0,0.0,0.0,0.0,0.0,0.0,0.0,0.0,0.0,0.0,0.0,0.0,0.0,0.0,0.0,0.0,0.0,0.0,0.0,0.0,0.0,0.0,0.0,0.0,0.0,0.0,0.0,0.0,0.0,0.0,0.0,0.0,0.0,0.0,0.0,0.0,-3.0962,-3.2137,-3.3642,-3.3807,-3.3807,-3.3807,-3.3807,-3.243,-2.9195,-2.8938,0.0,0.0,0.0,0.0,0.0,0.0,0.0,0.0,0.0,0.0,0.0,0.0,0.0,0.0,0.0,0.0,0.0,0.0,0.0,0.0,0.0,0.0,0.0,0.0,0.0,0.0,0.0,0.0,0.0,0.0,0.0,0.0,0.0,0.0,0.0,0.0,0.0,0.0,0.0,0.0,0.0,0.0,0.0,0.0,0.0,0.0,0.0,0.0,0.0,0.0,0.0,0.0,0.0,0.0,0.0,0.0,0.0,0.0,0.0,0.0,0.0,0.0,0.0,0.0,0.0,0.0,0.0,0.0,0.0,0.0,0.0,0.0,0.0,0.0,0.0,0.0,0.0,0.0,0.0,0.0,0.0,0.0,0.0,0.0,0.0,0.0,0.0,0.0,0.0,0.0,0.0,0.0,0.0,0.0,0.0,0.0,0.0,0.0,0.0,0.0,0.0,0.0,-3.1476,-3.3128,0.0,-3.3807,-3.3807,-3.3807,-3.3807,-3.243,-2.9195,0.0,0.0,0.0,0.0,0.0,0.0,0.0,0.0,0.0,0.0,0.0,0.0,0.0,0.0,0.0,0.0,0.0,0.0,0.0,0.0,0.0,0.0,0.0,0.0,0.0,0.0,0.0,0.0,0.0,0.0,0.0,0.0,0.0,0.0,0.0,0.0,0.0,0.0,0.0,0.0,0.0,0.0,0.0,0.0,0.0,0.0,0.0,0.0,0.0,0.0,0.0,0.0,0.0,0.0,0.0,0.0,0.0,0.0,0.0,0.0,0.0,0.0,0.0,0.0,0.0,0.0,0.0,0.0,0.0,0.0,0.0,0.0,0.0,0.0,0.0,0.0,0.0,0.0,0.0,0.0,0.0,0.0,0.0,0.0,0.0,0.0,0.0,0.0,0.0,0.0,0.0,0.0,0.0,0.0,0.0,0.0,0.0,0.0,0.0,0.0,0.0,0.0,-2.8994,-3.1825,-3.3807,0.0,-3.3807,-3.3807,-3.3807,-3.3807,-3.232,-2.8851,0.0,0.0,0.0,0.0,0.0,0.0,0.0,0.0,0.0,0.0,0.0,0.0,0.0,0.0,0.0,0.0,0.0,0.0,0.0,0.0,0.0,0.0,0.0,0.0,0.0,0.0,0.0,0.0,0.0,0.0,0.0,0.0,0.0,0.0,0.0,0.0,0.0,0.0,0.0,0.0,0.0,0.0,0.0,0.0,0.0,0.0,0.0,0.0,0.0,0.0,0.0,0.0,0.0,0.0,0.0,0.0,0.0,0.0,0.0,0.0,0.0,0.0,0.0,0.0,0.0,0.0,0.0,0.0,0.0,0.0,0.0,0.0,0.0,0.0,0.0,0.0,0.0,0.0,0.0,0.0,0.0,0.0,0.0,0.0,0.0,0.0,0.0,0.0,0.0,0.0,0.0,0.0,0.0,0.0,0.0,0.0,0.0,0.0,0.0,0.0,0.0,0.0,-2.8994,-3.1825,-3.3807,-3.3807,-3.3807,-3.3807,-3.3807,-3.3807,-3.2082,0.0,0.0,0.0,0.0,0.0,0.0,0.0,0.0,0.0,0.0,0.0,0.0,0.0,0.0,0.0,0.0,0.0,0.0,0.0,0.0,0.0,0.0,0.0,0.0,0.0,0.0,0.0,0.0,0.0,0.0,0.0,0.0,0.0,0.0,0.0,0.0,0.0,0.0,0.0,0.0,0.0,0.0,0.0,0.0,0.0,0.0,0.0,0.0,0.0,0.0,0.0,0.0,0.0,0.0,0.0,0.0,0.0,0.0,0.0,0.0,0.0,0.0,0.0,0.0,0.0,0.0,0.0,0.0,0.0,0.0,0.0,0.0,0.0,0.0,0.0,0.0,0.0,0.0,0.0,0.0,0.0,0.0,0.0,0.0,0.0,0.0,0.0,0.0,0.0,0.0,0.0,0.0,0.0,0.0,0.0,0.0,0.0,0.0,0.0,0.0,0.0,0.0,0.0,-2.8994,-3.1825,-3.3807,-3.3807,-3.3807,-3.3807,-3.3807,-3.3807,-3.2082,-2.8044,0.0,0.0,0.0,0.0,0.0,0.0,0.0,0.0,0.0,0.0,0.0,0.0,0.0,0.0,0.0,0.0,0.0,0.0,0.0,0.0,0.0,0.0,0.0,0.0,0.0,0.0,0.0,0.0,0.0,0.0,0.0,0.0,0.0,0.0,0.0,0.0,0.0,0.0,0.0,0.0,0.0,0.0,0.0,0.0,0.0,0.0,0.0,0.0,0.0,0.0,0.0,0.0,0.0,0.0,0.0,0.0,0.0,0.0,0.0,0.0,0.0,0.0,0.0,0.0,0.0,0.0,0.0,0.0,0.0,0.0,0.0,0.0,0.0,0.0,0.0,0.0,0.0,0.0,0.0,0.0,0.0,0.0,0.0,0.0,0.0,0.0,0.0,0.0,0.0,0.0,0.0,0.0,0.0,0.0,0.0,0.0,0.0,0.0,0.0,0.0,0.0,0.0,-2.8994,-3.1825,-3.3807,-3.3807,-3.3807,-3.3807,-3.3807,-3.3807,-3.2357,-2.8962,0.0,0.0,0.0,0.0,0.0,0.0,0.0,0.0,0.0,0.0,0.0,0.0,0.0,0.0,0.0,0.0,0.0,0.0,0.0,0.0,0.0,0.0,0.0,0.0,0.0,0.0,0.0,0.0,0.0,0.0,0.0,0.0,0.0,0.0,0.0,0.0,0.0,0.0,0.0,0.0,0.0,0.0,0.0,0.0,0.0,0.0,0.0,0.0,0.0,0.0,0.0,0.0,0.0,0.0,0.0,0.0,0.0,0.0,0.0,0.0,0.0,0.0,0.0,0.0,0.0,0.0,0.0,0.0,0.0,0.0,0.0,0.0,0.0,0.0,0.0,0.0,0.0,0.0,0.0,0.0,0.0,0.0,0.0,0.0,0.0,0.0,0.0,0.0,0.0,0.0,0.0,0.0,0.0,0.0,0.0,0.0,0.0,0.0,0.0,0.0,0.0,0.0,-2.8906,-3.177,-3.3807,-3.3807,-3.3807,-3.3807,-3.3807,-3.3807,-3.2779,-3.0356,0.0,0.0,0.0,0.0,0.0,0.0,0.0,0.0,0.0,0.0,0.0,0.0,0.0,0.0,0.0,0.0,0.0,0.0,0.0,0.0,0.0,0.0,0.0,0.0,0.0,0.0,0.0,0.0,0.0,0.0,0.0,0.0,0.0,0.0,0.0,0.0,0.0,0.0,0.0,0.0,0.0,0.0,0.0,0.0,0.0,0.0,0.0,0.0,0.0,0.0,0.0,0.0,0.0,0.0,0.0,0.0,0.0,0.0,0.0,0.0,-2.9315,0.0,0.0,0.0,0.0,0.0,0.0,0.0,0.0,0.0,0.0,0.0,0.0,0.0,0.0,0.0,0.0,0.0,0.0,0.0,0.0,0.0,0.0,0.0,0.0,0.0,0.0,0.0,0.0,0.0,0.0,0.0,0.0,0.0,0.0,0.0,0.0,0.0,0.0,0.0,0.0,0.0,-2.8062,-3.1421,-3.3807,-3.3807,-3.3807,-3.3807,-3.3807,-3.3807,-3.2779,-3.0356,-2.9732,0.0,0.0,0.0,0.0,0.0,0.0,0.0,0.0,0.0,0.0,0.0,0.0,0.0,0.0,0.0,0.0,0.0,0.0,0.0,0.0,0.0,0.0,0.0,0.0,0.0,0.0,0.0,0.0,0.0,0.0,0.0,0.0,0.0,0.0,0.0,0.0,0.0,0.0,0.0,0.0,0.0,0.0,0.0,0.0,0.0,0.0,0.0,0.0,0.0,0.0,0.0,0.0,0.0,0.0,0.0,0.0,0.0,0.0,0.0,0.0,-2.9212,0.0,0.0,0.0,0.0,0.0,0.0,0.0,0.0,0.0,0.0,0.0,0.0,0.0,0.0,0.0,0.0,0.0,0.0,0.0,0.0,0.0,0.0,0.0,0.0,0.0,0.0,0.0,0.0,0.0,0.0,0.0,0.0,0.0,0.0,0.0,0.0,0.0,0.0,0.0,0.0,-2.7787,-3.1311,-3.3807,-3.3807,-3.3807,-3.3807,-3.3807,-3.3807,-3.3176,-3.171,-3.0734,0.0,0.0,0.0,0.0,0.0,0.0,0.0,0.0,0.0,0.0,0.0,0.0,0.0,0.0,0.0,0.0,0.0,0.0,0.0,0.0,0.0,0.0,0.0,0.0,0.0,0.0,0.0,0.0,0.0,0.0,0.0,0.0,0.0,0.0,0.0,0.0,0.0,0.0,0.0,0.0,0.0,0.0,0.0,0.0,0.0,0.0,0.0,0.0,0.0,0.0,0.0,0.0,0.0,-3.2809,-3.2982,-3.3576,-3.1863,-3.1481,-3.218,-3.2392,-3.2328,-3.1979,-3.0866,0.0,0.0,0.0,0.0,0.0,0.0,0.0,0.0,0.0,0.0,0.0,0.0,0.0,0.0,0.0,0.0,0.0,0.0,0.0,0.0,0.0,0.0,0.0,0.0,-2.9017,-2.8558,0.0,0.0,0.0,0.0,0.0,0.0,0.0,0.0,0.0,0.0,0.0,0.0,-2.7824,-3.1568,-3.4174,-3.4027,-3.4009,-3.3954,-3.3807,-3.3807,-3.3652,-3.3332,-3.1762,-3.0465,0.0,0.0,0.0,0.0,0.0,0.0,0.0,0.0,0.0,0.0,0.0,0.0,0.0,0.0,0.0,0.0,0.0,0.0,0.0,0.0,0.0,0.0,0.0,0.0,0.0,0.0,0.0,0.0,0.0,0.0,0.0,0.0,-3.002,-3.1433,0.0,0.0,0.0,0.0,0.0,0.0,0.0,0.0,0.0,0.0,0.0,0.0,0.0,-3.1895,-3.2007,-3.3488,-3.4257,-3.4317,-3.5715,-3.6434,-3.6547,-3.6012,-3.585,-3.5888,-3.4296,0.0,-3.3079,-3.2895,0.0,0.0,0.0,0.0,0.0,0.0,0.0,0.0,0.0,0.0,0.0,0.0,0.0,0.0,0.0,0.0,0.0,0.0,0.0,0.0,0.0,0.0,-3.2761,-3.3091,-3.1494,-3.0687,0.0,-2.9567,-2.6043,-2.8264,-2.6906,0.0,0.0,0.0,0.0,0.0,0.0,0.0,-2.7879,-3.2577,-3.5679,-3.4917,-3.4825,-3.4578,-3.3862,-3.3807,-3.378,-3.3734,-3.3468,-3.2349,-3.0192,-3.2184,0.0,0.0,0.0,0.0,0.0,0.0,0.0,0.0,0.0,0.0,0.0,0.0,0.0,0.0,0.0,0.0,0.0,0.0,0.0,0.0,0.0,0.0,0.0,0.0,0.0,0.0,0.0,0.0,0.0,-2.989,-3.0996,-3.1719,-3.128,-3.0253,0.0,0.0,0.0,0.0,0.0,0.0,0.0,0.0,0.0,-3.2202,-3.3601,-3.4604,-3.5154,-3.7074,-3.8357,-3.8984,-3.9584,-3.9849,-3.9849,-3.9586,-3.9444,-3.9398,-3.8343,-3.7798,-3.7479,-3.4875,-3.3527,-3.2862,0.0,0.0,0.0,0.0,-2.8319,-2.9255,-3.0063,-3.1403,0.0,-3.2742,0.0,0.0,0.0,0.0,0.0,0.0,0.0,0.0,0.0,0.0,-3.4045,-3.4981,-3.4394,-3.4009,-3.544,-3.243,-2.9898,0.0,-2.9751,-2.7658,-2.63,0.0,0.0,0.0,0.0,-3.0907,-3.054,-3.388,-3.6156,-3.5771,-3.5734,-3.5587,-3.522,-3.4546,-3.4032,-3.3754,-3.3567,-3.2861,-3.1564,-3.2985,-3.2173,0.0,0.0,0.0,0.0,0.0,0.0,0.0,0.0,0.0,0.0,0.0,0.0,0.0,0.0,0.0,0.0,0.0,0.0,0.0,0.0,0.0,0.0,0.0,0.0,0.0,0.0,0.0,0.0,-3.0376,-3.1406,-3.2017,-3.1615,-3.0828,0.0,0.0,0.0,0.0,0.0,0.0,-3.3415,-3.3665,-3.3885,-3.4161,-3.6189,-3.7633,-3.8328,-4.0021,-4.1292,-4.2148,-4.1893,-4.178,-4.1753,-4.1556,-4.1456,-4.1475,-4.1222,-4.1111,-4.0818,-3.7368,-3.5469,-3.4659,-3.4237,-3.2813,-3.1011,-3.0974,-3.1286,-3.1843,-3.2449,-3.3715,-3.5055,-3.5055,0.0,-3.388,-3.2669,0.0,0.0,0.0,0.0,-3.1751,-3.3128,-3.3954,-3.4743,-3.5991,-3.6303,-3.6358,-3.656,-3.4816,-3.3476,0.0,-3.2485,-3.032,-2.8723,0.0,0.0,0.0,0.0,-3.3146,-3.2944,-3.5257,-3.6835,-3.6615,-3.6597,-3.6505,-3.6321,-3.5417,-3.4653,-3.4085,-3.3797,-3.3412,-3.2858,-3.3447,-3.2963,-3.1164,0.0,0.0,0.0,0.0,0.0,0.0,0.0,0.0,0.0,0.0,0.0,0.0,0.0,0.0,0.0,0.0,0.0,0.0,0.0,0.0,0.0,0.0,0.0,0.0,0.0,0.0,0.0,0.0,0.0,-3.2672,-3.451,0.0,0.0,0.0,0.0,-3.2461,-3.2637,-3.3796,-3.6002,-3.6824,-3.8347,-4.0746,-4.1135,-4.1334,-4.1371,-4.1182,-4.1121,-4.119,-4.1158,-4.1158,-4.1126,-4.1126,-4.1144,-4.1126,-4.1111,-4.1111,-4.1093,-4.0836,-4.0299,-3.9326,-3.703,-3.6056,-3.567,-3.333,-3.3972,-3.5991,-3.6028,-3.711,-3.845,-3.845,-3.6872,-3.4495,-3.2173,-3.1916,0.0,0.0,-3.2412,-3.4422,-3.3036,-3.4412,-3.6193,-3.6266,-3.6303,-3.6505,-3.7257,-3.6101,-3.5147,0.0,-3.4174,-3.2687,-3.333,0.0,-3.2742,-3.032,-3.2779,-3.4587,-3.3844,-3.6578,-3.8285,-3.7514,-3.7452,-3.711,-3.6358,-3.6248,-3.5852,-3.4999,-3.4926,-3.4559,-3.3771,-3.378,-3.3733,-3.3623,-3.1366,0.0,0.0,0.0,0.0,0.0,0.0,0.0,0.0,0.0,0.0,0.0,0.0,0.0,0.0,0.0,0.0,0.0,0.0,0.0,0.0,0.0,0.0,0.0,0.0,0.0,0.0,0.0,0.0,-3.3832,-3.4628,0.0,-3.4377,-3.4843,-3.5327,-3.568,-3.6799,-3.8232,-3.9924,-4.0113,-4.0469,-4.1148,-4.1436,-4.2087,-4.3141,-4.3015,-4.3489,-4.4508,-4.4297,-4.4195,-4.4195,-4.4195,-4.4195,-4.4195,-4.4195,-4.3901,-4.3424,-4.3424,-4.2341,-4.0598,-3.9735,-3.9405,-3.9294,-3.8414,-3.8634,-3.9405,-3.9405,-3.9772,-4.0175,-3.9643,-3.8524,-3.7221,-3.6358,-3.6303,-3.6413,-3.5844,-3.6505,-3.7257,-3.667,-3.7184,-3.7845,-3.7845,-3.7845,-3.7918,-3.8212,-3.7808,-3.7477,-3.779,-3.6285,-3.489,-3.4633,-3.5899,-3.6119,-3.3678,-3.5624,-3.7294,-3.7,-3.7973,-3.8597,-3.8303,-3.8267,-3.8157,-3.7863,-3.7101,-3.649,-3.6199,-3.5187,-3.4479,-3.4189,-3.3927,-3.3807,-3.3807,-3.2963,-3.0999,0.0,0.0,0.0,0.0,0.0,0.0,0.0,0.0,0.0,0.0,0.0,0.0,0.0,0.0,0.0,0.0,0.0,0.0,0.0,0.0,0.0,0.0,0.0,0.0,0.0,0.0,-3.3168,-3.4771,-3.5368,-3.5822,-3.6214,-3.6685,-3.7485,-3.8804,-3.9987,-4.1037,-4.1875,-4.2249,-4.2322,-4.2078,-4.2704,-4.3545,-4.4633,-4.4638,-4.5175,-4.6231,-4.6009,-4.5902,-4.5902,-4.5902,-4.559,-4.5112,-4.5663,-4.5296,-4.4342,-4.4892,-4.4158,-4.2653,-4.1827,-4.135,-4.1111,-4.1111,-4.1111,-4.1111,-4.1111,-4.1111,-4.102,-4.0487,-3.9937,-3.9515,-3.9515,-3.9515,-3.946,-3.9184,-3.9093,-3.9038,-3.8781,-3.8707,-3.8707,-3.8707,-3.8707,-3.8707,-3.8707,-3.8046,-3.7716,-3.8542,-3.7845,-3.667,-3.5229,-3.6347,-3.6633,-3.4174,-3.5183,-3.6248,-3.6248,-3.6964,-3.7459,-3.7459,-3.8212,-3.8707,-3.8707,-3.7161,-3.6422,-3.6999,-3.5242,-3.4316,-3.4588,-3.3817,-3.3275,-3.2999,-3.2192,-3.0467,-2.7824,0.0,0.0,0.0,0.0,0.0,0.0,0.0,0.0,0.0,0.0,0.0,0.0,0.0,0.0,0.0,0.0,0.0,0.0,0.0,0.0,0.0,0.0,0.0,-2.9287,-3.2059,-3.455,-3.5498,-3.7031,-3.8402,-3.9467,-4.032,-4.1041,-4.1595,-4.189,-4.1961,-4.1725,-4.3155,-4.3962,-4.3962,-4.5176,-4.5847,-4.5865,-4.5902,-4.5957,-4.5975,-4.5975,-4.5975,-4.5975,-4.5975,-4.5112,-4.3736,-4.5296,-4.5076,-4.3718,-4.5278,-4.592,-4.5663,-4.3332,-4.1919,-4.1222,-4.1222,-4.1203,-4.1185,-4.113,-4.113,-4.1148,-4.1148,-4.113,-4.1111,-4.1111,-4.1111,-4.0946,-4.0157,-3.9937,-3.9753,-3.8982,-3.8781,-3.8781,-3.8781,-3.8781,-3.8781,-3.8744,-3.6853,-3.5852,-3.8248,-3.8707,-3.7955,-3.5522,-3.5119,-3.4339,-3.1971,-3.1623,0.0,-3.1623,-3.3678,-3.5119,-3.5119,-3.7202,-3.8615,-3.8689,-3.645,-3.5734,-3.7422,-3.5257,-3.4284,-3.5045,-3.3523,-3.2302,-3.1476,-2.909,-2.8631,-3.0191,0.0,0.0,0.0,0.0,0.0,0.0,0.0,0.0,0.0,0.0,0.0,0.0,0.0,0.0,0.0,0.0,0.0,0.0,0.0,0.0,0.0,0.0,-3.4321,-3.345,-3.4706,-3.6306,-3.7917,-3.9367,-4.0429,-4.097,-4.1241,-4.168,-4.2425,-4.3069,-4.3666,-4.4202,-4.3832,-4.3631,-4.3631,-4.3989,-4.4433,-4.5021,-4.6195,-4.7076,-4.7645,-4.7645,-4.7645,-4.7645,-4.7645,-4.7407,-4.7003,-4.7462,-4.7058,-4.6159,-4.6599,-4.6434,-4.5828,-4.5168,-4.4415,-4.3718,-4.3718,-4.3351,-4.2671,-4.1515,-4.1497,-4.1974,-4.1974,-4.1589,-4.1111,-4.1111,-4.1111,-4.1056,-4.0836,-4.0781,-4.0726,-4.0506,-4.0451,-4.0451,-4.0451,-4.0451,-4.0286,-3.9698,-3.9019,-3.8579,-3.8689,-3.8707,-3.8487,-3.7808,-3.7679,-3.7459,-3.6798,-3.6688,0.0,-3.6688,-3.7276,-3.7679,-3.7679,-3.6688,-3.6762,-3.856,-3.645,-3.5973,-3.823,-3.7165,-3.656,-3.6798,-3.5238,-3.3972,-3.3164,-3.0779,-2.9751,0.0,0.0,0.0,0.0,0.0,0.0,0.0,0.0,0.0,0.0,0.0,0.0,0.0,0.0,0.0,0.0,0.0,0.0,0.0,0.0,0.0,0.0,-3.4724,-3.6982,-3.7466,-3.7698,-3.8339,-3.9764,-4.0614,-4.1448,-4.2297,-4.2403,-4.2865,-4.4027,-4.4531,-4.5012,-4.5456,-4.518,-4.4709,-4.4011,-4.4984,-4.5406,-4.5204,-4.6819,-4.7847,-4.8306,-4.8306,-4.8306,-4.8306,-4.8306,-4.7939,0.0,-4.8012,-4.7664,-4.6654,-4.7333,-4.7333,0.0,0.0,0.0,0.0,0.0,-4.4415,-4.3809,-4.2543,-4.2415,-4.28,-4.28,-4.2488,-4.2121,-4.2121,-4.1644,-4.1038,-4.0689,-4.012,-3.968,-4.001,-4.0102,-4.0267,-4.0946,-4.1111,-4.0983,-4.0506,-3.9331,-3.8542,-3.9093,-3.8102,0.0,-3.8524,-3.7845,-3.6817,-3.5789,-3.5642,-3.5642,-3.5642,-3.6523,-3.7165,-3.7165,-3.6798,-3.7147,-3.8579,-3.645,0.0,0.0,0.0,-3.645,-3.645,-3.4871,0.0,0.0,0.0,-2.9531,-3.021,0.0,0.0,0.0,-2.8539,-2.7714,0.0,0.0,0.0,0.0,0.0,0.0,0.0,0.0,0.0,0.0,0.0,0.0,0.0,0.0,0.0,0.0,-3.7257,-3.8689,-4.0928,-4.0708,-4.0561,-4.1295,-4.146,-4.2103,-4.3608,-4.3754,-4.436,-4.5792,-4.5975,-4.6049,-4.6049,0.0,0.0,0.0,0.0,-4.7352,-4.5902,-4.7498,-4.8306,-4.8306,-4.8306,-4.8306,-4.8306,-4.8306,-4.7517,-4.625,-4.7682,-4.7498,-4.6287,-4.7719,-4.8306,-4.8159,-4.6636,-4.6049,-4.592,-4.4929,-4.469,-4.469,-4.3699,0.0,0.0,-4.3516,-4.3497,-4.3497,-4.3497,-4.2506,-4.1222,-4.0506,-3.9276,-3.8322,-3.9056,-3.9239,-3.9606,-4.1038,-4.1387,-4.1368,-4.1258,-3.9001,-3.7569,-3.9643,-3.7624,-3.6237,-3.8469,-3.6945,-3.4706,-3.254,-3.221,-3.221,-3.221,-3.41,-3.5412,-3.5412,0.0,0.0,-3.8689,-3.645,-3.6054,-3.8542,-3.6633,-3.5375,-3.5284,-3.3917,-3.2063,-2.9709,-2.898,-2.9274,-3.0613,-3.0613,-3.1715,-3.3715,-3.0136,-2.9237,0.0,0.0,0.0,0.0,0.0,0.0,0.0,0.0,0.0,0.0,0.0,0.0,0.0,0.0,0.0,-3.7129,-3.9019,-4.0799,-4.1919,-4.2488,-4.2855,-4.302,-4.3608,-4.4378,-4.5333,-4.5443,-4.5553,-4.5883,-4.6507,-4.6874,-4.6874,-4.6416,-4.5993,-4.5681,-4.6122,-4.6214,-4.5902,-4.7498,-4.8306,-4.8306,0.0,0.0,-4.8306,-4.8306,-4.8141,-4.7847,-4.8159,-4.8122,-4.7865,-4.8177,-4.8306,-4.8214,-4.726,-4.6874,-4.6617,-4.4507,-4.4544,-4.5369,-4.3259,-4.3387,-4.436,-4.3699,-4.3497,-4.3497,-4.3497,-4.3277,0.0,-4.2837,-4.2561,-4.2359,-4.2525,-4.2561,-4.2635,-4.2947,-4.3039,-4.2855,-4.2213,-4.1589,-4.1093,-4.091,-3.9827,-3.9093,-3.9588,-3.8726,-3.7845,-3.7367,-3.7294,-3.7294,-3.7294,-3.7698,-3.7991,-3.7991,-3.6633,-3.6541,-3.8542,-3.645,-3.6054,-3.8542,-3.8248,-3.7698,-3.7037,-3.6707,-3.5697,-3.3872,-3.367,-3.3458,-3.3109,-3.3109,-3.3348,-3.377,-3.2999,-3.2816,0.0,0.0,0.0,0.0,0.0,0.0,0.0,0.0,0.0,0.0,0.0,-3.4541,0.0,0.0,-3.7881,-3.9111,-4.0322,-4.168,-4.3277,-4.3846,-4.4103,-4.4103,-4.4819,-4.5626,-4.6434,-4.6507,-4.6673,-4.7076,-4.748,-4.7719,-4.7719,-4.7333,-4.6728,-4.592,-4.6673,-4.6709,-4.5902,-4.7498,-4.8306,-4.8306,-4.8306,-4.8306,-4.8306,-4.8306,-4.8306,-4.8306,-4.8306,-4.8306,-4.8306,-4.8306,-4.8306,-4.8269,-4.7865,-4.7719,-4.7517,-4.5902,-4.581,-4.6269,-4.4654,-4.436,-4.4635,-4.4232,-4.3828,-4.3497,-4.3497,-4.2928,-4.2304,-4.2304,-4.1717,-4.1277,-4.2084,-4.2304,-4.2506,-4.3296,-4.3497,-4.3387,-4.2983,-4.258,-4.2176,-4.1791,-4.1056,-4.0377,-3.9955,-3.957,-3.9166,-3.8762,-3.8707,-3.8707,-3.8707,-3.8707,-3.8707,-3.8707,-3.7606,-3.7367,-3.8597,-3.7569,-3.7386,-3.8615,-3.8707,-3.8524,-3.812,-3.7698,-3.7092,-3.6266,-3.5412,-3.4789,-3.4412,-3.4009,-3.3807,-3.3807,-3.3807,-3.3807,0.0,0.0,0.0,0.0,0.0,0.0,0.0,0.0,-3.4981,-3.4981,-3.5642,-3.6413,-3.711,-3.7881,-3.9056,-4.102,-4.1607,-4.2488,-4.4433,-4.4984,-4.5186,-4.5186,-4.5755,-4.6452,-4.7278,-4.7352,-4.7609,-4.8251,-4.8306,-4.8306,-4.8306,-4.8306,-4.7719,-4.6416,-4.7627,-4.7682,-4.6379,-4.7664,-4.8306,-4.8306,-4.8306,-4.8306,-4.8306,-4.8306,-4.8306,-4.8306,-4.8306,-4.8306,-4.8306,-4.8306,-4.8306,-4.8306,-4.8306,-4.8306,-4.8233,-4.759,-4.7352,-4.7241,-4.6416,-4.5718,-4.5149,-4.4984,-4.4397,-4.3718,-4.3718,-4.2727,-4.1589,-4.1589,-4.0634,-3.9937,-4.124,-4.1589,-4.1901,-4.3185,-4.3497,-4.3497,-4.3497,-4.2983,-4.2525,-4.2525,-4.1882,-4.113,-4.0469,-4.0102,-3.9625,-3.8817,-3.8707,-3.8707,-3.8707,-3.8707,-3.8707,-3.8707,-3.8707,-3.8707,-3.8707,-3.8707,-3.8707,-3.8707,-3.8707,-3.8707,-3.8707,-3.8065,-3.7643,-3.7507,-3.6028,-3.5155,-3.499,-3.4192,-3.3807,-3.3807,-3.3807,-3.3807,-3.1898,-3.087,-3.0668,-3.1458,-3.3293,-3.5064,0.0,0.0,-3.9221,-3.9221,-3.9863,-4.0469,-4.0561,-4.1222,-4.1846,-4.2121,-4.3369,-4.4397,-4.4672,-4.5938,-4.6856,-4.6856,-4.6929,-4.7297,-4.8104,-4.8177,-4.8214,-4.8306,-4.8306,-4.8306,-4.8306,-4.8306,-4.8233,-4.8049,-4.8214,-4.8214,-4.8031,-4.8214,-4.8306,-4.8306,-4.8306,-4.8306,-4.8306,-4.8306,-4.8306,-4.8306,-4.8306,-4.8306,-4.8306,-4.8306,-4.8306,-4.8306,-4.8306,-4.8306,-4.8306,-4.8214,-4.8177,-4.8067,-4.726,-4.6929,-4.6728,-4.5993,-4.5223,-4.458,-4.458,-4.3938,-4.3222,-4.3222,-4.3094,-4.3002,-4.3167,-4.3222,-4.3277,-4.3442,-4.3497,-4.3497,-4.3497,-4.3424,-4.3369,-4.3369,-4.2708,-4.2139,-4.2047,-4.0836,-3.9625,-3.8817,-3.8707,-3.8707,-3.8707,-3.8707,-3.8707,-3.8707,-3.8707,-3.8707,-3.8707,-3.8707,-3.8707,-3.8707,-3.8707,-3.8707,-3.8707,-3.8615,-3.823,-3.7496,-3.6597,-3.5771,-3.499,-3.4192,-3.3807,-3.3807,-3.3807,-3.3807,-3.3513,-3.3623,0.0,0.0,-3.6762,-3.8083,-3.8909,-3.9882,-4.0598,-4.0598,-4.124,-4.1809,-4.1809,-4.2066,-4.2451,0.0,-4.3552,-4.4323,-4.5278,-4.6397,-4.7297,-4.7755,-4.6985,-4.6526,-4.6874,-4.7755,-4.7921,-4.6966,-4.7774,-4.8306,-4.8306,-4.8306,-4.8306,-4.8306,-4.8306,-4.8306,-4.8306,-4.8306,-4.8306,-4.8306,-4.8306,-4.8306,-4.8306,-4.8306,-4.8306,-4.8306,-4.8306,-4.8306,-4.8306,-4.8306,-4.8306,-4.8306,-4.8306,-4.8306,-4.8306,-4.8306,-4.8306,-4.8251,-4.7921,-4.7498,-4.702,-4.6728,-4.6049,-4.5314,-4.4856,-4.447,-4.4103,-4.3626,-4.3497,-4.3497,-4.3497,-4.3497,-4.3497,-4.3497,-4.3497,-4.3497,-4.3497,-4.3497,-4.3497,-4.3497,-4.3222,-4.2837,-4.2378,-4.135,-4.0341,-3.9515,-3.9001,-3.8707,-3.8707,-3.8707,-3.8707,-3.8707,-3.8707,-3.8707,-3.8707,-3.8707,-3.8707,-3.8707,-3.8707,-3.8707,-3.8707,-3.8707,-3.8542,-3.8193,-3.7404,-3.6578,-3.5752,-3.4926,-3.4266,-3.3807,-3.3807,-3.3807,-3.4165,0.0,0.0,-3.7845,-3.9129,-4.0175,-4.1203,-4.1442,-4.1497,-4.1735,-4.2231,-4.2635,-4.2635,-4.2635,-4.2818,-4.3406,-4.3681,-4.4323,-4.57,-4.6599,-4.7241,-4.7609,-4.6617,-4.5553,-4.4654,-4.6434,-4.7352,-4.6617,-4.7645,-4.8306,-4.8306,-4.8306,-4.8306,-4.8306,-4.8306,-4.8306,-4.8306,-4.8306,-4.8306,-4.8306,-4.8306,-4.8306,-4.8306,-4.8306,-4.8306,-4.8306,-4.8306,-4.8306,-4.8306,-4.8306,-4.8306,-4.8306,-4.8306,-4.8306,-4.8306,-4.8306,-4.8306,-4.8306,-4.8306,-4.7921,-4.7443,-4.7443,-4.6893,-4.6085,-4.5278,-4.4892,-4.4544,-4.3718,-4.3497,-4.3497,-4.3497,-4.3497,-4.3497,-4.3497,-4.3497,-4.3497,-4.3497,-4.3497,-4.3497,-4.3497,-4.3497,-4.3296,-4.2727,-4.1974,-4.1167,-4.0359,-3.9551,-3.8946,-3.8726,-3.8707,-3.8707,-3.8707,-3.8707,-3.8707,-3.8707,-3.8707,-3.8707,-3.8707,-3.8707,-3.8707,-3.8707,-3.8707,-3.8707,-3.8707,-3.79,-3.7092,-3.6303,-3.544,-3.4596,-3.3807,-3.3807,-3.3807,0.0,0.0,-3.3495,-3.6725,-3.8726,-4.0322,-4.1901,-4.2268,-4.2488,-4.3259,-4.3442,-4.3442,-4.3442,-4.3442,-4.3461,-4.3497,-4.4158,-4.4947,-4.5773,-4.6599,-4.6838,-4.6067,-4.592,-4.4672,0.0,-4.4121,-4.6599,-4.8122,-4.8269,-4.8306,-4.8306,-4.8306,-4.8306,-4.8306,-4.8306,-4.8306,-4.8306,-4.8306,-4.8306,-4.8306,-4.8306,-4.8306,-4.8306,-4.8306,-4.8306,-4.8306,-4.8306,-4.8306,-4.8306,-4.8306,-4.8306,-4.8306,-4.8306,-4.8306,-4.8306,-4.8306,-4.8306,-4.8306,-4.8306,-4.8288,-4.8269,-4.8269,-4.7737,-4.6929,-4.6104,-4.5333,-4.4544,-4.3718,-4.3497,-4.3497,-4.3497,-4.3497,-4.3497,-4.3497,-4.3497,-4.3497,-4.3497,-4.3497,-4.3497,-4.3497,-4.3497,-4.3479,-4.3461,-4.28,-4.1992,-4.1185,-4.0377,-3.957,-3.8799,-3.8707,-3.8707,-3.8707,-3.8707,-3.8707,-3.8707,-3.8707,-3.8707,-3.8707,-3.8707,-3.8707,-3.8707,-3.8707,-3.8707,-3.8707,-3.79,-3.7092,-3.6303,-3.544,-3.4596,-3.3807,-3.3807,-3.3807,0.0,0.0,-3.6486,-3.9221,-4.0708,-4.1772,-4.2837,-4.3094,-4.3167,-4.3424,-4.2653,-4.1919,-4.1919,-4.146,-4.1277,-4.1827,-4.258,-4.3773,-4.5645,-4.5681,-4.6012,-4.7333,-4.6085,0.0,0.0,0.0,0.0,-4.5149,-4.7095,-4.8306,-4.8306,-4.8306,-4.8306,-4.8306,-4.8306,-4.8306,-4.8306,-4.8306,-4.8306,-4.8306,-4.8306,-4.8306,-4.8306,-4.8306,-4.8306,-4.8306,-4.8306,-4.8306,-4.8306,-4.8306,-4.8306,-4.8306,-4.8306,-4.8306,-4.8306,-4.8306,-4.8306,-4.8306,-4.8306,-4.8306,-4.8306,-4.8306,-4.8122,-4.7755,-4.6948,-4.614,-4.5333,-4.4525,-4.3901,-4.3497,-4.3497,-4.3497,-4.3497,-4.3497,-4.3497,-4.3497,-4.3497,-4.3497,-4.3497,-4.3497,-4.3497,-4.3497,-4.3497,-4.2818,-4.1846,-4.0506,-3.9625,-3.9019,-3.8726,-3.8707,-3.8707,-3.8707,-3.8707,-3.8707,-3.8707,-3.8707,-3.8707,-3.8707,-3.8707,-3.8707,-3.8707,-3.8707,-3.8707,-3.8707,-3.8432,-3.7643,-3.6303,-3.6009,-3.5147,-3.3807,-3.3807,-3.3807,0.0,-3.6486,-3.8505,-4.0928,-4.2139,-4.2855,-4.3369,-4.3497,-4.3497,-4.3497,-4.2671,-4.1791,-4.1222,-4.0689,-4.0506,-4.1038,-4.1534,-4.2708,-4.5131,-4.5278,-4.5608,-4.6874,-4.5902,-4.5516,0.0,0.0,0.0,-4.4433,-4.6269,-4.7443,-4.7443,-4.7443,-4.7719,-4.8288,-4.8306,-4.8306,-4.8306,-4.8306,-4.8306,-4.8306,-4.8306,-4.8306,-4.8306,-4.8306,-4.7994,-4.748,-4.8049,-4.7976,-4.7498,-4.8067,-4.8306,-4.8306,-4.8306,-4.8306,-4.8306,-4.8306,-4.8306,-4.8306,-4.8306,-4.8306,-4.8306,-4.8306,-4.8306,-4.8159,-4.7352,-4.6746,-4.6104,-4.5021,-4.4323,-4.3864,-4.3552,-4.3497,-4.3497,-4.3497,-4.3497,-4.3497,-4.3497,-4.3497,-4.3497,-4.3497,-4.3497,-4.3497,-4.3497,-4.2598,-4.1534,-4.0487,-3.9405,-3.8707,-3.8707,-3.8707,-3.8707,-3.8707,-3.8707,-3.8707,-3.8707,-3.8707,-3.8707,-3.8707,-3.8707,-3.8707,-3.8707,-3.8707,-3.8707,-3.8707,-3.8707,-3.7918,-3.6303,-3.6303,-3.544,-3.3807,-3.3807,-3.3807,-3.6468,-3.8212,-3.9441,-4.1772,-4.2928,-4.3497,-4.3497,-4.3461,-4.3406,-4.3314,-4.3204,-4.2653,0.0,0.0,-4.0799,-4.0965,-4.0983,-4.1846,-4.4305,-4.5296,-4.5516,0.0,0.0,0.0,0.0,0.0,0.0,-4.5902,0.0,-4.6012,-4.6012,-4.6012,-4.6728,-4.8251,-4.8306,-4.8306,-4.8306,-4.8306,-4.8306,-4.8306,-4.8306,-4.8306,-4.8306,-4.8306,-4.748,-4.6104,-4.7645,-4.7443,-4.614,-4.7682,-4.8306,-4.8306,-4.8306,-4.8306,-4.8306,-4.8306,-4.8306,-4.8306,-4.8306,-4.8306,-4.8306,-4.8306,-4.8306,-4.8159,-4.7407,-4.715,-4.6783,-4.5204,-4.4745,-4.4525,-4.3699,-4.3497,-4.3497,-4.3497,-4.3497,-4.3497,-4.3497,-4.3497,-4.3497,-4.3497,-4.3497,-4.3497,-4.3497,-4.2176,-4.1111,-4.1111,-3.9735,-3.8707,-3.8707,-3.8707,-3.8707,-3.8707,-3.8707,-3.8707,-3.8707,-3.8707,-3.8707,-3.8707,-3.8707,-3.8707,-3.8707,-3.8707,-3.8707,-3.8707,-3.8707,-3.7918,-3.6303,-3.6303,-3.544,-3.3807,-3.3807,-3.3807,-3.779,-3.9863,-4.1662,-4.2892,-4.3332,-4.3497,-4.3497,-4.3039,-4.2268,-4.1056,-3.9386,-3.7808,0.0,0.0,0.0,-3.8909,-3.9313,0.0,-4.3369,-4.3975,0.0,0.0,0.0,-4.6874,-4.7058,-4.7462,0.0,0.0,-4.7021,-4.77,-4.77,-4.77,-4.7884,-4.8306,-4.8306,-4.8306,-4.8306,-4.8306,-4.8306,-4.8306,-4.8306,-4.8306,-4.8306,-4.8306,-4.8086,-4.7719,-4.8122,-4.8067,-4.7719,-4.8141,-4.8306,-4.8306,-4.8306,-4.8306,-4.8306,-4.8306,-4.8306,-4.8306,-4.8306,-4.8306,-4.8306,-4.8306,-4.8306,-4.8269,-4.8067,-4.759,-4.6911,-4.5883,-4.5168,-4.4525,-4.3699,-4.3497,-4.3497,-4.3497,-4.3497,-4.3497,-4.3497,-4.3497,-4.3497,-4.3497,-4.3497,-4.3497,-4.3497,-4.2176,-4.1111,-4.1111,-3.9735,-3.8707,-3.8707,-3.8707,-3.8707,-3.8707,-3.8707,-3.8707,-3.8707,-3.8707,-3.8707,-3.8707,-3.8707,-3.8707,-3.8707,-3.8707,-3.8707,-3.8707,-3.8707,-3.7918,-3.6303,-3.6303,-3.544,-3.3807,-3.3807,-3.3807,-3.9753,-4.1534,-4.2928,-4.3387,-4.3497,-4.3204,-4.2158,-4.157,-4.0689,-3.8707,-3.7514,0.0,0.0,0.0,0.0,0.0,0.0,0.0,-4.2561,-4.3571,-4.436,0.0,-4.6416,0.0,-4.8233,-4.8306,-4.7939,0.0,-4.715,-4.726,-4.726,-4.726,-4.7572,-4.8288,-4.8306,-4.8306,-4.8306,-4.8306,-4.8306,-4.8306,-4.8306,-4.8306,-4.8306,-4.8306,-4.7921,-4.7297,0.0,-4.7902,-4.7297,-4.8012,-4.8306,-4.8306,-4.8306,-4.8306,-4.8306,-4.8306,-4.8306,-4.8306,-4.8306,-4.8306,-4.8306,-4.8306,-4.8306,-4.8306,-4.8306,-4.7994,-4.7407,-4.6232,-4.5571,-4.4966,-4.3791,-4.3497,-4.3497,-4.3497,-4.3497,-4.3497,-4.3497,-4.3497,-4.3497,-4.3497,-4.3497,-4.3497,-4.3497,-4.2451,-4.1515,-4.1167,-4.0029,-3.9093,-3.8762,-3.8707,-3.8707,-3.8707,-3.8707,-3.8707,-3.8707,-3.8707,-3.8707,-3.8707,-3.8707,-3.8707,-3.8707,-3.8707,-3.8707,-3.8707,-3.8707,-3.7918,-3.6303,-3.6303,-3.544,-3.3807,-3.3807,-3.3807,-4.1699,-4.2892,-4.3497,-4.3497,-4.3406,-4.2782,-4.0689,-3.9882,-3.8909,-3.6597,0.0,-3.6431,-3.511,0.0,-3.6688,-3.8432,0.0,-3.9441,-4.1534,-4.3314,-4.4433,-4.4544,-4.5975,-4.7315,-4.8214,-4.8214,-4.8196,-4.8306,-4.7021,-4.6214,-4.6214,-4.6214,-4.6856,-4.8269,-4.8306,-4.8306,-4.8306,-4.8306,-4.8306,-4.8306,-4.8306,-4.8306,-4.8306,-4.8306,-4.7535,-4.6305,-4.77,0.0,-4.6324,-4.7719,-4.8306,-4.8306,-4.8306,-4.8306,-4.8306,-4.8306,-4.8306,-4.8306,-4.8306,-4.8306,-4.8306,-4.8306,-4.8306,-4.8306,-4.8306,-4.8233,-4.7829,-4.6324,-4.581,-4.5388,-4.3883,-4.3497,-4.3497,-4.3497,-4.3497,-4.3497,-4.3497,-4.3497,-4.3497,-4.3497,-4.3497,-4.3497,-4.3497,-4.2818,-4.2029,-4.124,-4.0414,-3.9606,-3.8799,-3.8707,-3.8707,-3.8707,-3.8707,-3.8707,-3.8707,-3.8707,-3.8707,-3.8707,-3.8707,-3.8707,-3.8707,-3.8707,-3.8707,-3.8707,-3.8707,-3.7918,-3.6303,-3.6303,-3.544,-3.3807,-3.3807,-3.3807,-4.2011,-4.2892,-4.3497,-4.3497,-4.3002,-4.2396,-4.1974,-3.9827,0.0,0.0,0.0,-3.3568,-3.3935,-3.4688,0.0,-3.8322,0.0,0.0,0.0,0.0,-4.2965,0.0,0.0,0.0,0.0,0.0,0.0,0.0,0.0,-4.7884,-4.7884,-4.7884,-4.8012,-4.8306,-4.8306,-4.8306,-4.8306,-4.8306,-4.8306,-4.8306,-4.8306,-4.8306,-4.8306,-4.8306,-4.8159,-4.7902,-4.8177,0.0,-4.7921,-4.8196,-4.8306,-4.8306,-4.8306,-4.8306,-4.8306,-4.8306,-4.8306,-4.8306,-4.8306,-4.8306,-4.8306,-4.8306,-4.8306,-4.8306,-4.8306,-4.7847,-4.7131,-4.6177,-4.5424,-4.469,-4.3736,-4.3497,-4.3497,-4.3497,-4.3497,-4.3497,-4.3497,-4.3497,-4.3497,-4.3497,-4.3497,-4.3497,-4.3497,-4.2818,-4.2029,-4.124,-4.0414,-3.9606,-3.8799,-3.8707,-3.8707,-3.8707,-3.8707,-3.8707,-3.8707,-3.8707,-3.8707,-3.8707,-3.8707,-3.8707,-3.8707,-3.8707,-3.8707,-3.8707,-3.8707,-3.7918,-3.6303,-3.6303,-3.544,-3.3807,-3.3807,-3.3807,-4.1589,-4.2561,-4.3387,-4.2983,-4.2598,-4.1625,-3.9093,0.0,0.0,0.0,0.0,-3.2082,-3.2467,0.0,0.0,0.0,0.0,0.0,0.0,0.0,0.0,0.0,0.0,0.0,0.0,0.0,0.0,0.0,0.0,-4.7865,-4.8288,-4.8306,-4.8306,-4.8306,-4.8306,-4.8306,-4.8306,-4.8306,-4.8306,-4.8306,-4.8306,-4.8306,-4.8306,-4.8306,-4.8306,-4.8306,-4.8306,0.0,-4.7131,-4.7957,-4.781,-4.7131,-4.7976,-4.8306,-4.8306,-4.8306,-4.8306,-4.8306,-4.8306,-4.8306,-4.8306,-4.8306,-4.8306,-4.8306,-4.8306,-4.7755,-4.6948,-4.6122,-4.5333,-4.4525,-4.3699,-4.3497,-4.3497,-4.3497,-4.3497,-4.3497,-4.3497,-4.3497,-4.3497,-4.3497,-4.3497,-4.3497,-4.3497,-4.3167,-4.2506,-4.1295,-4.0781,-4.0084,-3.8872,-3.8707,-3.8707,-3.8707,-3.8707,-3.8707,-3.8707,-3.8707,-3.8707,-3.8707,-3.8707,-3.8707,-3.8707,-3.8707,-3.8707,-3.8707,-3.8285,-3.7477,-3.6303,-3.5844,-3.5,-3.3807,-3.3807,-3.3807,-4.102,-4.2029,-4.2818,-4.2194,-4.1919,-4.0689,-3.6505,-3.51,0.0,0.0,-3.0522,-3.1494,-3.1843,0.0,0.0,0.0,0.0,0.0,0.0,0.0,0.0,0.0,0.0,0.0,0.0,0.0,0.0,0.0,0.0,0.0,-4.8269,-4.8306,-4.8306,-4.8306,-4.8306,-4.8306,-4.8306,-4.8306,-4.8306,-4.8306,-4.8306,-4.8306,-4.8306,-4.8306,-4.8306,-4.8306,-4.8306,0.0,0.0,-4.7645,-4.7352,-4.6067,-4.7682,-4.8306,-4.8306,-4.8306,-4.8306,-4.8306,-4.8306,-4.8306,-4.8306,-4.8306,-4.8306,-4.8269,-4.8104,-4.7498,-4.6691,-4.5865,-4.5057,-4.4305,-4.3644,-4.3497,-4.3497,-4.3497,-4.3497,-4.3497,-4.3497,-4.3497,-4.3497,-4.3497,-4.3497,-4.3497,-4.3497,-4.3497,-4.2947,-4.135,-4.1111,-4.0524,-3.8909,-3.8707,-3.8707,-3.8707,-3.8707,-3.8707,-3.8707,-3.8707,-3.8707,-3.8707,-3.8707,-3.8707,-3.8707,-3.8707,-3.8707,-3.8707,-3.79,-3.7092,-3.6303,-3.544,-3.4596,-3.3807,-3.3807,-3.3807,-4.0708,-4.1222,-4.1313,-4.124,-4.0671,-3.9606,-3.7698,0.0,0.0,0.0,-3.1292,-3.1843,-3.3311,-3.4945,0.0,0.0,0.0,0.0,0.0,0.0,0.0,0.0,0.0,0.0,0.0,0.0,0.0,0.0,0.0,0.0,-4.8306,-4.8306,-4.8306,-4.8306,-4.8306,-4.8306,-4.8306,-4.8306,-4.8306,-4.8306,-4.8306,-4.8306,-4.8306,-4.8306,-4.8306,-4.8306,-4.8306,0.0,0.0,-4.7645,-4.7352,-4.6067,-4.7682,-4.8306,-4.8306,-4.8306,-4.8306,-4.8306,-4.8306,-4.8306,-4.8306,-4.8306,-4.8306,-4.8159,-4.7443,-4.6654,-4.5847,-4.5039,-4.4232,-4.3589,-4.3516,-4.3497,-4.3497,-4.3497,-4.3497,-4.3497,-4.3497,-4.3497,-4.3497,-4.3497,-4.3497,-4.3497,-4.3497,-4.3497,-4.2947,-4.135,-4.1111,-4.0524,-3.8909,-3.8707,-3.8707,-3.8707,-3.8707,-3.8707,-3.8707,-3.8707,-3.8707,-3.8707,-3.8707,-3.8707,-3.8707,-3.8707,-3.8707,-3.8707,-3.79,-3.7092,-3.6303,-3.544,-3.4596,-3.3807,-3.3807,-3.3807,-3.8762,-3.9992,-4.0983,-4.0506,-4.0139,-3.9074,-3.5973,0.0,0.0,-3.0485,-3.0723,-3.1586,-3.2228,-3.3678,-3.533,0.0,0.0,0.0,0.0,0.0,0.0,0.0,0.0,0.0,0.0,0.0,0.0,0.0,0.0,0.0,-4.8251,-4.8306,-4.8306,-4.8306,-4.8306,-4.8306,-4.8306,-4.8306,-4.8306,-4.8306,-4.8306,-4.8306,-4.8306,-4.8306,-4.8306,-4.8306,-4.8306,0.0,0.0,-4.7241,-4.6783,-4.4709,-4.7297,-4.8306,-4.8306,-4.8306,-4.8306,-4.8306,-4.8306,-4.7994,-4.759,-4.759,-4.726,-4.6893,-4.7058,-4.6214,-4.5112,-4.48,-4.4121,-4.3497,-4.3497,-4.3497,-4.3497,-4.3497,-4.3497,-4.3497,-4.3497,-4.3497,-4.3497,-4.3497,-4.3497,-4.3497,-4.3497,-4.3497,-4.2947,-4.135,-4.1111,-4.0524,-3.8909,-3.8707,-3.8707,-3.8707,-3.8707,-3.8707,-3.8707,-3.8707,-3.8707,-3.8707,-3.8707,-3.8707,-3.8707,-3.8707,-3.8469,-3.7973,-3.7184,-3.6358,-3.5532,-3.4688,-3.4119,-3.3807,-3.3807,-3.3807,-3.7323,-3.8909,-4.0267,-3.968,-3.9368,-3.823,0.0,0.0,0.0,-2.9599,-3.0099,-3.1109,-3.1347,-3.2522,-3.4082,0.0,0.0,0.0,0.0,0.0,0.0,0.0,0.0,0.0,0.0,0.0,0.0,0.0,0.0,0.0,0.0,-4.8306,-4.8306,-4.8306,-4.8306,-4.8306,-4.8306,-4.8306,-4.8306,-4.8306,-4.8306,-4.8049,-4.7609,-4.8086,-4.8049,-4.7627,-4.8104,0.0,0.0,-4.7168,-4.6673,-4.447,-4.7241,-4.8306,-4.8306,-4.8306,-4.8159,-4.7957,-4.7957,-4.7425,-4.6709,-4.6539,-4.5953,-4.5387,-4.5781,-4.5219,-4.4401,-4.4181,-4.3814,-4.3497,-4.3497,-4.3497,-4.3497,-4.3497,-4.3497,-4.3444,-4.3286,-4.325,-4.325,-4.325,-4.325,-4.3321,-4.3479,-4.3296,-4.2671,-4.1313,-4.091,-4.0249,-3.8891,-3.8707,-3.8707,-3.8707,-3.8707,-3.8707,-3.8707,-3.8707,-3.8707,-3.8707,-3.8707,-3.8707,-3.8707,-3.8707,-3.8322,-3.7514,-3.6707,-3.5881,-3.499,-3.4192,-3.3807,-3.3807,-3.3807,-3.3807,-3.6817,-3.8102,-3.8726,-3.8726,-3.8102,-3.6853,0.0,0.0,0.0,-2.9489,-2.9659,-3.0467,-3.1237,-3.2063,-3.3421,-3.5899,-3.6285,0.0,0.0,0.0,0.0,0.0,0.0,0.0,0.0,0.0,0.0,0.0,0.0,0.0,0.0,-4.8306,-4.8306,-4.8306,-4.8306,-4.8306,-4.8306,-4.8306,-4.8306,-4.8306,-4.8306,-4.748,-4.5975,-4.7572,-4.7425,0.0,0.0,0.0,0.0,-4.7627,-4.7352,-4.603,-4.7682,-4.8306,-4.8306,-4.8306,-4.781,-4.7131,-4.7131,-4.6599,-4.581,-4.5298,-4.4556,-4.3826,-4.3237,-4.3465,-4.3743,-4.2928,-4.3105,-4.3497,-4.3497,-4.3497,-4.3497,-4.3497,-4.3497,-4.3375,-4.2826,-4.2711,-4.2711,-4.2711,-4.2711,-4.2864,-4.341,-4.2837,-4.2047,-4.124,-4.0414,-3.9625,-3.8799,-3.8707,-3.8707,-3.8707,-3.8707,-3.8707,-3.8707,-3.8707,-3.8707,-3.8707,-3.8707,-3.8707,-3.8707,-3.8707,-3.8322,-3.7514,-3.6707,-3.5881,-3.499,-3.4192,-3.3807,-3.3807,-3.3807,-3.3807,-3.3642,-3.4743,-3.5349,-3.5349,-3.5165,-3.4468,-3.2577,0.0,0.0,-2.936,-2.9641,-3.0283,-3.0522,-3.1696,-3.3238,-3.5128,-3.5422,0.0,0.0,0.0,0.0,0.0,0.0,0.0,0.0,0.0,0.0,0.0,0.0,0.0,0.0,-4.8306,-4.8306,-4.8306,-4.8306,-4.8306,-4.8306,-4.8306,-4.8306,-4.8306,-4.8306,-4.7462,-4.5957,-4.7572,-4.7425,0.0,0.0,0.0,0.0,-4.7645,-4.7352,-4.6067,-4.7682,-4.8306,-4.8233,-4.77,-4.7333,-4.704,-4.6471,-4.5755,-4.504,-4.4876,-4.4273,-4.3543,-4.2958,-4.2936,-4.3095,-4.3215,-4.3375,-4.3497,-4.3497,-4.3497,-4.3497,-4.3497,-4.3214,-4.2902,-4.275,-4.24,-4.2221,-4.2616,-4.2711,-4.2864,-4.341,-4.2818,-4.2029,-4.124,-4.0414,-3.9606,-3.8799,-3.8707,-3.8707,-3.8707,-3.8707,-3.8707,-3.8707,-3.8707,-3.8707,-3.8707,-3.8707,-3.8707,-3.8707,-3.8707,-3.8065,-3.6707,-3.6431,-3.5605,-3.4192,-3.3917,-3.3807,-3.3807,-3.3807,-3.3807,0.0,-3.3201,-3.3807,-3.3807,-3.3568,0.0,0.0,0.0,0.0,0.0,-2.9879,-3.0558,-3.0265,-3.1531,-3.2944,-3.3927,-3.5147,0.0,0.0,0.0,0.0,0.0,0.0,0.0,0.0,0.0,0.0,0.0,0.0,0.0,0.0,-4.8306,-4.8306,-4.8306,-4.8306,-4.8306,-4.8306,-4.8306,-4.8306,-4.8306,-4.8306,-4.7462,-4.5957,-4.7572,-4.7425,0.0,0.0,0.0,0.0,-4.7902,-4.7719,-4.6874,-4.7572,-4.7865,-4.7755,-4.6948,-4.6471,-4.614,-4.5626,-4.4929,-4.4215,-4.4017,-4.3451,-4.2828,-4.2732,-4.2711,-4.2732,-4.2828,-4.316,-4.3497,-4.3497,-4.3497,-4.3444,-4.325,-4.2939,-4.2577,-4.2121,-4.1895,-4.1895,-4.2302,-4.2519,-4.2864,-4.341,-4.258,-4.168,-4.1185,-4.0157,-3.9276,-3.8762,-3.8707,-3.8707,-3.8707,-3.8707,-3.8707,-3.8707,-3.8707,-3.8707,-3.8707,-3.8707,-3.8707,-3.8707,-3.8414,-3.7624,-3.6321,-3.5973,-3.5147,-3.3807,-3.3807,-3.3807,-3.3807,-3.3807,-3.3807,0.0,0.0,0.0,0.0,0.0,0.0,0.0,0.0,0.0,0.0,0.0,0.0,0.0,-3.1659,-3.2742,-3.2632,-3.5349,0.0,0.0,0.0,0.0,0.0,0.0,0.0,0.0,0.0,0.0,0.0,0.0,0.0,-4.8306,-4.8306,-4.8306,-4.8306,-4.8306,-4.8306,-4.8306,-4.8306,-4.8251,-4.8141,-4.8251,-4.7407,-4.5792,-4.7517,-4.7425,0.0,0.0,0.0,0.0,-4.8251,-4.8214,-4.8141,-4.7352,-4.7021,-4.6929,-4.6104,-4.5351,-4.4709,-4.4635,-4.4121,-4.341,-4.2902,-4.2382,-4.2021,-4.248,-4.2673,-4.2559,-4.2021,-4.2657,-4.3444,-4.341,-4.3356,-4.325,-4.2732,-4.2616,-4.2244,-4.1133,-4.1358,-4.175,-4.181,-4.2302,-4.2846,-4.3336,-4.2087,-4.106,-4.1038,-3.9667,-3.8676,-3.8707,-3.8707,-3.8707,-3.8707,-3.8707,-3.8707,-3.8707,-3.8707,-3.8707,-3.8707,-3.8707,-3.8707,-3.8707,-3.7918,-3.711,-3.6321,-3.5404,-3.4559,-3.3807,-3.3807,-3.3807,-3.3807,-3.3807,-3.3807,-2.9232,0.0,-3.0136,-3.0136,0.0,0.0,0.0,0.0,0.0,0.0,0.0,0.0,0.0,0.0,0.0,0.0,0.0,0.0,0.0,0.0,0.0,0.0,0.0,0.0,0.0,0.0,0.0,0.0,0.0,-4.8306,-4.8306,-4.8306,-4.8306,-4.8306,-4.8306,-4.8306,-4.8306,-4.8306,-4.7682,-4.6489,-4.7719,-4.6819,-4.4158,-4.7003,-4.7425,0.0,0.0,0.0,-4.8251,-4.7645,-4.7388,-4.7315,-4.6507,-4.6177,-4.6085,-4.5278,-4.4874,-4.4617,-4.3993,-4.3644,-4.3479,-4.3375,-4.3214,-4.2977,-4.2226,-4.2342,-4.2655,-4.2519,-4.2693,-4.277,-4.2324,-4.2185,-4.2185,-4.2021,-4.1664,-4.1268,-4.0949,-4.0995,-4.1268,-4.1707,-4.2302,-4.2665,-4.2603,-4.1428,-4.0431,-4.0217,-3.897,-3.8234,-3.8658,-3.8707,-3.8707,-3.8707,-3.8707,-3.8707,-3.8707,-3.8707,-3.8707,-3.8707,-3.8707,-3.8707,-3.8707,-3.7918,-3.711,-3.6321,-3.4835,-3.399,-3.3807,-3.3807,-3.3807,-3.3807,-3.3807,-3.3807,-2.8553,-2.8994,-2.9177,-2.9934,-2.9549,-2.92,0.0,0.0,0.0,0.0,0.0,0.0,0.0,0.0,0.0,0.0,0.0,0.0,0.0,0.0,0.0,0.0,0.0,0.0,0.0,0.0,0.0,0.0,0.0,-4.8306,-4.8306,-4.8306,-4.8306,-4.8306,-4.8306,-4.8306,-4.8306,-4.8306,-4.7498,-4.592,-4.7535,-4.7003,-4.469,-4.7168,-4.7627,0.0,0.0,0.0,-4.7113,-4.5938,-4.5883,-4.6471,-4.5663,-4.5351,-4.5259,-4.4452,-4.4158,-4.4085,-4.3644,-4.3497,-4.3444,-4.3214,-4.3124,-4.2976,-4.2062,-4.2021,-4.2203,-4.1937,-4.2062,-4.2262,-4.2221,-4.2203,-4.2203,-4.2203,-4.1979,-4.1664,-4.1358,-4.1534,-4.181,-4.2162,-4.2157,-4.2102,-4.194,-4.0726,-3.9696,-3.9537,-3.8809,-3.8382,-3.8658,-3.8707,-3.8707,-3.8707,-3.8707,-3.8707,-3.8707,-3.8707,-3.8707,-3.8707,-3.8707,-3.8524,-3.8157,-3.7367,-3.6376,-3.5183,-3.4266,-3.3807,-3.3807,-3.3807,-3.3807,-3.3807,-3.3807,-3.3807,-2.8411,-2.9017,-2.9549,-3.1017,-3.0191,-2.9439,0.0,0.0,0.0,0.0,0.0,0.0,0.0,0.0,0.0,0.0,0.0,0.0,0.0,0.0,0.0,0.0,0.0,0.0,0.0,0.0,0.0,0.0,0.0,-4.7939,-4.7939,-4.7939,-4.7939,-4.7939,-4.7939,-4.7939,-4.7939,-4.8177,-4.7443,-4.5736,-4.7352,-4.7223,-4.559,-4.7205,-4.7572,-4.6856,0.0,0.0,-4.5773,-4.4287,-4.4488,-4.5645,-4.4837,-4.449,-4.4327,-4.3701,-4.3444,-4.3375,-4.3375,-4.3375,-4.3286,-4.2732,-4.2559,-4.244,-4.1853,-4.1664,-4.1534,-4.0949,-4.1223,-4.175,-4.218,-4.2342,-4.244,-4.244,-4.248,-4.2422,-4.1895,-4.2114,-4.2379,-4.2379,-4.1827,-4.1251,-4.105,-3.995,-3.9065,-3.8939,-3.8718,-3.8627,-3.8707,-3.8707,-3.8658,-3.8596,-3.8658,-3.8676,-3.8578,-3.8658,-3.8707,-3.8707,-3.8579,-3.8102,-3.7147,-3.645,-3.5385,-3.3825,-3.3807,-3.3807,-3.3807,-3.3807,-3.3807,-3.3807,-3.3807,-3.3807,-2.7732,-2.898,-3.0246,-3.1164,-3.0191,-2.9439,0.0,0.0,0.0,0.0,0.0,0.0,0.0,0.0,0.0,0.0,0.0,0.0,0.0,0.0,0.0,0.0,0.0,0.0,0.0,0.0,0.0,0.0,0.0,0.0,-4.6269,-4.6269,-4.6269,-4.6269,-4.6269,-4.6269,-4.6269,-4.7627,-4.715,-4.4911,-4.6526,-4.6085,-4.392,-4.5535,-4.6195,-4.6067,0.0,-4.5792,-4.5828,-4.4911,-4.4672,-4.48,-4.3993,-4.3397,-4.3027,-4.3376,-4.3214,-4.2826,-4.2826,-4.2826,-4.2732,-4.2121,-4.1937,-4.1853,-4.1223,-4.1041,-4.0903,-4.0368,-4.0625,-4.0949,-4.0594,-4.0844,-4.1178,-4.1178,-4.1578,-4.1895,-4.181,-4.1363,-4.1024,-4.1024,-4.0697,-4.0148,-3.9053,-3.9013,-3.8885,-3.8182,-3.8052,-3.8183,-3.8627,-3.8707,-3.8546,-3.8065,-3.8433,-3.8515,-3.8065,-3.8433,-3.8707,-3.8707,-3.8046,-3.6982,-3.5459,-3.5275,-3.4761,-3.3825,-3.3807,-3.3807,-3.3807,-3.3807,-3.3807,-3.3807,-3.3807,-3.3807,-2.7585,-2.8668,-3.0063,-3.2173,-3.1494,-3.0962,0.0,0.0,0.0,0.0,0.0,0.0,0.0,0.0,0.0,0.0,0.0,0.0,0.0,0.0,0.0,0.0,0.0,0.0,0.0,0.0,0.0,0.0,0.0,0.0,-4.5902,-4.5902,-4.5902,-4.5902,-4.5902,-4.5902,-4.5902,-4.6636,-4.6012,-4.4066,-4.5681,-4.5424,-4.3534,-4.5168,-4.5663,-4.5204,0.0,-4.4195,-4.4507,-4.3277,-4.3277,-4.4011,-4.3626,-4.3339,-4.3142,-4.3087,-4.2902,-4.2655,-4.2342,-4.2203,-4.2121,-4.149,-4.1313,-4.1223,-4.0625,-4.0449,-4.0417,-4.0154,-4.0286,-4.0528,-4.0938,-4.1196,-4.1411,-4.1631,-4.1662,-4.1497,-4.1085,-4.0513,-4.0104,-4.0104,-3.9679,-3.9075,-3.849,-3.8438,-3.8308,-3.7966,-3.815,-3.8318,-3.8267,-3.8267,-3.8183,-3.7946,-3.8099,-3.83,-3.8332,-3.8546,-3.8505,-3.8065,-3.7294,-3.6285,-3.5045,-3.4568,-3.4192,-3.3807,-3.3807,-3.3807,-3.3807,-3.3807,-3.3807,-3.3807,-3.3807,-3.3807,-2.7346,-2.8374,-2.9934,-3.2577,0.0,0.0,0.0,0.0,0.0,0.0,0.0,0.0,0.0,0.0,0.0,0.0,0.0,0.0,0.0,0.0,0.0,0.0,0.0,0.0,0.0,0.0,0.0,0.0,0.0,0.0,-4.5333,-4.5333,-4.5333,-4.5333,-4.5333,-4.5333,-4.5333,-4.5333,-4.48,-4.3791,-4.5039,-4.4874,-4.3534,-4.4782,-4.5002,-4.436,-4.3112,-4.2928,-4.3387,-4.2176,-4.2396,-4.3497,-4.3497,-4.341,-4.325,-4.2541,-4.2382,-4.2382,-4.181,-4.1578,-4.149,-4.092,-4.0685,-4.0655,-4.0204,-3.9952,-3.9817,-3.9817,-3.9698,-3.9827,-4.0854,-4.1104,-4.1144,-4.1414,-4.1252,-4.0885,-4.0273,-3.9626,-3.9146,-3.9146,-3.8567,-3.8093,-3.7958,-3.8026,-3.8047,-3.7911,-3.8267,-3.8382,-3.7946,-3.7893,-3.7859,-3.7755,-3.7946,-3.8194,-3.8401,-3.8414,-3.7943,-3.6826,-3.6263,-3.5624,-3.4761,-3.4137,-3.3807,-3.3807,-3.3807,-3.3807,-3.3807,-3.3807,-3.3807,-3.3807,-3.3807,-3.3807,-2.6667,-2.8374,-3.0356,-3.1329,0.0,0.0,0.0,0.0,0.0,0.0,0.0,0.0,0.0,0.0,0.0,0.0,0.0,0.0,0.0,0.0,0.0,0.0,0.0,0.0,0.0,0.0,0.0,0.0,0.0,0.0,-4.3663,-4.3663,-4.3663,-4.3663,-4.3663,-4.3663,-4.3663,-4.3663,-4.3993,-4.4635,-4.4745,-4.4323,-4.3497,-4.3608,-4.3626,-4.3571,-4.3442,-4.3442,-4.3479,-4.3369,-4.3387,-4.3497,-4.3497,-4.3214,-4.2616,-4.1446,-4.1402,-4.1768,-4.1161,-4.0949,-4.0874,-4.0336,-4.0171,-4.0171,-4.0121,-3.9597,-3.9073,-3.9073,-3.8582,-3.821,-3.9016,-3.9078,-3.8921,-3.8938,-3.9359,-3.9722,-3.9669,-3.8643,-3.7739,-3.7739,-3.7479,-3.7108,-3.6609,-3.7703,-3.8465,-3.798,-3.7928,-3.7946,-3.7893,-3.7893,-3.772,-3.7285,-3.8101,-3.8365,-3.7643,-3.7569,-3.6753,-3.4757,-3.4929,-3.4743,-3.3917,-3.3825,-3.3807,-3.3807,-3.3807,-3.3807,-3.3807,-3.3807,-3.3807,-3.3807,-3.3807,-3.3807,-2.6612,-2.8007,-3.0026,-3.232,0.0,0.0,0.0,0.0,0.0,0.0,0.0,0.0,0.0,0.0,0.0,0.0,0.0,0.0,0.0,0.0,0.0,0.0,0.0,0.0,0.0,0.0,0.0,0.0,0.0,0.0,-4.3497,-4.3497,-4.3497,-4.3497,-4.3497,-4.3497,-4.3497,-4.3497,-4.3644,-4.3956,-4.3956,-4.3791,-4.3497,-4.3497,-4.3497,-4.3497,-4.3497,-4.3497,-4.3479,-4.3142,-4.3014,-4.2976,-4.258,-4.2324,-4.2021,-4.1223,-4.1041,-4.1178,-4.0577,-4.0417,-4.0283,-3.9628,-3.9411,-3.9326,-3.887,-3.8531,-3.8328,-3.8328,-3.7787,-3.7441,-3.854,-3.876,-3.866,-3.8526,-3.8444,-3.8198,-3.7726,-3.7206,-3.6832,-3.6832,-3.7291,-3.747,-3.6981,-3.7614,-3.8032,-3.7542,-3.747,-3.747,-3.747,-3.747,-3.7506,-3.7614,-3.8267,-3.8266,-3.7139,-3.6612,-3.5643,-3.4074,-3.4618,-3.4521,-3.3455,-3.368,-3.3807,-3.3807,-3.3807,-3.3807,-3.3807,-3.3807,-3.3807,-3.3807,-3.3807,-3.3807,-2.6612,-2.7787,-2.9635,0.0,0.0,0.0,0.0,0.0,0.0,0.0,0.0,0.0,0.0,0.0,0.0,0.0,0.0,0.0,0.0,0.0,0.0,0.0,0.0,0.0,0.0,0.0,0.0,0.0,0.0,0.0,0.0,-4.3497,-4.3497,-4.3497,-4.3497,-4.341,-4.325,-4.325,-4.316,-4.2977,-4.2977,-4.3142,-4.3497,-4.3497,-4.341,-4.325,-4.325,-4.3124,-4.294,-4.2559,-4.244,-4.2342,-4.175,-4.1534,-4.1446,-4.0874,-4.0655,-4.0542,-3.9932,-3.9732,-3.9614,-3.8886,-3.865,-3.8565,-3.8058,-3.7736,-3.755,-3.755,-3.7009,-3.6593,-3.7487,-3.774,-3.7689,-3.755,-3.722,-3.6844,-3.6242,-3.6266,-3.6333,-3.6182,-3.6981,-3.7542,-3.702,-3.736,-3.7578,-3.7248,-3.7076,-3.6999,-3.719,-3.719,-3.736,-3.7859,-3.7998,-3.7576,-3.6281,-3.5439,-3.4467,-3.3195,-3.3929,-3.4076,-3.3232,-3.3578,-3.3807,-3.3807,-3.3807,-3.3807,-3.3807,-3.3807,-3.3807,-3.3807,-3.3807,-3.3734,-2.6631,-2.7805,0.0,0.0,0.0,0.0,0.0,0.0,0.0,0.0,0.0,0.0,0.0,0.0,0.0,0.0,0.0,0.0,0.0,0.0,0.0,0.0,0.0,0.0,0.0,0.0,0.0,0.0,0.0,0.0,0.0,-4.3497,-4.3497,-4.3497,-4.3497,-4.325,-4.2711,-4.2693,-4.2382,-4.181,-4.181,-4.2386,-4.3479,-4.3479,-4.3214,-4.2711,-4.2711,-4.2342,-4.181,-4.1793,-4.181,-4.1707,-4.1133,-4.0903,-4.0827,-4.0269,-4.007,-3.9969,-3.9242,-3.8988,-3.887,-3.8125,-3.7889,-3.7889,-3.7889,-3.7364,-3.6772,-3.6772,-3.6214,-3.5622,-3.5622,-3.5622,-3.5622,-3.5622,-3.5622,-3.5622,-3.5622,-3.6028,-3.6249,-3.5694,-3.6481,-3.7038,-3.6498,-3.6843,-3.7173,-3.719,-3.6724,-3.658,-3.7097,-3.719,-3.7396,-3.7825,-3.7241,-3.6263,-3.4889,-3.4127,-3.3142,-3.186,-3.2663,-3.3184,-3.3184,-3.3578,-3.3807,-3.3807,-3.3807,-3.3807,-3.3807,-3.3807,-3.3807,-3.3807,-3.3807,-3.3578,-2.7967,0.0,0.0,0.0,0.0,0.0,0.0,0.0,0.0,0.0,0.0,0.0,0.0,0.0,0.0,0.0,0.0,0.0,0.0,0.0,0.0,0.0,0.0,0.0,0.0,0.0,0.0,0.0,0.0,0.0,0.0,-4.3497,-4.3497,-4.3497,-4.3124,-4.2864,-4.2711,-4.2302,-4.1979,-4.181,-4.181,-4.1979,-4.2306,-4.2306,-4.2226,-4.208,-4.208,-4.1979,-4.1768,-4.1358,-4.092,-4.0611,-4.0417,-4.0336,-4.0268,-3.9595,-3.9326,-3.9208,-3.8481,-3.8227,-3.8108,-3.7364,-3.711,-3.7009,-3.6468,-3.6146,-3.596,-3.596,-3.5791,-3.5622,-3.5622,-3.5622,-3.5622,-3.5622,-3.5622,-3.5622,-3.5622,-3.6028,-3.6333,-3.6182,-3.6724,-3.7038,-3.6498,-3.6539,-3.6522,-3.6122,-3.5941,-3.6011,-3.658,-3.723,-3.7614,-3.7433,-3.672,-3.574,-3.4486,-3.3717,-3.273,-3.1462,-3.2213,-3.2713,-3.2713,-3.3419,-3.3807,-3.3807,-3.3807,-3.3807,-3.3807,-3.3522,-3.3522,-3.3788,-3.3522,-3.3465,-2.8645,0.0,0.0,0.0,0.0,0.0,0.0,0.0,0.0,0.0,0.0,0.0,0.0,0.0,0.0,0.0,0.0,0.0,0.0,0.0,0.0,0.0,0.0,0.0,0.0,0.0,0.0,0.0,0.0,0.0,0.0,-4.2837,-4.302,-4.302,-4.2813,-4.2559,-4.2342,-4.175,-4.1331,-4.1105,-4.1105,-4.1105,-4.1168,-4.1578,-4.1664,-4.1446,-4.1241,-4.1105,-4.1122,-4.0703,-4.0246,-3.9648,-3.9648,-3.9462,-3.9157,-3.8717,-3.8565,-3.8464,-3.7719,-3.7449,-3.733,-3.6569,-3.6315,-3.6231,-3.5757,-3.5622,-3.5622,-3.5622,-3.5622,-3.5622,-3.5622,-3.5622,-3.5622,-3.5622,-3.5622,-3.5622,-3.5622,-3.6028,-3.635,-3.6139,-3.6539,-3.6724,-3.6165,-3.6097,-3.5985,-3.5667,-3.5783,-3.6011,-3.6333,-3.7135,-3.7308,-3.652,-3.5744,-3.4801,-3.3532,-3.2792,-3.2021,-3.1263,-3.2021,-3.2417,-3.223,-3.3237,-3.3807,-3.3807,-3.3634,-3.355,-3.355,-3.3136,-3.3045,-3.3284,-3.3243,-3.3243,0.0,0.0,0.0,0.0,0.0,0.0,0.0,0.0,0.0,0.0,0.0,0.0,0.0,0.0,0.0,0.0,0.0,0.0,0.0,0.0,0.0,0.0,0.0,0.0,0.0,0.0,0.0,0.0,0.0,0.0,0.0,-4.1791,-4.2194,-4.2194,-4.2377,-4.2167,-4.1598,-4.1014,-4.0401,-3.9884,-3.9884,-3.9884,-3.9935,-4.1098,-4.1323,-4.0723,-4.0165,-3.9884,-3.9884,-3.9884,-3.9495,-3.8903,-3.8903,-3.8481,-3.7889,-3.7821,-3.7804,-3.7702,-3.6941,-3.6671,-3.6552,-3.5859,-3.5622,-3.5622,-3.5622,-3.5622,-3.5622,-3.5622,-3.5622,-3.5622,-3.5622,-3.5622,-3.5622,-3.5622,-3.5622,-3.5622,-3.5622,-3.5968,-3.6182,-3.5694,-3.5968,-3.6182,-3.5694,-3.5622,-3.5622,-3.5622,-3.6071,-3.6374,-3.6333,-3.6803,-3.6661,-3.5342,-3.4575,-3.3618,-3.2422,-3.1613,-3.119,-3.119,-3.1986,-3.223,-3.1825,-3.3039,-3.3734,-3.3662,-3.3332,-3.3154,-3.3154,-3.2681,-3.2451,-3.2517,-3.2952,-3.2921,0.0,0.0,0.0,0.0,0.0,0.0,0.0,0.0,0.0,0.0,0.0,0.0,0.0,0.0,0.0,0.0,0.0,0.0,0.0,0.0,0.0,0.0,0.0,0.0,0.0,0.0,0.0,0.0,0.0,0.0,-4.1079,-4.1277,-4.1368,-4.1368,-4.0944,-4.05,-3.9987,-3.9382,-3.8872,0.0,-3.8379,-3.8379,-3.8413,-3.9808,-4.0061,-3.9353,-3.8647,-3.8379,-3.8379,-3.8379,-3.8278,-3.8142,-3.8142,-3.8041,-3.7838,-3.7246,-3.7026,-3.6907,-3.6129,-3.5876,-3.5842,-3.5673,-3.5622,-3.5622,-3.5622,-3.5622,-3.5622,-3.5622,-3.5622,-3.5622,-3.5622,-3.5622,-3.5622,-3.5622,-3.5622,-3.5622,-3.5622,-3.5694,-3.5739,-3.5622,-3.5694,-3.5739,-3.5622,-3.5622,-3.5622,-3.5622,-3.6071,-3.6266,-3.5827,-3.6249,-3.608,-3.4815,-3.3998,-3.3209,-3.2381,-3.1613,-3.119,-3.119,-3.1677,-3.1933,-3.1808,-3.2791,-3.3166,-3.2777,-3.2681,-3.2648,-3.2648,-3.2161,-3.2127,-3.2517,-3.2616,-3.2777,0.0,0.0,0.0,0.0,0.0,0.0,0.0,0.0,0.0,0.0,0.0,0.0,0.0,0.0,0.0,0.0,0.0,0.0,0.0,0.0,0.0,0.0,0.0,0.0,0.0,0.0,0.0,0.0,0.0,-3.8923,-3.921,-3.9625,-3.9788,-3.9788,-3.9611,-3.9376,-3.9105,-3.8553,-3.812,-3.7905,-3.7905,-3.7905,-3.7939,-3.87,-3.8836,-3.8447,-3.8075,-3.7905,-3.7905,-3.7905,-3.7702,-3.7364,-3.7364,-3.7144,-3.6772,-3.6366,-3.6231,-3.6163,-3.5757,-3.5622,-3.5622,-3.5622,-3.5622,-3.5622,-3.5622,-3.5622,-3.5622,-3.5622,-3.5622,-3.5622,-3.5622,-3.5622,-3.5622,-3.5622,-3.5622,-3.5622,-3.5622,-3.5622,-3.5622,-3.5622,-3.5622,-3.5622,-3.5622,-3.5622,-3.5622,-3.5622,-3.5854,-3.5898,-3.5622,-3.5547,-3.5104,-3.4092,-3.3305,-3.256,-3.1833,-3.141,-3.119,-3.119,-3.1565,-3.1716,-3.1507,-3.2179,-3.2533,-3.2484,-3.2282,-3.2282,-3.2484,-3.2022,-3.2022,-3.2517,-3.2713,-3.2983,0.0,0.0,0.0,0.0,0.0,0.0,0.0,0.0,0.0,0.0,0.0,0.0,0.0,0.0,0.0,0.0,0.0,0.0,0.0,0.0,0.0,0.0,0.0,0.0,0.0,0.0,0.0,0.0,0.0,-3.7097,-3.719,-3.7831,-3.8185,-3.8185,-3.8345,-3.8382,-3.8296,-3.7849,-3.7594,-3.7516,-3.7516,-3.7516,-3.7516,-3.7516,-3.7584,-3.7702,-3.7567,-3.7516,-3.7516,-3.7516,-3.7144,-3.6586,-3.6586,-3.618,-3.5622,-3.5622,-3.5622,-3.5622,-3.5622,-3.5622,-3.5622,-3.5622,-3.5622,-3.5622,-3.5622,-3.5622,-3.5622,-3.5622,-3.5622,-3.5622,-3.5622,-3.5622,-3.5622,-3.5622,-3.5622,-3.5622,-3.5622,-3.5622,-3.5622,-3.5622,-3.5622,-3.5622,-3.5622,-3.5622,-3.5622,-3.5622,-3.5622,-3.5622,-3.5622,-3.4962,-3.4218,-3.3491,-3.273,-3.1985,-3.1258,-3.119,-3.119,-3.119,-3.1507,-3.1545,-3.123,-3.1507,-3.1861,-3.2248,-3.1968,-3.1986,-3.2384,-3.2057,-3.2127,-3.2517,-3.2983,-3.3214,0.0,0.0,0.0,0.0,0.0,0.0,0.0,0.0,0.0,0.0,0.0,0.0,0.0,0.0,0.0,0.0,0.0,0.0,0.0,0.0,0.0,0.0,0.0,0.0,0.0,0.0,0.0,0.0,-3.6498,-3.6724,-3.719,-3.7317,-3.737,-3.737,-3.74,-3.718,-3.671,-3.6644,-3.6362,-3.5926,-3.5926,-3.5926,-3.5926,-3.5926,-3.6299,-3.6891,-3.6214,-3.5926,-3.5926,-3.5926,-3.5876,-3.5774,-3.5774,-3.5707,-3.5622,-3.5622,-3.5622,-3.5622,-3.5622,-3.5622,-3.5622,-3.5622,-3.5622,-3.5622,-3.5622,-3.5622,-3.5622,-3.5622,-3.5622,-3.5622,-3.5622,-3.5622,-3.5622,-3.5622,-3.5622,-3.5622,-3.5622,-3.5622,-3.5622,-3.5622,-3.5622,-3.5622,-3.5622,-3.5622,-3.5622,-3.5622,-3.5622,-3.5622,-3.5622,-3.4962,-3.4218,-3.3491,-3.273,-3.1985,-3.1258,-3.119,-3.119,-3.119,-3.1252,-3.1269,-3.119,-3.1252,-3.1329,-3.1351,-3.166,-3.1825,-3.188,-3.223,-3.2451,-3.2517,-3.2983,-3.3214,0.0,0.0,0.0,0.0,0.0,0.0,0.0,0.0,0.0,0.0,0.0,0.0,0.0,0.0,0.0,0.0,0.0,0.0,0.0,0.0,0.0,0.0,0.0,0.0,0.0,0.0,0.0,0.0,-3.5941,-3.6054,-3.6291,-3.6274,-3.6274,-3.6274,-3.6274,-3.6207,-3.5941,-3.5941,-3.581,-3.5622,-3.5622,-3.5622,-3.5622,-3.5622,-3.5808,-3.6113,-3.5774,-3.5622,-3.5622,-3.5622,-3.5622,-3.5622,-3.5622,-3.5622,-3.5622,-3.5622,-3.5622,-3.5622,-3.5622,-3.5622,-3.5622,-3.5622,-3.5622,-3.5622,-3.5622,-3.5622,-3.5622,-3.5622,-3.5622,-3.5622,-3.5622,-3.5622,-3.5622,-3.5622,-3.5622,-3.5622,-3.5622,-3.5622,-3.5622,-3.5622,-3.5622,-3.5622,-3.5622,-3.5622,-3.5622,-3.5622,-3.5622,-3.547,-3.5047,-3.4336,-3.3592,-3.2848,-3.2104,-3.1546,-3.1224,-3.119,-3.119,-3.119,-3.119,-3.119,-3.119,-3.119,-3.1329,-3.1545,-3.1733,-3.1915,-3.2196,-3.2681,-3.3014,-3.3225,-3.3447,-3.3437,0.0,0.0,0.0,0.0,0.0,0.0,0.0,0.0,0.0,0.0,0.0,0.0,0.0,0.0,0.0,0.0,0.0,0.0,0.0,0.0,0.0,0.0,0.0,0.0,0.0,0.0,0.0,0.0,-3.5622,-3.5622,-3.5622,-3.5622,-3.5622,-3.5622,-3.5622,-3.5622,-3.5622,-3.5622,-3.5622,-3.5622,-3.5622,-3.5622,-3.5622,-3.5622,-3.5622,-3.5622,-3.5622,-3.5622,-3.5622,-3.5622,-3.5622,-3.5622,-3.5622,-3.5622,-3.5622,-3.5622,-3.5622,-3.5622,-3.5622,-3.5622,-3.5622,-3.5622,-3.5622,-3.5622,-3.5622,-3.5622,-3.5622,-3.5622,-3.5622,-3.5622,-3.5622,-3.5622,-3.5622,-3.5622,-3.5622,-3.5622,-3.5622,-3.5622,-3.5622,-3.5622,-3.5622,-3.5622,-3.5622,-3.5453,-3.5334,-3.5334,-3.5182,-3.4844,-3.4286,-3.3575,-3.2899,-3.2341,-3.163,-3.119,-3.119,-3.119,-3.119,-3.119,-3.119,-3.119,-3.119,-3.119,-3.1351,-3.1623,-3.1752,-3.2092,-3.2681,-3.3136,-3.3447,-3.3652,-3.3652,-3.3419,0.0,0.0,0.0,0.0,0.0,0.0,0.0,0.0,0.0,0.0,0.0,0.0,0.0,0.0,0.0,0.0,0.0,0.0,0.0,0.0,0.0,0.0,0.0,0.0,0.0,0.0,0.0,0.0,-3.5622,-3.5622,-3.5622,-3.5622,-3.5622,-3.5622,-3.5622,-3.5622,-3.5622,-3.5622,-3.5622,-3.5622,-3.5622,-3.5622,-3.5622,-3.5622,-3.5622,-3.5622,-3.5622,-3.5622,-3.5622,-3.5622,-3.5622,-3.5622,-3.5622,-3.5622,-3.5622,-3.5622,-3.5622,-3.5622,-3.5622,-3.5622,-3.5622,-3.5622,-3.5622,-3.5622,-3.5622,-3.5622,-3.5622,-3.5622,-3.5622,-3.5622,-3.5622,-3.5622,-3.5622,-3.5622,-3.5622,-3.5622,-3.5622,-3.5622,-3.5622,-3.5622,-3.5622,-3.5622,-3.5622,-3.503,-3.4556,-3.4556,-3.3964,-3.3508,-3.3457,-3.2797,-3.2324,-3.2313,-3.163,-3.119,-3.119,-3.119,-3.119,-3.119,-3.119,-3.119,-3.119,-3.119,-3.119,-3.123,-3.1603,-3.2264,-3.3154,-3.3578,-3.3578,-3.3243,-3.3243,-3.2983,0.0,0.0,0.0,0.0,0.0,0.0,0.0,0.0,0.0,0.0,0.0,0.0,0.0,0.0,0.0,0.0,0.0,0.0,0.0,0.0,0.0,0.0,0.0,0.0,0.0,0.0,0.0,0.0,0.0,-3.41,-3.5537,-3.4252,-3.4134,-3.5571,-3.5622,-3.5622,-3.5622,-3.5622,-3.5622,-3.5622,-3.5622,-3.5622,-3.5622,-3.5622,-3.5622,-3.5622,-3.5622,-3.5622,-3.5622,-3.5622,-3.5622,-3.5622,-3.5622,-3.5622,-3.5622,-3.5622,-3.5622,-3.5622,-3.5622,-3.5622,-3.5622,-3.5622,-3.5622,-3.5622,-3.5622,-3.5622,-3.5622,-3.5622,-3.5622,-3.5622,-3.5622,-3.5622,-3.5622,-3.5622,-3.5622,-3.5622,-3.5622,-3.5622,-3.5622,-3.5622,-3.5233,-3.4895,-3.4895,-3.4286,-3.3795,-3.3795,-3.3575,-3.3237,-3.2747,-3.2442,-3.2104,-3.163,-3.136,-3.119,-3.119,-3.119,-3.119,-3.119,-3.119,-3.119,-3.119,-3.119,-3.1312,-3.1565,-3.1733,-3.1951,-3.2298,-3.2759,-3.2903,-3.2745,-3.2745,-3.2517,0.0,0.0,0.0,0.0,0.0,0.0,0.0,0.0,0.0,0.0,0.0,0.0,0.0,0.0,0.0,0.0,0.0,0.0,0.0,0.0,0.0,0.0,0.0,0.0,0.0,0.0,0.0,0.0,0.0,0.0,-3.5537,-3.4218,-3.4083,-3.5571,-3.5622,-3.5622,-3.5622,-3.5622,-3.5622,-3.5622,-3.5368,-3.525,-3.5233,-3.4979,-3.4878,-3.4878,-3.4878,-3.5165,-3.5622,-3.5622,-3.5622,-3.5622,-3.5622,-3.5622,-3.5622,-3.5622,-3.5622,-3.5622,-3.5622,-3.5622,-3.5622,-3.5622,-3.5622,-3.5622,-3.5622,-3.5622,-3.5622,-3.5622,-3.5622,-3.5622,-3.5622,-3.5622,-3.5622,-3.5622,-3.5419,-3.525,-3.525,-3.525,-3.525,-3.525,-3.4641,-3.4134,-3.4134,-3.3525,-3.3034,-3.3034,-3.2814,-3.2476,-3.1985,-3.1918,-3.1732,-3.1241,-3.119,-3.119,-3.119,-3.119,-3.119,-3.119,-3.119,-3.119,-3.119,-3.119,-3.1329,-3.1603,-3.1603,-3.1603,-3.1603,-3.2213,-3.2417,-3.2282,-3.2282,-3.2092,0.0,0.0,0.0,0.0,0.0,0.0,0.0,0.0,0.0,0.0,0.0,0.0,0.0,0.0,0.0,0.0,0.0,0.0,0.0,0.0,0.0,0.0,0.0,0.0,0.0,0.0,0.0,0.0,-3.5554,-3.5554,-3.5622,-3.5622,-3.5622,-3.5622,-3.5605,-3.5588,-3.5588,-3.5571,-3.5554,-3.5554,-3.481,-3.4455,-3.4438,-3.3728,-3.3406,-3.3406,-3.3406,-3.4218,-3.5554,-3.5554,-3.5554,-3.5554,-3.5554,-3.5554,-3.5554,-3.5554,-3.5554,-3.5554,-3.5554,-3.5554,-3.5554,-3.5554,-3.5571,-3.5588,-3.5588,-3.5605,-3.5622,-3.5622,-3.5622,-3.5622,-3.5622,-3.5605,-3.5588,-3.5588,-3.5013,-3.4455,-3.4455,-3.4438,-3.4438,-3.4455,-3.388,-3.3372,-3.3372,-3.2747,-3.2297,-3.2297,-3.1647,-3.119,-3.119,-3.119,-3.119,-3.119,-3.119,-3.119,-3.119,-3.119,-3.119,-3.119,-3.119,-3.119,-3.119,-3.119,-3.119,-3.119,-3.119,-3.119,-3.119,-3.2056,-3.2248,-3.1789,-3.1771,-3.1789,-2.3128,0.0,0.0,0.0,0.0,0.0,0.0,0.0,0.0,0.0,0.0,0.0,0.0,0.0,0.0,0.0,0.0,0.0,0.0,0.0,0.0,0.0,0.0,0.0,0.0,0.0,0.0,0.0,-3.4117,-3.3914,-3.5537,-3.5622,-3.5622,-3.5622,-3.5081,-3.4793,-3.4793,-3.4286,-3.4015,-3.4015,-3.3812,-3.3711,-3.3694,-3.3491,-3.3406,-3.3406,-3.3406,-3.3643,-3.4015,-3.4015,-3.4015,-3.4015,-3.4015,-3.4015,-3.4015,-3.4015,-3.4015,-3.4015,-3.4015,-3.4015,-3.4015,-3.4015,-3.437,-3.4793,-3.4793,-3.5182,-3.5622,-3.5622,-3.5622,-3.5622,-3.5622,-3.5216,-3.4793,-3.4793,-3.4235,-3.3711,-3.3711,-3.3288,-3.3051,-3.3592,-3.3102,-3.2594,-3.2594,-3.1985,-3.1495,-3.1495,-3.1326,-3.119,-3.119,-3.119,-3.119,-3.119,-3.119,-3.119,-3.119,-3.119,-3.119,-3.119,-3.119,-3.119,-3.119,-3.119,-3.119,-3.119,-3.119,-3.119,-3.119,-3.1428,-3.1487,-3.1389,-3.166,-3.1789,0.0,0.0,0.0,0.0,0.0,0.0,-2.323,-2.5221,0.0,0.0,0.0,0.0,0.0,0.0,0.0,0.0,0.0,0.0,0.0,0.0,0.0,0.0,0.0,0.0,0.0,-3.5622,-3.5622,-3.5622,-3.4421,-3.4117,-3.5098,-3.4861,-3.4692,-3.4692,-3.4269,-3.4032,-3.4032,-3.3609,-3.3406,-3.3406,-3.3085,-3.2933,-3.2933,-3.2611,-3.2476,-3.2476,-3.2476,-3.2476,-3.2476,-3.2476,-3.2848,-3.3406,-3.3406,-3.3406,-3.3406,-3.3406,-3.3406,-3.3406,-3.3406,-3.3406,-3.3406,-3.3406,-3.3694,-3.4032,-3.4032,-3.4353,-3.4692,-3.4692,-3.4692,-3.4692,-3.4692,-3.437,-3.4032,-3.4032,-3.3474,-3.2933,-3.2933,-3.2357,-3.2053,-3.2797,-3.2341,-3.1833,-3.1833,-3.1478,-3.119,-3.119,-3.119,-3.119,-3.119,-3.119,-3.119,-3.119,-3.119,-3.119,-3.119,-3.119,-3.119,-3.119,-3.119,-3.119,-3.119,-3.119,-3.119,-3.119,-3.119,-3.119,-3.119,-3.119,-3.119,-3.119,-3.1449,-3.1623,0.0,0.0,0.0,0.0,0.0,0.0,-2.231,-2.5389,-2.8315,0.0,0.0,0.0,0.0,0.0,0.0,0.0,0.0,0.0,0.0,0.0,0.0,0.0,0.0,0.0,-3.5504,-3.5419,-3.5385,-3.5385,-3.5385,-3.5081,-3.4404,-3.3761,-3.3406,-3.3406,-3.3322,-3.3288,-3.3288,-3.3203,-3.3169,-3.3152,-3.2476,-3.2195,-3.2178,-3.1495,-3.119,-3.119,-3.119,-3.119,-3.119,-3.119,-3.1968,-3.3169,-3.3169,-3.3169,-3.3169,-3.3169,-3.3169,-3.3169,-3.3169,-3.3169,-3.3169,-3.3169,-3.322,-3.3288,-3.3288,-3.3339,-3.3406,-3.3406,-3.3406,-3.3406,-3.3406,-3.3339,-3.3288,-3.3288,-3.2696,-3.2195,-3.2195,-3.1647,-3.1376,-3.2036,-3.163,-3.119,-3.119,-3.119,-3.119,-3.119,-3.119,-3.119,-3.119,-3.119,-3.119,-3.119,-3.119,-3.119,-3.119,-3.119,-3.119,-3.119,-3.119,-3.119,-3.119,-3.119,-3.119,-3.119,-3.119,-3.119,-3.119,-3.119,-3.123,-3.1252,-3.1252,-3.1449,0.0,0.0,0.0,0.0,0.0,0.0,-2.231,-2.2987,-2.412,0.0,0.0,0.0,0.0,0.0,0.0,0.0,0.0,0.0,0.0,0.0,0.0,0.0,0.0,0.0,-3.4709,-3.4184,-3.3846,-3.3846,-3.3846,-3.3778,-3.3626,-3.3491,-3.3406,-3.3406,-3.2814,-3.2493,-3.2493,-3.1918,-3.163,-3.163,-3.1478,-3.141,-3.1393,-3.1258,-3.119,-3.119,-3.119,-3.119,-3.119,-3.119,-3.136,-3.163,-3.163,-3.163,-3.163,-3.163,-3.163,-3.163,-3.163,-3.163,-3.163,-3.163,-3.2019,-3.2493,-3.2493,-3.2933,-3.3406,-3.3406,-3.3406,-3.3406,-3.3406,-3.2949,-3.2493,-3.2493,-3.1935,-3.141,-3.141,-3.1292,-3.1241,-3.1376,-3.1292,-3.119,-3.119,-3.119,-3.119,-3.119,-3.119,-3.119,-3.119,-3.119,-3.119,-3.119,-3.119,-3.119,-3.119,-3.119,-3.119,-3.119,-3.119,-3.119,-3.119,-3.119,-3.119,-3.119,-3.119,-3.119,-3.119,-3.119,-3.1389,-3.1696,-3.1696,-3.1716,0.0,0.0,0.0,-2.1651,0.0,0.0,0.0,-2.2868,-2.3714,0.0,0.0,0.0,0.0,0.0,0.0,0.0,0.0,0.0,0.0,0.0,0.0,0.0,0.0,0.0,-3.3947,-3.3626,-3.3406,-3.3406,-3.3051,-3.2848,-3.2848,-3.2493,-3.2307,-3.2307,-3.1935,-3.1732,-3.1732,-3.1376,-3.119,-3.119,-3.119,-3.119,-3.119,-3.119,-3.119,-3.119,-3.119,-3.119,-3.119,-3.119,-3.119,-3.119,-3.119,-3.119,-3.119,-3.119,-3.119,-3.119,-3.119,-3.119,-3.119,-3.119,-3.1444,-3.1732,-3.1732,-3.2002,-3.2307,-3.2307,-3.2307,-3.2307,-3.2307,-3.2019,-3.1732,-3.1732,-3.1461,-3.119,-3.119,-3.119,-3.119,-3.119,-3.119,-3.119,-3.119,-3.119,-3.119,-3.119,-3.119,-3.119,-3.119,-3.119,-3.119,-3.119,-3.119,-3.119,-3.119,-3.119,-3.119,-3.119,-3.119,-3.119,-3.119,-3.119,-3.119,-3.119,-3.119,-3.119,-3.119,-3.119,-3.1291,-3.1507,-3.1507,-3.1507,0.0,0.0,0.0,0.0,0.0,-2.1109,0.0,0.0,0.0,0.0,0.0,0.0,0.0,0.0,0.0,0.0,0.0,0.0,0.0,0.0,0.0,0.0,0.0,0.0,0.0,-3.2154,-3.251,-3.2949,-3.2408,-3.211,-3.211,-3.1512,-3.119,-3.119,-3.119,-3.119,-3.119,-3.119,-3.119,-3.119,-3.119,-3.119,-3.119,-3.119,-3.119,-3.119,-3.119,-3.119,-3.119,-3.119,-3.119,-3.119,-3.119,-3.119,-3.119,-3.119,-3.119,-3.119,-3.119,-3.119,-3.119,-3.119,-3.119,-3.119,-3.119,-3.119,-3.119,-3.119,-3.119,-3.119,-3.119,-3.119,-3.119,-3.119,-3.119,-3.119,-3.119,-3.119,-3.119,-3.119,-3.119,-3.119,-3.119,-3.119,-3.119,-3.119,-3.119,-3.119,-3.119,-3.119,-3.119,-3.119,-3.119,-3.119,-3.119,-3.119,-3.119,-3.119,-3.119,-3.119,-3.119,-3.119,-3.119,-3.119,-3.119,-3.119,-3.119,-3.119,-3.119,-3.119,-3.119,-3.119,0.0,0.0,0.0,0.0,-2.0137,0.0,0.0,0.0,-2.0508,-2.0508,0.0,0.0,0.0,0.0,0.0,0.0,0.0,0.0,0.0,0.0,0.0,0.0,0.0,0.0,0.0,-2.7689,-2.9279,-3.1292,-3.136,-3.1309,-3.1309,-3.1241,-3.119,-3.119,-3.119,-3.119,-3.119,-3.119,-3.119,-3.119,-3.119,-3.119,-3.119,-3.119,-3.119,-3.119,-3.119,-3.119,-3.119,-3.119,-3.119,-3.119,-3.119,-3.119,-3.119,-3.119,-3.119,-3.119,-3.119,-3.119,-3.119,-3.119,-3.119,-3.119,-3.119,-3.119,-3.119,-3.119,-3.119,-3.119,-3.119,-3.119,-3.119,-3.119,-3.119,-3.119,-3.119,-3.119,-3.119,-3.119,-3.119,-3.119,-3.119,-3.119,-3.119,-3.119,-3.119,-3.119,-3.119,-3.119,-3.119,-3.119,-3.119,-3.119,-3.119,-3.119,-3.119,-3.119,-3.119,-3.119,-3.119,-3.119,-3.119,-3.119,-3.119,-3.119,-3.119,-3.119,-3.119,-3.119,-3.119,-3.119,0.0,0.0,0.0,0.0,0.0,0.0,-2.1887,0.0,-1.9367,0.0,0.0,0.0,0.0,0.0,0.0,0.0,-1.8268,0.0,0.0,0.0,0.0,0.0,0.0,0.0,0.0,0.0,0.0,0.0,-2.9245,-2.9245,-2.9245,-3.048,-3.119,-3.119,-3.119,-3.119,-3.119,-3.119,-3.119,-3.119,-3.119,-3.119,-3.119,-3.119,-3.119,-3.119,-3.119,-3.119,-3.119,-3.119,-3.119,-3.119,-3.119,-3.119,-3.119,-3.119,-3.119,-3.119,-3.119,-3.119,-3.119,-3.119,-3.119,-3.119,-3.119,-3.119,-3.119,-3.119,-3.119,-3.119,-3.119,-3.119,-3.119,-3.119,-3.119,-3.119,-3.119,-3.119,-3.119,-3.119,-3.119,-3.119,-3.119,-3.119,-3.119,-3.119,-3.119,-3.119,-3.119,-3.119,-3.119,-3.119,-3.119,-3.119,-3.119,-3.119,-3.119,-3.119,-3.119,-3.119,-3.119,-3.119,-3.119,-3.119,-3.119,-3.119,-3.119,-3.119,-3.119,-3.119,-3.119,-3.119,-2.1813,0.0,0.0,0.0,0.0,0.0,0.0,0.0,0.0,0.0,0.0,0.0,0.0,0.0,0.0,0.0,0.0,-1.7811,0.0,0.0,0.0,0.0,0.0,0.0,0.0,0.0,0.0,-2.6776,-2.7469,-2.7789,-2.7789,-2.9973,-3.119,-3.119,-3.119,-3.119,-3.119,-3.119,-3.119,-3.119,-3.119,-3.119,-3.119,-3.119,-3.119,-3.119,-3.119,-3.119,-3.119,-3.119,-3.119,-3.119,-3.119,-3.119,-3.119,-3.119,-3.119,-3.119,-3.119,-3.119,-3.119,-3.119,-3.119,-3.119,-3.119,-3.119,-3.119,-3.119,-3.119,-3.119,-3.119,-3.119,-3.119,-3.119,-3.119,-3.119,-3.119,-3.119,-3.119,-3.119,-3.119,-3.119,-3.119,-3.119,-3.119,-3.119,-3.119,-3.119,-3.119,-3.119,-3.119,-3.119,-3.119,-3.119,-3.119,-3.119,-3.119,-3.119,-3.119,-3.119,-3.119,-3.119,-3.119,-3.119,-3.119,-3.119,-3.119,-3.119,-3.119,-3.119,-3.119,-3.119,0.0,0.0,0.0,-2.1779,0.0,0.0,0.0,0.0,-1.7845,0.0,0.0,0.0,0.0,0.0,0.0,0.0,0.0,0.0,0.0,0.0,0.0,0.0,0.0,0.0,0.0,0.0,0.0,-2.4608,-2.659,-2.7789,-2.7789,-2.9973,-3.119,-3.119,-3.119,-3.119,-3.119,-3.119,-3.119,-3.119,-3.119,-3.119,-3.119,-3.119,-3.119,-3.119,-3.119,-3.119,-3.119,-3.119,-3.119,-3.119,-3.119,-3.119,-3.119,-3.119,-3.119,-3.119,-3.119,-3.119,-3.119,-3.119,-3.119,-3.119,-3.119,-3.119,-3.119,-3.119,-3.119,-3.119,-3.119,-3.119,-3.119,-3.119,-3.119,-3.119,-3.119,-3.119,-3.119,-3.119,-3.119,-3.119,-3.119,-3.119,-3.119,-3.119,-3.119,-3.119,-3.119,-3.119,-3.119,-3.119,-3.119,-3.119,-3.119,-3.119,-3.119,-3.119,-3.119,-3.119,-3.119,-3.119,-3.119,-3.119,-3.119,-3.119,-3.119,-3.119,-3.119,-3.119,-3.119,-3.119,0.0,0.0,-2.6505,-2.5761,0.0,0.0,0.0,0.0,0.0,0.0,0.0,0.0,0.0,0.0,0.0,0.0,0.0,0.0,0.0,0.0,0.0,0.0,0.0,0.0,0.0,0.0,0.0,-2.222,-2.3004,-2.3427,-2.3427,-2.6945,-2.8958,-2.8958,-3.0412,-3.119,-3.119,-3.119,-3.119,-3.119,-3.119,-3.119,-3.119,-3.119,-3.119,-3.119,-3.119,-3.119,-3.119,-3.119,-3.119,-3.119,-3.119,-3.119,-3.119,-3.119,-3.119,-3.119,-3.119,-3.119,-3.119,-3.119,-3.119,-3.119,-3.119,-3.119,-3.119,-3.119,-3.119,-3.119,-3.119,-3.119,-3.119,-3.119,-3.119,-3.119,-3.119,-3.119,-3.119,-3.119,-3.119,-3.119,-3.119,-3.119,-3.119,-3.119,-3.119,-3.119,-3.119,-3.119,-3.119,-3.119,-3.119,-3.119,-3.119,-3.119,-3.119,-3.119,-3.119,-3.119,-3.119,-3.119,-3.119,-3.119,-3.119,-3.119,-3.119,-3.119,-3.119,-3.119,-3.119,-3.119,-2.8619,-2.9025,0.0,-2.7992,-2.6742,0.0,-2.4692,0.0,0.0,0.0,0.0,0.0,0.0,0.0,0.0,0.0,0.0,0.0,0.0,-1.7811,0.0,0.0,0.0,0.0,0.0,0.0,-1.9283,-1.9942,-2.0746,-2.1204,0.0,0.0,-2.7789,-2.7789,-3.0023,-3.119,-3.119,-3.119,-3.119,-3.119,-3.119,-3.119,-3.119,-3.119,-3.119,-3.119,-3.119,-3.119,-3.119,-3.119,-3.119,-3.119,-3.119,-3.119,-3.119,-3.119,-3.119,-3.119,-3.119,-3.119,-3.119,-3.119,-3.119,-3.119,-3.119,-3.119,-3.136,-3.2138,-3.1799,-3.1376,-3.2171,-3.1782,-3.119,-3.119,-3.119,-3.119,-3.119,-3.119,-3.119,-3.119,-3.119,-3.119,-3.119,-3.119,-3.119,-3.119,-3.119,-3.119,-3.119,-3.119,-3.119,-3.119,-3.119,-3.119,-3.119,-3.119,-3.119,-3.119,-3.119,-3.119,-3.119,-3.119,-3.119,-3.119,-3.119,-3.119,-3.119,-3.119,-3.119,-3.119,-3.119,-3.119]}]]